[[[{"header":{"parameterUnit":"kt","parameterCategory":2,"dx":1,"dy":1,"la1":29.587661999999998,"la2":31.0,"lo1":-88.76705300000003,"lo2":-86.6583820000003,"nx":115,"ny":88,"refTime":"2022-09-23T18:00:00:Z","depth":0,"parameterNumber":1,"parameterNumberName":"U-component_of_WINDS"},"data":[16.2866,16.031,15.9473,15.758,15.522,15.4463,15.3724,15.3258,15.3153,15.3153,15.3503,15.3724,15.4221,15.4037,15.4349,15.4359,15.5024,15.5538,15.6599,15.7647,15.6599,15.6869,15.748,15.8086,15.9468,16.0249,16.0962,16.2489,16.3522,16.4418,16.5335,16.6573,16.7147,16.7206,16.7176,16.7503,16.8413,16.9377,17.0328,17.0612,17.2391,17.2786,17.3142,17.3262,17.3262,17.3262,17.2786,17.1035,17.0357,16.929,16.765,16.5978,16.4913,16.4421,16.4391,16.4081,16.4205,16.3491,16.2863,16.239,16.1914,16.04,16.0367,16.0173,16.0075,16.001,16.0173,16.0371,16.053,16.095,16.0788,16.0107,15.9912,15.9912,15.9777,15.9777,15.8619,15.8247,15.798,15.7746,15.7746,15.7779,15.7746,15.7645,15.7645,15.7612,15.7612,15.7612,15.7612,15.7612,15.7612,15.7612,15.7612,15.7612,15.7612,15.7612,15.7612,15.7612,15.7612,15.7612,15.7612,15.7612,15.7612,15.7612,15.7612,15.7612,15.7612,15.7612,15.7612,15.7612,15.7612,15.7612,15.7612,15.7612,15.7612,16.6666,16.3708,16.2929,16.074,15.8013,15.7647,15.6091,15.3724,15.3328,15.3433,15.4117,15.8284,15.8483,15.8351,15.8845,15.8079,15.778,15.8218,15.9697,16.0544,16.012,16.0346,16.0576,16.093,16.1346,16.1983,16.3054,16.482,16.6666,16.7523,16.9075,17.1604,17.217,17.2114,17.2225,17.217,17.1604,17.1966,17.2225,17.2693,17.2978,17.3262,17.3262,17.3262,17.3262,17.3262,17.3262,17.2841,17.2814,17.1604,17.0158,16.8267,16.7087,16.6576,16.6366,16.655,16.667,16.6069,16.5097,16.4913,16.4483,16.4174,16.4545,16.4514,16.4359,16.439,16.4419,16.4481,16.4513,16.4606,16.4483,16.4205,16.4205,16.4174,16.3864,16.3616,16.1336,15.9345,15.8685,15.8013,15.8047,15.8047,15.7947,15.7779,15.7712,15.7612,15.7612,15.7612,15.7612,15.7612,15.7612,15.7612,15.7612,15.7612,15.7612,15.7612,15.7612,15.7612,15.7612,15.7612,15.7612,15.7612,15.7612,15.7612,15.7612,15.7612,15.7612,15.7612,15.7612,15.7612,15.7612,15.7612,15.7612,15.7612,15.7612,17.0612,16.9052,16.6896,16.4263,16.1826,16.1157,16.0285,15.8884,15.8417,15.8251,15.8878,16.0801,16.1378,16.0217,16.109,16.0608,16.0055,16.0994,16.2552,16.3117,16.2866,16.3429,16.4142,16.4757,16.4389,16.4942,16.6279,16.7709,16.9807,17.0689,17.1054,17.2556,17.2978,17.2951,17.3005,17.3087,17.2978,17.3262,17.306,17.3115,17.3142,17.3262,17.3262,17.3262,17.3262,17.3262,17.3262,17.3262,17.3262,17.2677,17.2087,17.0328,16.975,16.9261,16.9492,16.9492,16.9261,16.9117,16.8033,16.7325,16.6819,16.5523,16.528,16.5758,16.5906,16.7976,16.8063,16.7174,16.7179,16.6819,16.6699,16.643,16.64,16.64,16.6159,16.5706,16.3926,16.2326,16.1818,16.121,16.1046,16.1014,16.0756,16.0627,15.9809,15.9777,15.7947,15.7779,15.7645,15.7612,15.7612,15.7612,15.7612,15.7612,15.7612,15.7612,15.7612,15.7612,15.7612,15.7612,15.7612,15.7612,15.7612,15.7612,15.7612,15.7612,15.7612,15.7612,15.7612,15.7612,15.7612,15.7612,15.7612,15.7612,15.7612,17.3262,17.2951,17.0397,16.7758,16.5274,16.4664,16.4049,16.3335,16.4111,16.4726,16.4757,16.4971,16.4481,16.346,16.4513,16.4328,16.3615,16.4605,16.543,16.6159,16.6069,16.667,16.7625,16.7714,16.7655,16.8459,16.9505,17.0827,17.167,17.2418,17.3115,17.3262,17.3262,17.3262,17.3262,17.3262,17.3262,17.3262,17.3262,17.3262,17.3262,17.3262,17.3262,17.3262,17.3262,17.3262,17.3262,17.3262,17.3262,17.3262,17.3262,17.3262,17.3262,17.3087,17.3115,17.3142,17.2622,17.1604,17.0669,17.0064,16.9607,16.8179,16.7267,16.6938,16.7656,17.0115,17.0906,16.979,16.9125,16.8651,16.8297,16.7974,16.7768,16.7739,16.768,16.7147,16.652,16.6036,16.5794,16.543,16.5158,16.4852,16.4545,16.3864,16.2833,16.1531,16.001,15.9148,15.9383,15.9842,16.0238,15.9318,15.8917,15.8287,15.7612,15.7612,15.7612,15.7612,15.7779,15.7712,15.7612,15.7612,15.7612,15.7612,15.7612,15.7612,15.7612,15.7612,15.7612,15.7612,15.7612,15.7612,15.7612,15.7612,15.7612,17.3262,17.3142,17.2858,17.0745,16.8017,16.7846,16.624,16.4018,16.885,17.1269,17.0931,17.0798,16.8978,16.7266,16.8448,16.8331,16.7596,16.8243,16.9477,17.075,16.9563,16.9563,17.0087,17.018,16.9972,17.0152,17.0722,17.1623,17.2263,17.2814,17.3262,17.3262,17.3262,17.3262,17.3262,17.3262,17.3262,17.3262,17.3262,17.3262,17.3262,17.3262,17.3262,17.3262,17.3262,17.3262,17.3262,17.3262,17.3262,17.3262,17.3262,17.3262,17.3262,17.3262,17.3262,17.3262,17.3262,17.2677,17.2418,17.2225,17.2004,17.1722,17.1359,17.0328,16.993,17.1354,17.1838,17.1134,17.1277,17.097,17.0782,17.0527,17.047,17.0499,17.0357,16.9893,16.9377,16.8972,16.8501,16.7798,16.7503,16.7414,16.7087,16.6249,16.5158,16.5066,16.3988,16.2801,16.2989,16.3491,16.3021,16.1658,16.1336,16.0821,16.001,15.9646,15.8884,15.8047,15.8047,15.8013,15.7679,15.7612,15.7612,15.7612,15.7612,15.7612,15.7612,15.7612,15.7612,15.7612,15.7612,15.7612,15.7612,15.7612,15.7612,17.3262,17.3262,17.3262,17.2473,17.1316,17.1204,17.0604,16.9857,17.1716,17.2567,17.2291,17.2374,17.1567,17.0165,17.1053,17.1193,16.9851,17.1089,17.1716,17.1856,17.1651,17.1846,17.2097,17.2069,17.1763,17.1791,17.1902,17.1986,17.2291,17.2814,17.3262,17.3262,17.3262,17.3262,17.3262,17.3262,17.3262,17.3262,17.3262,17.3262,17.3262,17.3262,17.3262,17.3262,17.3262,17.3262,17.3262,17.3262,17.3262,17.3262,17.3262,17.3262,17.3262,17.3262,17.3262,17.3262,17.3262,17.3262,17.3262,17.3262,17.3262,17.2983,17.2545,17.1919,17.1827,17.1827,17.2024,17.238,17.284,17.3262,17.3262,17.3262,17.3262,17.3262,17.2951,17.2638,17.2197,17.166,17.0894,17.0101,16.9815,16.9729,16.9232,16.8326,16.7739,16.7503,16.6879,16.5918,16.5948,16.664,16.6008,16.436,16.3771,16.3397,16.3366,16.3021,16.1786,16.0659,16.014,15.9153,15.7746,15.7679,15.788,15.7813,15.7645,15.7612,15.7612,15.7612,15.7612,15.7612,15.7612,15.7612,15.7612,15.7612,15.7612,17.3262,17.3262,17.3262,17.3262,17.3262,17.3169,17.3262,17.3262,17.3169,17.2978,17.2567,17.3005,17.2594,17.2023,17.2318,17.2235,17.2051,17.2023,17.2208,17.2346,17.2511,17.2677,17.2731,17.2649,17.2567,17.2456,17.2511,17.2594,17.2677,17.2869,17.3169,17.3262,17.3262,17.3262,17.3262,17.3262,17.3262,17.3262,17.3262,17.3262,17.3262,17.3262,17.3262,17.3262,17.3262,17.3262,17.3262,17.3262,17.3262,17.3262,17.3262,17.3262,17.3262,17.3262,17.3262,17.3262,17.3262,17.3262,17.3262,17.3262,17.3262,17.3196,17.3103,17.2511,17.2051,17.1827,17.1892,17.238,17.2906,17.3131,17.3262,17.3262,17.3262,17.3262,17.3115,17.2978,17.2896,17.2473,17.2418,17.1809,17.1865,17.1809,17.1799,17.0894,16.9836,16.9721,16.9348,16.8682,16.8652,16.9671,16.9204,16.7176,16.631,16.5645,16.5706,16.5523,16.4267,16.321,16.2738,16.1977,16.027,15.9016,15.8447,15.8047,15.7712,15.7612,15.7612,15.7612,15.7612,15.7612,15.7612,15.7612,15.7612,15.7612,15.7612,17.3262,17.3262,17.3262,17.3262,17.3262,17.3262,17.3262,17.3262,17.3262,17.3235,17.3115,17.3142,17.306,17.3033,17.3087,17.3033,17.2989,17.3016,17.3005,17.306,17.2978,17.2731,17.2594,17.2484,17.2539,17.2401,17.2456,17.2841,17.3115,17.3196,17.3196,17.3262,17.3262,17.3262,17.3262,17.3262,17.3262,17.3262,17.3262,17.3262,17.3262,17.3262,17.3262,17.3262,17.3262,17.3262,17.3262,17.3262,17.3262,17.3262,17.3262,17.3262,17.3262,17.3262,17.3262,17.3262,17.3262,17.3262,17.3262,17.3262,17.3196,17.284,17.2999,17.3065,17.2577,17.1892,17.1695,17.1958,17.238,17.2709,17.3196,17.3196,17.3196,17.3262,17.3262,17.3262,17.3262,17.3262,17.3262,17.3262,17.3262,17.3169,17.306,17.306,17.192,17.1688,17.1381,17.0847,17.0903,17.1976,17.1128,16.9232,16.8798,16.8033,16.7473,16.7236,16.631,16.5645,16.5219,16.4514,16.2674,16.1175,16.0136,15.9049,15.818,15.7612,15.7612,15.7612,15.7612,15.7612,15.7612,15.7612,15.7612,15.7612,15.7612,17.3262,17.3262,17.3262,17.3262,17.3262,17.3262,17.3262,17.3262,17.3262,17.3262,17.3262,17.3262,17.3262,17.3262,17.3262,17.3262,17.3262,17.3262,17.3262,17.3262,17.3262,17.3033,17.2896,17.2896,17.2759,17.2841,17.2896,17.2896,17.3169,17.3262,17.3262,17.3262,17.3262,17.3262,17.3262,17.3262,17.3262,17.3262,17.3262,17.3262,17.3262,17.3262,17.3262,17.3262,17.3262,17.3262,17.3262,17.3262,17.3262,17.3262,17.3262,17.3262,17.3262,17.3262,17.3262,17.3262,17.3262,17.3262,17.3262,17.3262,17.2774,17.2248,17.1854,17.1366,17.0577,17.1038,17.0972,17.1169,17.1262,17.1591,17.1985,17.3065,17.3131,17.3196,17.3262,17.3262,17.3262,17.3262,17.3262,17.3262,17.3262,17.3262,17.3169,17.3262,17.3262,17.3262,17.3262,17.3005,17.2841,17.2869,17.2336,17.1799,17.1465,17.0923,17.0357,16.9521,16.874,16.8062,16.7503,16.6998,16.5219,16.3459,16.1848,16.0428,15.9115,15.8114,15.7846,15.7612,15.7612,15.7612,15.7612,15.7612,15.7612,15.7612,15.7612,17.3262,17.3262,17.3262,17.3262,17.3262,17.3262,17.3262,17.3262,17.3262,17.3262,17.3262,17.3262,17.3262,17.3262,17.3262,17.3262,17.3262,17.3262,17.3262,17.3262,17.3262,17.3262,17.3169,17.3115,17.3142,17.3169,17.3169,17.3142,17.3262,17.3262,17.3262,17.3262,17.3262,17.3262,17.3262,17.3262,17.3262,17.3262,17.3262,17.3262,17.3262,17.3262,17.3262,17.3262,17.3262,17.3262,17.3262,17.3262,17.3262,17.3262,17.3262,17.3262,17.3262,17.3262,17.3262,17.3262,17.3262,17.3262,17.3262,17.3131,17.2643,17.2221,17.1958,17.1695,17.0709,17.0446,17.038,17.0906,17.1854,17.1985,17.1722,17.2709,17.3038,17.3131,17.3262,17.3262,17.3262,17.3262,17.3262,17.3262,17.3262,17.3262,17.3262,17.3262,17.3262,17.3262,17.3262,17.3262,17.3262,17.3169,17.3169,17.3196,17.3262,17.3262,17.306,17.2004,17.1128,17.0612,17.0101,16.9261,16.7739,16.6008,16.4081,16.1592,16.0071,15.8679,15.808,15.7612,15.7612,15.7679,15.7612,15.7612,15.7612,15.7612,15.7612,17.3262,17.3262,17.3262,17.3262,17.3262,17.3262,17.3262,17.3262,17.3262,17.3262,17.3262,17.3262,17.3262,17.3262,17.3262,17.3262,17.3262,17.3262,17.3262,17.3262,17.3262,17.3262,17.3262,17.3262,17.3262,17.3262,17.3262,17.3262,17.3262,17.3262,17.3262,17.3262,17.3262,17.3262,17.3262,17.3262,17.3262,17.3262,17.3262,17.3262,17.3262,17.3262,17.3262,17.3262,17.3262,17.3262,17.3262,17.3262,17.3262,17.3262,17.3262,17.3262,17.3262,17.3262,17.3262,17.3262,17.3262,17.3262,17.3262,17.3262,17.2972,17.2577,17.2183,17.2051,17.2577,17.2577,17.1985,17.0972,17.1919,17.238,17.2906,17.3038,17.3038,17.3103,17.3196,17.3262,17.3262,17.3262,17.3262,17.3262,17.3262,17.3262,17.3262,17.3262,17.3262,17.3262,17.3262,17.3262,17.3262,17.3196,17.3196,17.3262,17.3262,17.3262,17.3262,17.3262,17.3262,17.3169,17.2473,17.1325,16.9865,16.8126,16.5675,16.3021,16.1592,16.0756,15.9318,15.7947,15.8447,15.895,15.8447,15.818,15.7679,15.7612,15.7612,17.3262,17.3262,17.3262,17.3262,17.3262,17.3262,17.3262,17.3262,17.3262,17.3262,17.3262,17.3262,17.3262,17.3262,17.3262,17.3262,17.3262,17.3262,17.3262,17.3262,17.3262,17.3262,17.3262,17.3262,17.3262,17.3262,17.3262,17.3262,17.3262,17.3262,17.3262,17.3262,17.3262,17.3262,17.3262,17.3262,17.3262,17.3262,17.3262,17.3262,17.3262,17.3262,17.3262,17.3262,17.3262,17.3262,17.3262,17.3262,17.3262,17.3262,17.3262,17.3262,17.3262,17.3262,17.3262,17.3262,17.3262,17.3262,17.3262,17.3131,17.2709,17.2024,17.1854,17.1301,17.0511,17.0183,17.1038,17.0775,17.0577,17.0577,17.1591,17.2117,17.2314,17.3103,17.3196,17.3262,17.3262,17.3262,17.3262,17.3262,17.3262,17.3262,17.3262,17.3262,17.3262,17.3262,17.3262,17.3262,17.3262,17.3262,17.3262,17.3262,17.3262,17.3262,17.3262,17.3262,17.3262,17.3262,17.3033,17.2308,17.1576,16.9901,16.7621,16.5766,16.4298,16.2927,16.2009,16.121,16.0821,16.0461,16.0168,16.0071,15.9515,15.8751,15.842,17.3262,17.3262,17.3262,17.3262,17.3262,17.3262,17.3262,17.3262,17.3262,17.3262,17.3262,17.3262,17.3262,17.3262,17.3262,17.3262,17.3262,17.3262,17.3262,17.3262,17.3262,17.3262,17.3262,17.3262,17.3262,17.3262,17.3262,17.3262,17.3262,17.3262,17.3262,17.3262,17.3262,17.3262,17.3262,17.3262,17.3262,17.3262,17.3262,17.3262,17.3262,17.3262,17.3262,17.3262,17.3262,17.3262,17.3262,17.3262,17.3262,17.3262,17.3262,17.3262,17.3262,17.3262,17.3262,17.3262,17.3262,17.3262,17.3196,17.2577,17.2051,17.1103,17.1038,17.1103,17.1301,17.0775,17.0577,17.0511,17.0972,17.1498,17.1854,17.1919,17.1985,17.284,17.3262,17.3262,17.3262,17.3262,17.3262,17.3262,17.3262,17.3262,17.3262,17.3196,17.3131,17.3065,17.3196,17.3262,17.3262,17.3262,17.3262,17.3262,17.3262,17.3262,17.3262,17.3262,17.3262,17.3262,17.3169,17.2923,17.2649,17.11,17.0044,16.9001,16.7532,16.5706,16.4514,16.4267,16.3833,16.321,16.2706,16.2168,16.1143,16.0201,16.0821,17.3262,17.3262,17.3262,17.3262,17.3262,17.3262,17.3262,17.3262,17.3262,17.3262,17.3262,17.3262,17.3262,17.3262,17.3262,17.3262,17.3262,17.3262,17.3262,17.3262,17.3262,17.3262,17.3262,17.3262,17.3262,17.3262,17.3262,17.3262,17.3262,17.3262,17.3262,17.3262,17.3262,17.3262,17.3262,17.3262,17.3262,17.3262,17.3262,17.3262,17.3262,17.3262,17.3262,17.3262,17.3262,17.3262,17.3262,17.3262,17.3262,17.3262,17.3262,17.3262,17.3262,17.3262,17.3262,17.3262,17.3262,17.2972,17.2643,17.1919,17.1196,17.0906,17.0906,17.0972,17.1722,17.2577,17.2999,17.2643,17.1498,17.209,17.2709,17.3103,17.2577,17.3038,17.3262,17.3262,17.3262,17.3262,17.3262,17.3262,17.3262,17.3262,17.3196,17.2643,17.2511,17.1722,17.1722,17.238,17.2511,17.2972,17.3065,17.3262,17.3262,17.3262,17.3262,17.3262,17.3262,17.3262,17.3262,17.3262,17.3262,17.2841,17.1837,17.0838,17.0064,16.8179,16.6729,16.7443,16.7562,16.64,16.5371,16.476,16.3833,16.2674,16.3146,17.3262,17.3262,17.3262,17.3262,17.3262,17.3262,17.3262,17.3262,17.3262,17.3262,17.3262,17.3262,17.3262,17.3262,17.3262,17.3262,17.3262,17.3262,17.3262,17.3262,17.3262,17.3262,17.3262,17.3262,17.3262,17.3262,17.3262,17.3262,17.3262,17.3262,17.3262,17.3262,17.3262,17.3262,17.3262,17.3262,17.3262,17.3262,17.3262,17.3262,17.3262,17.3262,17.3262,17.3262,17.3262,17.3262,17.3262,17.3262,17.3262,17.3262,17.3262,17.3262,17.3262,17.3262,17.3262,17.3196,17.2972,17.2643,17.1722,17.1038,17.0511,16.9827,16.9564,17.0051,17.1196,17.0577,17.0511,17.2906,17.1629,17.1629,17.2353,17.2248,17.2511,17.2906,17.3262,17.3262,17.3262,17.3262,17.3262,17.3262,17.3262,17.3262,17.238,17.1958,17.1301,17.0511,17.0709,17.1366,17.1985,17.2577,17.284,17.3262,17.3262,17.3262,17.3262,17.3262,17.3262,17.3262,17.3262,17.3262,17.3262,17.2978,17.2731,17.2786,17.2446,17.0753,16.9001,17.0385,17.1493,16.9721,16.815,16.7443,16.6576,16.5249,16.4974,17.3262,17.3262,17.3262,17.3262,17.3262,17.3262,17.3262,17.3262,17.3262,17.3262,17.3262,17.3262,17.3262,17.3262,17.3262,17.3262,17.3262,17.3262,17.3262,17.3262,17.3262,17.3262,17.3262,17.3262,17.3262,17.3262,17.3262,17.3262,17.3262,17.3262,17.3262,17.3262,17.3262,17.3262,17.3262,17.3262,17.3262,17.3262,17.3262,17.3262,17.3262,17.3262,17.3262,17.3262,17.3262,17.3262,17.3262,17.3262,17.3262,17.3262,17.3262,17.3262,17.3262,17.3262,17.3196,17.3169,17.2709,17.1656,17.0314,16.9552,16.8828,16.8144,16.8078,16.8605,16.9696,17.0051,17.0906,17.2183,17.0643,17.1038,17.2446,17.238,17.2643,17.284,17.3196,17.3262,17.3262,17.3262,17.3131,17.3196,17.3131,17.1985,17.0972,17.0511,17.0024,16.9761,17.0248,17.0972,17.1629,17.238,17.2906,17.3196,17.3196,17.3065,17.2999,17.2972,17.2906,17.2972,17.2972,17.3262,17.3262,17.3262,17.3087,17.3087,17.3087,17.2529,17.1604,17.1799,17.2363,17.1744,17.0951,17.0697,17.0328,16.8885,16.7798,17.3262,17.3262,17.3262,17.3262,17.3262,17.3262,17.3262,17.3262,17.3262,17.3262,17.3262,17.3262,17.3262,17.3262,17.3262,17.3262,17.3262,17.3262,17.3262,17.3262,17.3262,17.3262,17.3262,17.3262,17.3262,17.3262,17.3262,17.3262,17.3262,17.3262,17.3262,17.3262,17.3262,17.3262,17.3262,17.3262,17.3262,17.3262,17.3262,17.3262,17.3262,17.3262,17.3262,17.3262,17.3262,17.3262,17.3262,17.3262,17.3262,17.3262,17.3262,17.3262,17.3262,17.3262,17.3262,17.2774,17.1854,17.0446,16.9104,16.8013,16.7118,16.6632,16.65,16.7158,16.8013,16.8999,16.9985,17.0643,17.0643,17.1235,17.2248,17.2906,17.3196,17.3262,17.3262,17.3262,17.3262,17.3196,17.284,17.2774,17.1722,17.0577,16.9394,16.9038,16.8907,16.9301,16.9827,17.055,17.1366,17.2446,17.3169,17.3038,17.2972,17.2511,17.2314,17.2446,17.2446,17.2643,17.284,17.3262,17.3262,17.3262,17.3196,17.3131,17.3169,17.2841,17.2391,17.2446,17.2978,17.2786,17.2225,17.2556,17.3142,17.2786,17.1521,17.3262,17.3262,17.3262,17.3262,17.3262,17.3262,17.3262,17.3262,17.3262,17.3262,17.3262,17.3262,17.3262,17.3262,17.3262,17.3262,17.3262,17.3262,17.3262,17.3262,17.3262,17.3262,17.3262,17.3262,17.3262,17.3262,17.3262,17.3262,17.3262,17.3262,17.3262,17.3262,17.3262,17.3262,17.3262,17.3262,17.3262,17.3262,17.3262,17.3262,17.3262,17.3262,17.3262,17.3262,17.3262,17.3262,17.3262,17.3262,17.3262,17.3262,17.3262,17.3262,17.3262,17.3196,17.3196,17.2972,17.1827,17.0446,16.8907,16.7421,16.6106,16.5225,16.5028,16.5093,16.5882,16.7224,16.8236,16.9131,16.9367,16.9985,17.1301,17.2418,17.2906,17.2972,17.2999,17.3131,17.284,17.2643,17.2183,17.1169,17.0287,16.9104,16.7881,16.7421,16.7789,16.8183,16.9394,17.0117,17.1169,17.2314,17.3103,17.2972,17.2511,17.1985,17.1498,17.1564,17.1498,17.1498,17.1854,17.2117,17.2446,17.2933,17.3065,17.2906,17.2972,17.2933,17.3196,17.3169,17.3262,17.3262,17.3262,17.3196,17.3169,17.2978,17.2786,17.3262,17.3262,17.3262,17.3262,17.3262,17.3262,17.3262,17.3262,17.3262,17.3262,17.3262,17.3262,17.3262,17.3262,17.3262,17.3262,17.3262,17.3262,17.3262,17.3262,17.3262,17.3262,17.3262,17.3262,17.3262,17.3262,17.3262,17.3262,17.3262,17.3262,17.3262,17.3262,17.3262,17.3262,17.3262,17.3262,17.3262,17.3262,17.3262,17.3262,17.3262,17.3262,17.3262,17.3262,17.3262,17.3262,17.3262,17.3262,17.3262,17.3262,17.3262,17.3262,17.2972,17.2577,17.1854,17.0972,16.9657,16.8276,16.6803,16.6145,16.5382,16.4567,16.4476,16.4765,16.5422,16.5645,16.6369,16.7421,16.7947,16.8473,16.9854,17.0577,17.1103,17.113,17.1038,17.0972,17.1038,17.1103,17.0183,16.8933,16.8341,16.7526,16.6303,16.6369,16.6698,16.7618,16.8802,16.992,17.0906,17.2051,17.3196,17.2774,17.2183,17.1301,17.0222,17.009,17.0051,17.0117,17.0314,17.0511,17.0933,17.1525,17.1919,17.2051,17.238,17.2314,17.2643,17.3131,17.3196,17.3262,17.3262,17.3262,17.3262,17.3262,17.3115,17.3262,17.3262,17.3262,17.3262,17.3262,17.3262,17.3262,17.3262,17.3262,17.3262,17.3262,17.3262,17.3262,17.3262,17.3262,17.3262,17.3262,17.3262,17.3262,17.3262,17.3262,17.3262,17.3262,17.3262,17.3262,17.3262,17.3262,17.3262,17.3262,17.3262,17.3262,17.3262,17.3262,17.3262,17.3262,17.3262,17.3262,17.3262,17.3262,17.3262,17.3262,17.3262,17.3262,17.3262,17.3262,17.3262,17.3262,17.3262,17.3262,17.3262,17.3262,17.3262,17.2972,17.1892,17.084,16.9722,16.8276,16.6921,16.5751,16.4896,16.4476,16.441,16.441,16.5093,16.558,16.5382,16.5356,16.6106,16.65,16.6961,16.8381,16.9104,16.8972,16.9038,16.9235,16.9235,16.9038,16.8578,16.7657,16.6895,16.65,16.5974,16.5685,16.5619,16.6237,16.7316,16.896,17.0446,17.1169,17.2051,17.2972,17.2577,17.1854,17.0446,16.9104,16.9038,16.8512,16.8605,16.9065,16.9328,16.9722,17.0248,17.038,17.0314,17.0511,17.1393,17.2248,17.2906,17.3065,17.3196,17.3262,17.3262,17.3262,17.3262,17.3262,17.3262,17.3262,17.3262,17.3262,17.3262,17.3262,17.3262,17.3262,17.3262,17.3262,17.3262,17.3262,17.3262,17.3262,17.3262,17.3262,17.3262,17.3262,17.3262,17.3262,17.3262,17.3262,17.3262,17.3262,17.3262,17.3262,17.3262,17.3262,17.3262,17.3262,17.3262,17.3262,17.3262,17.3262,17.3262,17.3262,17.3262,17.3262,17.3262,17.3262,17.3262,17.3262,17.3103,17.3038,17.3038,17.3038,17.3196,17.3262,17.3262,17.3262,17.3262,17.3262,17.284,17.1919,17.084,17.0511,16.7579,16.6066,16.5382,16.4896,16.4344,16.441,16.441,16.4633,16.4765,16.4699,16.4699,16.4896,16.5093,16.5619,16.6961,16.7815,16.8512,16.8709,16.8775,16.8907,16.8446,16.6579,16.5685,16.4962,16.5159,16.5159,16.4962,16.5093,16.5974,16.7118,16.9355,17.1038,17.1432,17.2051,17.2577,17.2511,17.1301,17.0051,16.8907,16.8512,16.7224,16.7355,16.7986,16.8315,16.8802,16.8802,16.8539,16.8539,16.9328,17.0538,17.1525,17.2511,17.3131,17.3196,17.3262,17.3262,17.3262,17.3262,17.3262,17.3262,17.3262,17.3262,17.3262,17.3262,17.3262,17.3262,17.3262,17.3262,17.3262,17.3262,17.3262,17.3262,17.3262,17.3262,17.3262,17.3262,17.3262,17.3262,17.3262,17.3262,17.3262,17.3262,17.3262,17.3262,17.3262,17.3262,17.3262,17.3262,17.3262,17.3262,17.3262,17.3262,17.3262,17.3262,17.3262,17.3262,17.3262,17.3262,17.3262,17.3262,17.3196,17.2972,17.2248,17.2117,17.2511,17.3103,17.3262,17.3262,17.2972,17.2446,17.1788,17.084,16.8868,16.7657,16.7066,16.4922,16.3673,16.4199,16.3738,16.3647,16.4344,16.441,16.441,16.441,16.441,16.441,16.441,16.4476,16.4673,16.5422,16.6343,16.6474,16.6606,16.654,16.6474,16.6343,16.533,16.441,16.441,16.441,16.441,16.4502,16.4765,16.5514,16.6461,16.8697,16.9328,16.9854,17.1038,17.1695,17.2024,17.084,16.9657,16.8578,16.7526,16.6237,16.6237,16.6737,16.7,16.7197,16.7,16.6763,16.7684,16.8539,16.9722,17.0933,17.2314,17.3196,17.3262,17.3262,17.3262,17.3262,17.3262,17.3262,17.3262,17.3262,17.3262,17.3262,17.3262,17.3262,17.3262,17.3262,17.3262,17.3262,17.3262,17.3262,17.3262,17.3262,17.3262,17.3262,17.3262,17.3262,17.3262,17.3262,17.3262,17.3262,17.3262,17.3262,17.3262,17.3262,17.3262,17.3262,17.3262,17.3262,17.3262,17.3262,17.3262,17.3262,17.3262,17.3262,17.3262,17.3262,17.3262,17.3262,17.3262,17.3196,17.2709,17.1919,17.1722,17.2248,17.3065,17.3262,17.2933,17.1985,17.0577,16.8841,16.7723,16.5554,16.4436,16.3778,16.1872,16.082,16.1568,16.1937,16.2332,16.3161,16.3515,16.3976,16.3976,16.4173,16.441,16.441,16.441,16.4476,16.4607,16.4476,16.4739,16.487,16.4739,16.4673,16.4476,16.4476,16.441,16.441,16.441,16.441,16.441,16.4567,16.5028,16.5974,16.679,16.7355,16.8407,16.9722,17.0577,17.1498,17.0183,16.867,16.7723,16.6934,16.5751,16.5225,16.5291,16.5356,16.5291,16.5159,16.5554,16.6408,16.7684,16.8868,17.0051,17.1459,17.2867,17.3131,17.3262,17.3262,17.3262,17.3262,17.3262,17.3262,17.3262,17.3262,17.3262,17.3262,17.3262,17.3262,17.3262,17.3262,17.3262,17.3262,17.3262,17.3262,17.3262,17.3262,17.3262,17.3262,17.3262,17.3262,17.3262,17.3262,17.3065,17.3065,17.3131,17.3262,17.3262,17.3262,17.3262,17.3262,17.3262,17.3262,17.3262,17.3262,17.3262,17.3262,17.3262,17.3262,17.3262,17.3262,17.3262,17.3262,17.3196,17.2906,17.2577,17.2511,17.2906,17.2972,17.284,17.1788,16.9459,16.6671,16.5488,16.4936,16.3541,16.2555,16.1963,16.0754,15.9965,16.0359,16.0622,16.0688,16.1411,16.2357,16.2489,16.2884,16.3647,16.4173,16.4173,16.441,16.437,16.441,16.441,16.441,16.441,16.4344,16.441,16.441,16.441,16.441,16.441,16.441,16.441,16.441,16.4476,16.4607,16.5974,16.6461,16.6921,16.7552,16.8539,16.9328,17.0117,16.9065,16.7618,16.7,16.6343,16.5199,16.441,16.441,16.441,16.441,16.4476,16.4607,16.5488,16.7263,16.8605,16.9591,17.0709,17.1985,17.2577,17.3131,17.3262,17.3262,17.3262,17.3262,17.3262,17.3262,17.3262,17.3262,17.3262,17.3262,17.3262,17.3262,17.3262,17.3262,17.3262,17.3262,17.3262,17.3262,17.3262,17.3262,17.3262,17.3262,17.3262,17.3262,17.3262,17.2774,17.238,17.2972,17.3262,17.3262,17.3262,17.3262,17.3262,17.3262,17.3262,17.3262,17.3262,17.3262,17.3262,17.3262,17.3262,17.3262,17.3262,17.3262,17.3262,17.3262,17.284,17.2155,17.284,17.2709,17.1892,17.1103,16.9394,16.6671,16.4436,16.3187,16.2989,16.1108,15.9818,15.9752,15.8478,15.8609,15.9702,16.0162,16.0885,16.2332,16.3055,16.3147,16.262,16.2752,16.3187,16.3278,16.3187,16.3647,16.4147,16.441,16.441,16.4213,16.3713,16.3212,16.3187,16.395,16.4344,16.441,16.441,16.441,16.441,16.5317,16.5645,16.5777,16.6,16.6329,16.6592,16.725,16.7881,16.8039,16.7381,16.7118,16.6698,16.5751,16.4607,16.4476,16.441,16.441,16.441,16.4476,16.4541,16.5028,16.6869,16.8473,16.9722,17.0906,17.1656,17.2117,17.2933,17.3262,17.3262,17.3262,17.3262,17.3262,17.3262,17.3262,17.3262,17.3262,17.3262,17.3262,17.3262,17.3262,17.3262,17.3262,17.3262,17.3262,17.3262,17.3262,17.3262,17.3262,17.3262,17.3262,17.3262,17.3262,17.2511,17.2051,17.2709,17.3262,17.3262,17.3262,17.3262,17.3262,17.3262,17.3262,17.3262,17.3262,17.3262,17.3262,17.3262,17.3262,17.3262,17.3262,17.3262,17.3262,17.3262,17.2643,17.1761,17.2643,17.2248,17.0577,16.9433,16.7526,16.4673,16.2792,16.1766,16.1568,15.999,15.9029,15.8897,15.7952,15.8149,15.9768,16.0162,16.1083,16.3121,16.3252,16.341,16.2357,16.262,16.2686,16.2317,16.2292,16.2595,16.3055,16.3187,16.3187,16.3252,16.3252,16.3121,16.3278,16.3778,16.441,16.441,16.441,16.4173,16.4107,16.4527,16.5014,16.4751,16.4948,16.5343,16.5145,16.558,16.6566,16.65,16.6461,16.6526,16.6237,16.5159,16.4541,16.4476,16.441,16.441,16.441,16.441,16.441,16.4476,16.6145,16.7026,16.8605,17.0051,17.084,17.1262,17.1854,17.2314,17.2511,17.2906,17.284,17.3262,17.3262,17.3262,17.3262,17.3262,17.3262,17.3262,17.3262,17.3262,17.3262,17.3262,17.3262,17.3262,17.3262,17.3262,17.3262,17.3262,17.3262,17.3262,17.3262,17.3196,17.3131,17.2867,17.3038,17.3262,17.3262,17.3262,17.3262,17.3262,17.3262,17.3262,17.3262,17.3262,17.3262,17.3262,17.3262,17.3262,17.3262,17.3262,17.3262,17.3262,17.3262,17.3038,17.3038,17.284,17.1788,16.9722,16.8775,16.7263,16.4502,16.1872,16.0714,16.0359,16.0228,15.9899,15.9833,15.9965,15.9965,16.0096,16.0425,16.0688,16.1346,16.2332,16.2357,16.2423,16.2924,16.3055,16.216,16.2094,16.1766,16.1017,16.1083,16.082,16.082,16.2069,16.345,16.4147,16.4304,16.4436,16.441,16.441,16.4041,16.3015,16.3081,16.2752,16.2226,16.2884,16.3607,16.387,16.4725,16.5356,16.5488,16.5448,16.558,16.5908,16.4962,16.4476,16.441,16.441,16.441,16.441,16.441,16.441,16.4541,16.5199,16.5751,16.6763,16.7881,16.8868,16.9854,17.0643,17.0972,17.1432,17.1958,17.2155,17.3262,17.3262,17.3262,17.3262,17.3262,17.3262,17.3262,17.3262,17.3262,17.3262,17.3196,17.3196,17.3262,17.3262,17.3262,17.3262,17.3262,17.3262,17.3262,17.3262,17.3262,17.3262,17.3262,17.3262,17.3262,17.3262,17.3262,17.3262,17.3262,17.3262,17.3262,17.3262,17.3262,17.3262,17.3262,17.3262,17.3262,17.3262,17.3196,17.3262,17.3196,17.3262,17.3262,17.2906,17.1432,17.0511,17.0183,16.746,16.4765,16.2266,16.1674,16.1503,16.1437,16.0688,16.0162,16.0162,16.0228,16.0622,16.1437,16.1503,16.1831,16.2701,16.3384,16.3278,16.2423,16.1674,16.1674,16.1017,16.0977,16.1108,16.1503,16.22,16.1017,15.8083,15.953,16.0648,16.1872,16.3318,16.4278,16.4278,16.437,16.4239,16.4107,16.433,16.4791,16.4553,16.4816,16.5145,16.5054,16.4633,16.4699,16.4765,16.4765,16.4962,16.5291,16.4962,16.4476,16.441,16.441,16.441,16.441,16.441,16.441,16.4541,16.4962,16.5711,16.604,16.6829,16.7289,16.8407,16.9433,16.9657,16.9854,17.0511,17.1169,17.1827,17.1854,17.1892,17.1854,17.1854,17.1854,17.1854,17.1827,17.1919,17.1854,17.1919,17.2314,17.2511,17.2577,17.3038,17.3262,17.3131,17.2248,17.1827,17.1761,17.1788,17.1985,17.238,17.2511,17.2774,17.3196,17.3262,17.3262,17.3262,17.3262,17.3262,17.3262,17.3262,17.3262,17.3262,17.3262,17.3262,17.3169,17.2774,17.2511,17.2511,17.2117,17.1854,17.1656,17.0024,16.9131,16.9525,16.5882,16.3187,16.1806,16.2398,16.2924,16.2818,16.2003,16.1543,16.1477,16.1477,16.2003,16.2884,16.2989,16.345,16.4107,16.3884,16.3278,16.2357,16.1108,16.0122,15.9596,15.953,15.957,16.0319,16.1214,16.0359,15.7532,15.8083,15.9398,16.0425,16.1912,16.2964,16.3095,16.3515,16.3515,16.345,16.4264,16.4553,16.4225,16.4619,16.5014,16.5145,16.4436,16.441,16.441,16.441,16.4633,16.4765,16.4699,16.441,16.441,16.441,16.441,16.441,16.441,16.441,16.4633,16.5225,16.5777,16.5974,16.6303,16.6474,16.7197,16.792,16.821,16.8276,16.8736,16.9433,16.9038,16.917,16.8972,16.9235,16.9301,16.9301,16.9104,16.9235,16.9262,16.9367,16.9657,17.0511,17.1038,17.1301,17.2183,17.2972,17.238,17.0446,16.9367,16.9301,16.917,16.9788,17.084,17.084,17.1459,17.2511,17.2972,17.3038,17.3065,17.3169,17.3262,17.3169,17.3131,17.2906,17.3131,17.284,17.2972,17.2643,17.1629,17.1038,17.0906,16.992,16.9301,16.9235,16.8802,16.8078,16.6921,16.4133,16.3121,16.4016,16.4239,16.441,16.4213,16.4081,16.4213,16.4081,16.4213,16.4278,16.4344,16.4147,16.4041,16.4107,16.3055,16.2226,16.1831,16.0754,15.953,15.8568,15.824,15.7779,15.6834,15.6834,15.736,15.9464,15.953,15.9661,15.9965,16.0228,16.0294,16.0688,16.1766,16.1766,16.1017,16.216,16.2884,16.22,16.2423,16.3212,16.341,16.4041,16.4344,16.441,16.441,16.441,16.441,16.441,16.441,16.441,16.441,16.441,16.441,16.441,16.441,16.4476,16.5093,16.5093,16.5356,16.5356,16.5554,16.5751,16.6237,16.6763,16.6961,16.7197,16.7855,16.8907,16.8907,16.8907,16.8907,16.8907,16.8907,16.8907,16.8907,16.8907,16.8907,16.8972,16.9394,16.9591,16.9722,17.0117,17.0314,17.009,16.9367,16.8907,16.8841,16.7881,16.771,16.8105,16.8171,16.8368,16.8894,16.9815,17.084,17.1722,17.2709,17.3196,17.3131,17.2183,17.1761,17.1564,17.0709,17.0314,17.0248,16.9854,16.9564,16.9564,16.917,16.8907,16.8644,16.6934,16.5619,16.5225,16.4304,16.4041,16.4344,16.441,16.441,16.441,16.441,16.441,16.441,16.441,16.441,16.4344,16.3515,16.3015,16.2949,16.17,16.0845,16.0754,15.953,15.8634,15.8174,15.8042,15.7911,15.7253,15.6373,15.6242,15.7097,15.8149,15.87,15.8741,15.953,15.9965,16.0096,16.1108,16.1897,16.1897,16.2858,16.3187,16.3161,16.3358,16.3778,16.3778,16.4213,16.441,16.441,16.441,16.441,16.441,16.441,16.441,16.441,16.441,16.441,16.441,16.441,16.441,16.441,16.4476,16.4476,16.4476,16.4476,16.4541,16.4607,16.5159,16.5645,16.5619,16.5882,16.6014,16.7329,16.7263,16.6737,16.6566,16.6566,16.6566,16.654,16.6632,16.7066,16.7329,16.7395,16.7947,16.8144,16.8078,16.654,16.5751,16.5751,16.5751,16.5751,16.5751,16.5408,16.5474,16.5908,16.6526,16.679,16.6921,16.775,16.867,16.9591,17.0999,17.1656,17.1525,17.0736,17.0314,17.0117,16.9394,16.8907,16.8841,16.8407,16.8144,16.8144,16.7592,16.7066,16.6474,16.4173,16.2898,16.2898,16.345,16.3647,16.3713,16.4213,16.4213,16.3778,16.3647,16.3252,16.2266,16.2135,16.1937,16.1346,16.0516,16.0015,15.995,15.865,15.7927,15.8256,15.736,15.6702,15.7122,15.7253,15.6595,15.5938,15.4951,15.4335,15.4491,15.5148,15.5633,15.6003,15.6965,15.7861,15.8058,15.907,16.0187,16.0516,16.1963,16.2858,16.2964,16.3384,16.3515,16.3647,16.4147,16.441,16.441,16.441,16.441,16.441,16.441,16.441,16.441,16.441,16.4344,16.441,16.441,16.441,16.441,16.441,16.441,16.441,16.441,16.441,16.4476,16.4476,16.4765,16.441,16.4936,16.4804,16.441,16.4304,16.3015,16.2686,16.2357,16.2423,16.2317,16.262,16.3581,16.4081,16.4304,16.5514,16.6263,16.5671,16.1872,16.0031,16.0096,16.0228,16.0294,16.0385,16.1371,16.2726,16.4147,16.5645,16.6263,16.5935,16.6198,16.6658,16.7053,16.8341,16.8907,16.8972,16.8907,16.8841,16.8802,16.8578,16.8644,16.8249,16.7289,16.6658,16.6526,16.5291,16.4041,16.2949,16.124,16.082,16.0754,16.1634,16.2226,16.2226,16.3121,16.3252,16.2094,16.1897,16.0673,15.8503,15.8042,15.745,15.6439,15.6176,15.6045,15.5782,15.4861,15.4311,15.5453,15.4598,15.4401,15.5519,15.5519,15.4532,15.2518,15.2255,15.2057,15.2189,15.2057,15.2123,15.2057,15.3743,15.3719,15.4048,15.5124,15.653,15.7886,15.9201,16.0294,16.0491,16.1371,16.216,16.2357,16.3384,16.4041,16.4173,16.4304,16.4344,16.4147,16.3555,16.3818,16.4041,16.391,16.4213,16.4344,16.441,16.441,16.441,16.441,16.441,16.441,16.441,16.441,16.441,16.441,16.441,16.441,16.441,16.441,16.441,16.4436,16.4016,16.3252,16.2226,16.124,16.0754,16.0688,16.0056,15.9793,15.9859,16.0213,15.9884,15.8832,15.7689,15.7031,15.7097,15.7097,15.7072,15.7097,15.7491,15.7886,15.8346,15.9752,16.0911,16.2029,16.3015,16.4619,16.679,16.821,16.8907,16.8709,16.7881,16.7381,16.725,16.6145,16.5659,16.5659,16.5356,16.5093,16.5028,16.4673,16.4278,16.391,16.345,16.3252,16.3227,16.1609,16.0754,16.0688,15.911,15.8083,15.7689,15.7713,15.7294,15.6595,15.6464,15.6308,15.5913,15.4902,15.4376,15.4245,15.302,15.2362,15.2649,15.2452,15.2452,15.2847,15.2781,15.2649,15.1663,15.1663,15.2123,15.302,15.3151,15.3151,15.3061,15.339,15.339,15.2362,15.2954,15.3702,15.6201,15.8412,15.9439,15.8807,15.9727,16.0779,16.0911,16.1897,16.2949,16.2949,16.3844,16.349,16.174,16.1543,16.1937,16.2332,16.2884,16.3252,16.4304,16.4344,16.441,16.3621,16.4213,16.4344,16.391,16.4147,16.4344,16.441,16.4344,16.4278,16.4107,16.437,16.437,16.2726,16.2726,16.2701,16.1543,15.9727,15.8807,15.8058,15.7598,15.7228,15.7187,15.699,15.5256,15.4072,15.3349,15.3899,15.4138,15.4138,15.4138,15.4138,15.4228,15.4729,15.5058,15.519,15.6505,15.7228,15.7664,15.9004,16.087,16.3106,16.4633,16.5948,16.6869,16.6277,16.5843,16.5751,16.4896,16.441,16.441,16.441,16.3818,16.2832,16.2135,16.1831,16.1766,16.128,16.0754,16.0031,15.9044,15.8124,15.7467,15.6571,15.5913,15.5913,15.5913,15.5913,15.5847,15.5387,15.4532,15.3349,15.2494,15.1746,15.1089,15.0258,15.0084,15.0676,15.0718,15.1071,15.14,15.1071,15.0742,15.0652,15.0126,15.0126,15.0892,15.1705,15.1968,15.2099,15.2996,15.3522,15.2757,15.302,15.4162,15.5716,15.6875,15.6834,15.5979,15.7845,15.8872,15.8609,16.0187,16.124,16.1568,16.2135,16.1872,16.0754,16.0162,16.0557,16.1174,16.1437,16.1543,16.2463,16.2661,16.2701,16.2635,16.2529,16.2529,16.2858,16.2701,16.2726,16.2569,16.2635,16.2726,16.2726,16.2726,16.2726,16.0228,16.0162,16.0096,15.8412,15.611,15.565,15.4795,15.3875,15.4795,15.5256,15.4532,15.0981,14.9403,14.9469,15.0652,15.1202,15.1202,15.1202,15.1202,15.1334,15.2691,15.339,15.339,15.4795,15.4993,15.4442,15.5519,15.7163,15.8897,15.9924,16.1609,16.3778,16.4081,16.4016,16.4041,16.395,16.4016,16.4016,16.4081,16.2792,16.0253,15.8963,15.824,15.824,15.7056,15.5584,15.4837,15.519,15.5058,15.3785,15.4664,15.5256,15.5256,15.5387,15.5453,15.5387,15.4245,15.2494,15.0126,14.9666,14.9272,14.7759,14.7891,14.8482,14.9666,14.9976,15.0582,15.1585,15.0986,15.0686,15.012,14.9126,14.8796,14.9436,14.9944,14.984,15.0521,15.2207,15.3719,15.3677,15.4203,15.5519,15.5256,15.4598,15.348,15.3175,15.574,15.7097,15.6636,15.8215,15.957,15.9661,15.9768,15.9702,15.957,15.9768,15.9636,15.9833,15.9965,16.0228,16.0491,16.0557,16.0228,16.1017,16.0557,16.0622,16.0491,16.0228,16.0385,16.082,16.0688,16.0359,16.0228,16.0425,16.0162,16.0162,16.0031,15.8938,15.7516,15.5716,15.3546,15.2386,15.2057,15.1334,15.0258,14.9074,14.8154,14.7628,14.7693,14.8045,14.8177,14.8177,14.8177,14.8154,14.8285,14.9732,15.0455,15.0563,15.1902,15.3612,15.5321,15.5716,15.7228,15.9464,16.0031,16.0557,16.1083,16.1148,16.1123,16.1148,16.1148,16.1123,16.1148,16.1148,16.082,16.0162,15.9833,15.9661,15.9661,15.9307,15.8519,15.7122,15.5256,15.3612,15.2165,15.131,15.0916,15.0981,15.1992,15.2583,15.2583,15.2231,15.1794,15.1202,15.1137,15.1005,15.061,15.061,15.0742,15.1266,15.2569,15.3722,15.4061,15.4657,15.5149,15.4866,15.3615,15.3147,15.4146,15.3492,15.2721,15.2823,15.3324,15.3414,15.2296,15.2386,15.3151,15.3677,15.2954,15.2888,15.4203,15.4729,15.5165,15.5782,15.6308,15.6834,15.6834,15.6834,15.7031,15.69,15.6941,15.7426,15.8437,15.8503,15.8938,15.9702,16.0096,16.0096,15.9965,16.0031,15.9899,16.0096,16.0096,15.9965,15.9899,15.9833,15.9965,15.9899,15.9899,15.9505,15.6875,15.6176,15.5412,15.4622,15.3743,15.1597,15.0282,14.9624,15.0216,15.0018,14.9229,14.9206,14.9163,14.9163,14.8482,14.8219,14.8219,14.8219,14.8219,14.8285,14.914,14.9798,15.0389,15.0587,15.1794,15.3875,15.4598,15.602,15.8124,15.8872,15.953,16.0162,16.0162,16.0162,16.0162,16.0162,16.0162,16.0096,15.7623,15.6242,15.6242,15.4927,15.4269,15.4203,15.4203,15.3546,15.2099,15.0587,14.9074,14.7651,14.6862,14.7059,14.8351,14.914,15.0216,15.1531,15.1663,15.1334,15.0652,15.0676,15.0347,14.9647,15.0309,15.1334,15.277,15.3951,15.4878,15.5534,15.5691,15.621,15.6851,15.5486,15.4811,15.5497,15.5319,15.4707,15.4002,15.4245,15.4401,15.3767,15.357,15.3875,15.4639,15.348,15.3546,15.519,15.4006,15.3349,15.4664,15.4927,15.5124,15.5782,15.5913,15.5913,15.5913,15.5913,15.6201,15.6924,15.7056,15.7385,15.7952,15.819,15.8215,15.819,15.819,15.8215,15.8215,15.8215,15.8215,15.8215,15.8215,15.8215,15.8215,15.8215,15.7689,15.3414,15.2189,15.1992,15.1926,15.1794,15.0389,14.9009,14.7956,15.0084,15.1005,15.1005,15.1005,15.1005,15.0939,14.9666,14.914,14.914,14.9403,14.9469,14.9469,14.9666,15.0389,15.1531,15.0413,15.0521,15.1926,15.3127,15.4508,15.5913,15.7187,15.8346,15.9464,15.9596,15.9505,15.957,15.957,15.9373,15.8847,15.4138,15.1794,15.2189,14.969,14.8219,14.7825,14.798,14.697,14.5106,14.5106,14.4365,14.301,14.3098,14.4065,14.6086,14.6439,14.7553,14.9582,14.9558,14.9229,14.8614,14.8351,14.8022,14.7589,14.9141,15.0862,15.2675,15.3647,15.4835,15.6266,15.5646,15.5662,15.6964,15.604,15.5184,15.5299,15.5943,15.6028,15.4877,15.5658,15.6314,15.6242,15.6287,15.618,15.5773,15.4795,15.4508,15.5256,15.4228,15.2691,15.3743,15.3916,15.4574,15.5584,15.5913,15.5913,15.5913,15.5913,15.5913,15.5913,15.5979,15.611,15.6242,15.6242,15.6242,15.5979,15.6176,15.611,15.611,15.5913,15.6176,15.6242,15.6242,15.6176,15.6242,15.6176,15.6045,15.5387,15.5058,15.3875,15.339,15.3259,15.1836,15.1047,15.0676,0.0,0.0,0.0,14.798,14.798,14.7891,14.7717,14.7562,14.7628,14.89,14.9469,14.9535,15.0676,15.1334,15.1621,15.1334,15.1968,15.3324,15.3653,15.4508,15.5847,15.611,15.6398,15.6636,15.6661,15.6702,15.6636,15.6636,15.5453,15.3175,15.2123,15.2781,15.4993,15.4622,15.3217,15.0873,15.0808,14.9009,14.5172,14.4974,14.44,14.3117,14.4157,14.3979,14.2197,14.3178,14.2915,14.1031,13.9802,14.0548,14.377,14.2959,14.4208,14.8811,15.0581,14.9715,14.5604,15.0201,15.3825,15.5435,15.6521,15.7694,15.9219,15.7842,15.7279,15.8522,15.7436,15.7019,15.7918,15.8303,15.8162,15.8149,15.8002,15.7573,15.6221,15.569,15.565,15.5806,15.5451,15.4927,15.4179,15.4803,15.5697,15.6173,15.6239,15.5987,15.5913,15.5913,15.5913,15.5913,15.5913,15.5913,15.5913,15.5913,15.5913,15.5913,15.5913,15.5913,15.5913,15.5913,15.5913,15.5913,15.5913,15.5913,15.5913,15.5913,15.5913,15.2165,0.0,15.0694,15.0431,0.0,14.969,14.9361,14.9229,14.7759,14.7102,14.7102,14.7102,14.7628,14.8285,14.7496,14.7562,14.8351,14.914,14.9469,14.9535,15.0192,15.0916,15.1621,15.0873,15.1639,15.3719,15.3086,15.3809,15.5782,15.5165,15.4466,15.3702,15.3677,15.3391,15.2716,15.1916,15.0784,14.9337,15.0873,15.232,15.3636,15.2231,15.0784,14.9403,14.9337,0.0,0.0,0.0,0.0,0.0,0.0,0.0,0.0,0.0,0.0,13.7558,13.5415,13.4506,13.5254,13.5341,13.618,13.8256,14.0471,14.034,13.687,14.0872,14.5367,14.9465,15.0497,15.2543,15.6347,15.6137,15.6114,15.7211,15.6732,15.6421,15.6903,15.7115,15.7502,15.7949,15.7286,15.7065,15.7646,15.6931,15.6512,15.7152,15.7285,15.6686,15.5375,15.626,15.7785,15.8764,15.8116,15.6975,15.6117,15.5913,15.5913,15.5913,15.5913,15.5913,15.5913,15.5913,15.5913,15.5913,15.5913,15.5913,15.5913,15.5913,15.5913,15.5913,15.5913,15.5913,15.5913,15.5913,15.5913,14.8548,14.7167,14.7102,14.7102,14.7082,14.6559,14.6366,14.6389,14.672,14.6808,14.6874,14.7139,14.7819,14.8578,14.7643,14.7974,14.9129,14.9429,14.9538,14.9568,14.9809,15.0535,15.1638,15.0822,15.1591,15.3679,15.2671,15.3331,15.5551,15.4044,15.2949,15.2119,15.1787,15.0966,14.9608,0.0,0.0,0.0,14.9867,15.1597,15.232,15.0061,14.8548,14.8022,14.7759,0.0,14.6707,14.5106,14.419,14.4221,14.2087,0.0,0.0,0.0,0.0,0.0,0.0,0.0,0.0,0.0,0.0,0.0,12.7617,12.8973,12.8754,13.1729,13.5992,14.14,14.2553,14.4998,14.9904,15.0416,15.1164,15.2983,15.3543,15.3951,15.4361,15.4863,15.5642,15.6856,15.6115,15.6352,15.8263,15.7684,15.7288,15.8591,15.886,15.8111,15.6497,15.746,15.908,16.0613,15.9313,15.7777,15.5941,15.5201,15.482,15.5058,15.5083,15.4993,15.4927,15.4951,15.5058,15.4927,15.5058,15.5017,15.5017,15.5321,15.5387,15.5519,15.5716,15.574,15.5312,15.5205,15.5229,14.8548,14.7167,14.7102,14.7102,14.696,14.4606,14.3591,14.3659,14.5007,14.5637,14.5705,14.7054,14.705,14.6015,14.7148,14.772,14.7993,14.9242,14.9859,14.9894,15.0965,15.17,15.2012,15.3015,15.3728,15.4062,15.3928,15.3995,15.4328,15.2666,15.2515,15.3748,15.2293,15.0926,14.9406,14.5658,14.5076,14.7766,14.9096,15.1573,15.5256,15.4993,15.3546,15.1137,14.9887,14.7956,14.5369,14.2696,14.1361,14.1413,14.1258,13.878,13.3766,13.0733,12.7394,0.0,11.8068,0.0,0.0,0.0,0.0,0.0,0.0,0.0,0.0,12.8216,13.1193,13.235,13.6047,13.8257,13.7705,13.769,13.9868,14.5259,14.6052,14.7701,15.1571,15.3282,15.4149,15.4142,15.6318,15.7251,15.6264,15.7038,15.8198,15.948,15.9319,15.8352,15.7784,15.7697,15.8033,15.8258,15.8115,15.7444,15.5651,15.3632,15.2488,15.235,15.244,15.2123,15.2368,15.2368,15.2279,15.2279,15.2458,15.2368,15.2189,15.3241,15.4006,15.4072,15.491,15.499,15.3283,15.2874,15.2699,14.6285,14.4902,14.4902,14.353,14.1311,14.0007,13.9935,14.0722,14.1423,14.1695,14.1763,14.2692,14.3137,14.3311,14.3761,14.4401,14.5233,14.671,14.6907,14.6246,14.8477,14.9118,14.8394,14.9882,15.1032,15.1755,15.0964,15.1438,15.2976,15.2311,15.1047,14.9331,15.0264,14.838,14.3763,14.1659,14.3515,14.8971,14.9568,15.1917,15.6146,15.6347,15.5676,15.4423,15.3751,15.2408,15.0238,14.82,14.6303,14.4684,14.3154,13.9562,13.3462,12.8968,12.377,0.0,0.0,0.0,0.0,0.0,0.0,0.0,0.0,0.0,0.0,0.0,12.3789,12.2952,13.1266,13.6118,13.4679,13.5333,13.6116,13.6928,13.7297,13.8476,14.1131,14.4616,14.6328,14.5424,14.8504,15.1183,15.2302,15.349,15.5432,15.8622,15.6248,15.4367,15.4929,15.6108,15.7217,15.8389,15.8148,15.7742,15.8033,15.5558,15.3637,15.3636,15.2901,15.2378,15.2378,15.2401,15.2378,15.2401,15.2378,15.2241,15.2006,15.2505,15.2805,15.2662,15.2834,15.2572,15.134,15.188,15.2546,14.2889,14.1066,13.9627,13.7841,13.593,13.569,13.6929,13.903,13.9355,13.8682,13.7495,13.9496,13.9395,13.774,13.7874,13.9079,14.1194,14.2695,14.3345,14.3377,14.6009,14.6658,14.5632,14.7069,14.8594,14.9807,14.8193,14.8926,15.1575,14.9929,14.7715,14.5228,14.7041,14.4519,13.7709,13.8263,14.2123,14.8956,15.0086,15.2409,15.6023,15.648,15.6684,15.6684,15.5982,15.4891,15.3282,15.1189,14.8649,14.5526,14.2712,13.836,13.216,12.6139,0.0,0.0,0.0,0.0,0.0,0.0,0.0,0.0,0.0,10.6917,10.1572,0.0,11.6628,0.0,12.6049,13.1991,13.169,13.1716,0.0,0.0,12.9291,12.9569,13.1599,13.5563,13.7709,13.6541,14.0163,14.3723,14.6311,14.828,15.0787,15.4052,15.1609,14.9824,15.0891,15.304,15.4936,15.549,15.5069,15.5265,15.5466,15.4523,15.3268,15.3721,15.2406,15.1475,15.1475,15.1202,15.095,15.0884,15.0884,15.0769,15.0249,15.0643,15.0348,14.908,14.8617,14.834,14.8356,14.9422,15.051,13.8342,13.5276,12.9644,12.9611,13.3228,13.32,13.5758,13.9887,14.1036,13.8447,13.367,14.0266,13.7157,12.702,12.854,0.0,13.5477,13.699,13.9747,14.3705,14.5245,14.5939,14.6047,14.7393,14.8916,15.0287,14.7597,14.7787,15.0163,14.3597,14.1368,14.3866,14.2898,13.9178,13.3452,13.7016,14.1457,14.6093,15.0022,15.2955,15.468,15.6023,15.6684,15.6658,15.4005,15.1843,15.0195,14.6194,14.2526,13.9464,13.6777,13.2545,12.626,0.0,0.0,0.0,0.0,0.0,0.0,0.0,0.0,0.0,0.0,0.0,0.0,0.0,0.0,11.6498,11.9454,0.0,12.5105,12.1441,0.0,0.0,0.0,12.2428,12.6956,12.9063,13.0146,12.9991,0.0,0.0,13.7298,14.1193,14.4043,14.4385,14.6568,14.7598,14.6385,14.8546,14.9727,14.7424,14.6718,14.6054,14.5803,14.6742,14.8125,14.8863,14.7987,14.7154,14.703,14.6161,14.5151,14.5284,14.4953,14.4998,14.4887,14.5949,14.5573,14.1617,14.1248,14.1896,14.3077,14.372,14.4408,13.0654,12.272,11.9232,11.9395,12.1854,12.176,12.5463,13.1527,13.2082,13.0908,12.8812,13.1884,12.836,12.0121,12.1089,0.0,0.0,0.0,13.0379,13.5742,13.8059,14.0666,14.3551,14.4776,14.5743,14.6249,14.5176,14.5246,14.6302,14.5147,13.993,13.0695,0.0,0.0,12.7484,13.2539,13.8346,14.4595,14.907,15.2942,15.6299,15.6072,15.5844,15.5775,15.2854,15.049,14.8942,14.63,14.1768,13.5115,13.2965,12.738,0.0,0.0,0.0,0.0,0.0,0.0,0.0,0.0,0.0,0.0,0.0,9.6008,9.2136,0.0,0.0,0.0,10.8034,10.975,11.295,11.6601,0.0,0.0,0.0,0.0,0.0,0.0,0.0,11.6672,12.4795,13.1002,13.193,13.2014,13.2371,13.3286,13.4485,13.5341,13.5698,0.0,14.346,14.4131,14.4202,14.4542,14.5579,14.445,14.3205,14.2703,14.2832,14.3,14.3081,14.4279,14.4752,14.3985,14.3791,14.3384,14.225,14.1183,13.964,13.6911,13.8038,13.9265,13.8818,14.0473,14.1667,12.0161,0.0,0.0,0.0,0.0,11.1976,11.581,12.2151,12.2075,12.1044,11.9496,12.137,0.0,0.0,0.0,0.0,0.0,0.0,12.2023,12.5956,13.3022,13.6789,13.7945,13.9696,14.0435,14.0349,13.8165,13.7601,13.8487,13.9409,13.2748,11.92,0.0,0.0,0.0,0.0,13.4303,14.133,14.7155,15.2152,15.6205,15.5237,15.4657,15.4674,15.1154,14.8549,14.7,14.3402,13.8073,13.0762,12.6499,0.0,0.0,0.0,0.0,0.0,0.0,0.0,0.0,0.0,0.0,0.0,0.0,0.0,0.0,0.0,0.0,0.0,0.0,0.0,10.3532,11.0178,11.1962,0.0,0.0,0.0,0.0,0.0,0.0,0.0,0.0,0.0,12.3796,12.3451,12.3938,0.0,0.0,12.8992,12.9219,13.3843,13.7553,13.8494,13.8566,0.0,14.1548,13.985,13.8019,13.7369,13.8829,13.9813,13.8912,13.955,13.9915,13.8847,13.9515,13.875,13.5126,13.2639,13.113,13.0486,13.1915,13.3309,13.3133,13.4768,13.6222,0.0,0.0,0.0,0.0,0.0,0.0,0.0,0.0,11.2775,10.9413,0.0,10.9723,0.0,0.0,0.0,0.0,0.0,11.2603,0.0,0.0,13.1431,13.5636,12.8819,13.1419,13.2888,13.2436,12.5413,12.3267,12.5588,12.176,0.0,0.0,0.0,0.0,0.0,0.0,12.9438,13.5276,14.4232,15.0285,15.3071,15.3054,15.3054,15.2914,14.8603,14.5349,14.3534,13.5395,12.9211,12.5787,11.617,0.0,0.0,0.0,0.0,0.0,0.0,0.0,0.0,0.0,0.0,0.0,0.0,0.0,0.0,0.0,0.0,0.0,0.0,0.0,0.0,10.0616,0.0,0.0,0.0,0.0,0.0,0.0,0.0,0.0,0.0,0.0,11.1655,11.6161,12.1108,12.4236,0.0,0.0,0.0,0.0,13.2474,12.8337,12.7481,12.7636,12.7837,13.0075,13.2274,13.3692,0.0,0.0,13.4594,13.0478,12.7878,12.7543,13.0302,12.9446,12.0552,11.9106,11.9396,12.0559,12.1119,12.1976,12.4444,12.5417,12.5909,0.0,0.0,0.0,0.0,0.0,0.0,0.0,0.0,0.0,9.9122,0.0,9.8179,0.0,0.0,0.0,0.0,0.0,0.0,0.0,0.0,11.4095,11.7985,11.9342,12.1181,12.2069,0.0,11.9323,11.3395,0.0,0.0,0.0,0.0,0.0,0.0,0.0,0.0,12.6772,13.1056,14.0878,14.8008,15.1555,15.0001,14.9324,14.9849,14.6645,14.1748,13.5071,12.796,12.0894,0.0,0.0,0.0,0.0,0.0,0.0,0.0,0.0,0.0,0.0,0.0,0.0,0.0,0.0,0.0,0.0,0.0,0.0,0.0,0.0,0.0,0.0,0.0,9.6601,0.0,0.0,0.0,0.0,0.0,0.0,0.0,0.0,0.0,10.5937,10.9536,11.446,12.0609,12.2428,12.4283,12.7279,0.0,0.0,0.0,0.0,0.0,0.0,0.0,12.3737,12.3213,12.4057,12.506,12.6036,12.5813,12.5146,12.4191,0.0,0.0,11.199,11.2735,11.4703,11.4347,11.4152,11.4758,11.6875,11.726,11.763,0.0,0.0,0.0,0.0,0.0,0.0,0.0,0.0,0.0,8.7335,8.6773,0.0,0.0,0.0,0.0,0.0,0.0,0.0,0.0,0.0,0.0,0.0,10.9249,11.1092,0.0,0.0,0.0,0.0,0.0,0.0,0.0,0.0,0.0,0.0,0.0,0.0,12.4335,12.8214,13.8518,14.5644,14.8857,14.715,14.6208,14.6279,14.3934,13.857,12.985,0.0,0.0,0.0,0.0,0.0,0.0,0.0,0.0,0.0,0.0,0.0,0.0,0.0,0.0,0.0,0.0,0.0,0.0,0.0,0.0,0.0,0.0,0.0,0.0,0.0,8.9672,0.0,0.0,0.0,0.0,0.0,0.0,0.0,0.0,0.0,0.0,0.0,10.8048,11.4246,11.7303,12.0502,12.4699,12.5769,12.6864,0.0,0.0,0.0,0.0,0.0,0.0,0.0,0.0,0.0,0.0,0.0,0.0,0.0,0.0,10.9245,10.3165,10.4559,10.6545,10.619,0.0,0.0,0.0,0.0,0.0,0.0,0.0,0.0,0.0,0.0,0.0,0.0,0.0,0.0,0.0,0.0,0.0,0.0,7.0717,0.0,0.0,0.0,0.0,0.0,0.0,0.0,0.0,0.0,0.0,0.0,0.0,0.0,0.0,0.0,0.0,0.0,0.0,0.0,0.0,0.0,0.0,12.1723,12.6204,13.7039,14.3364,14.4596,14.447,14.3675,14.2339,14.0315,13.5816,12.8257,0.0,0.0,0.0,0.0,0.0,0.0,0.0,0.0,0.0,0.0,0.0,0.0,0.0,0.0,0.0,0.0,0.0,0.0,0.0,0.0,0.0,0.0,0.0,0.0,0.0,0.0,8.1317,8.5828,9.0617,0.0,0.0,0.0,0.0,0.0,0.0,0.0,0.0,0.0,0.0,11.5008,12.1774,12.2059,12.351,12.4605,12.4664,12.3154,12.2571,12.4093,12.5567,12.571,0.0,0.0,0.0,0.0,0.0,0.0,0.0,0.0,0.0,0.0,0.0,0.0,0.0,0.0,0.0,0.0,0.0,0.0,0.0,0.0,0.0,0.0,0.0,0.0,0.0,0.0,0.0,0.0,0.0,0.0,0.0,0.0,0.0,0.0,0.0,0.0,0.0,0.0,0.0,0.0,0.0,0.0,0.0,0.0,0.0,0.0,0.0,0.0,0.0,0.0,0.0,0.0,0.0,0.0,11.7113,12.1748,13.2654,13.9912,14.3293,14.0382,13.9358,14.04,13.4886,12.9134,0.0,0.0,0.0,0.0,0.0,0.0,0.0,0.0,0.0,0.0,0.0,0.0,0.0,0.0,0.0,0.0,0.0,0.0,0.0,0.0,0.0,0.0,0.0,0.0,0.0,0.0,0.0,0.0,9.2035,9.2044,9.0751,0.0,0.0,0.0,0.0,0.0,0.0,0.0,0.0,0.0,0.0,11.5436,11.98,12.1786,12.2785,12.2844,12.1429,12.024,11.9657,12.087,12.0085,11.4723,0.0,0.0,0.0,0.0,0.0,0.0,0.0,0.0,0.0,0.0,0.0,0.0,0.0,0.0,0.0,0.0,0.0,0.0,0.0,0.0,0.0,0.0,0.0,0.0,0.0,0.0,0.0,0.0,0.0,0.0,0.0,0.0,0.0,0.0,0.0,0.0,0.0,0.0,0.0,0.0,0.0,0.0,0.0,0.0,0.0,0.0,0.0,0.0,0.0,0.0,0.0,0.0,0.0,11.5031,11.9812,13.0659,13.7827,14.0994,13.797,13.6747,13.7624,13.1162,12.49,0.0,0.0,0.0,0.0,0.0,0.0,0.0,0.0,0.0,0.0,0.0,0.0,0.0,0.0,0.0,0.0,0.0,0.0,0.0,0.0,0.0,0.0,0.0,0.0,0.0,0.0,0.0,0.0,8.7692,8.8031,8.6693,0.0,0.0,0.0,0.0,0.0,0.0,0.0,0.0,0.0,0.0,11.0399,11.4648,11.766,0.0,0.0,11.8932,11.7802,11.7434,11.9217,11.829,11.1501,10.9871,0.0,0.0,0.0,0.0,0.0,0.0,0.0,0.0,0.0,0.0,0.0,0.0,0.0,0.0,0.0,0.0,0.0,0.0,0.0,0.0,0.0,0.0,0.0,0.0,0.0,0.0,0.0,0.0,0.0,0.0,0.0,0.0,0.0,0.0,0.0,0.0,0.0,0.0,0.0,0.0,0.0,0.0,0.0,0.0,0.0,0.0,0.0,0.0,0.0,0.0,0.0,0.0,0.0,11.9729,13.0373,13.6782,13.8467,13.6853,13.5212,13.3772,12.852,12.2217,0.0,0.0,0.0,0.0,0.0,0.0,0.0,0.0,0.0,0.0,0.0,0.0,0.0,0.0,0.0,0.0,0.0,0.0,0.0,0.0,0.0,0.0,0.0,0.0,0.0,0.0,0.0,0.0,0.0,0.0,0.0,0.0,0.0,0.0,0.0,0.0,0.0,0.0,0.0,0.0,0.0,10.6427,10.7573,11.1726,11.5211,0.0,0.0,11.5128,11.6292,11.9146,11.8564,11.0716,0.0,0.0,0.0,0.0,0.0,0.0,0.0,0.0,0.0,0.0,0.0,0.0,0.0,0.0,0.0,0.0,0.0,0.0,0.0,0.0,0.0,0.0,0.0,0.0,0.0,0.0,0.0,0.0,0.0,0.0,0.0,0.0,0.0,0.0,0.0,0.0,0.0,0.0,0.0,0.0,0.0,0.0,0.0,0.0,0.0,0.0,0.0,0.0,0.0,0.0,0.0,0.0,0.0,0.0,11.8016,12.7733,13.4655,13.8338,13.4797,13.2598,13.2014,12.3846,0.0,0.0,0.0,0.0,0.0,0.0,0.0,0.0,0.0,0.0,0.0,0.0,0.0,0.0,0.0,0.0,0.0,0.0,0.0,0.0,0.0,0.0,0.0,0.0,0.0,0.0,0.0,6.4074,0.0,0.0,0.0,0.0,0.0,0.0,0.0,0.0,0.0,0.0,0.0,0.0,0.0,0.0,10.1663,10.4266,10.7599,11.0382,0.0,0.0,11.0502,10.7445,11.0513,11.0299,0.0,0.0,0.0,0.0,0.0,0.0,0.0,0.0,0.0,0.0,0.0,0.0,0.0,0.0,0.0,0.0,0.0,0.0,0.0,0.0,0.0,0.0,0.0,0.0,0.0,0.0,0.0,0.0,0.0,0.0,0.0,0.0,0.0,0.0,0.0,0.0,0.0,0.0,0.0,0.0,0.0,0.0,0.0,0.0,0.0,0.0,0.0,0.0,0.0,0.0,0.0,0.0,0.0,0.0,10.7752,11.5376,12.338,13.0432,13.6184,13.3299,13.1242,13.0587,12.1237,11.4004,0.0,0.0,0.0,0.0,0.0,0.0,0.0,0.0,0.0,0.0,0.0,0.0,0.0,0.0,0.0,0.0,0.0,0.0,0.0,0.0,0.0,0.0,0.0,0.0,0.0,0.0,0.0,0.0,0.0,0.0,0.0,0.0,0.0,0.0,0.0,0.0,0.0,0.0,0.0,0.0,0.0,0.0,10.0922,10.2329,0.0,0.0,0.0,10.6447,10.3786,0.0,0.0,0.0,0.0,0.0,0.0,0.0,0.0,0.0,0.0,0.0,0.0,0.0,0.0,0.0,0.0,0.0,0.0,0.0,0.0,0.0,0.0,0.0,0.0,0.0,0.0,0.0,0.0,0.0,0.0,0.0,0.0,0.0,0.0,0.0,0.0,0.0,0.0,0.0,0.0,0.0,0.0,0.0,0.0,0.0,0.0,0.0,0.0,0.0,0.0,0.0,0.0,0.0,0.0,0.0,0.0,0.0,11.2522,11.8718,12.5697,13.3415,13.2215,13.0587,12.8933,12.0133,11.2939,0.0,0.0,0.0,0.0,0.0,0.0,0.0,0.0,0.0,0.0,0.0,0.0,0.0,0.0,0.0,0.0,0.0,0.0,0.0,0.0,0.0,0.0,0.0,0.0,0.0,0.0,0.0,0.0,0.0,0.0,0.0,0.0,0.0,0.0,0.0,0.0,0.0,0.0,0.0,0.0,0.0,9.3532,9.7849,9.6977,9.5916,0.0,0.0,10.2298,10.2288,10.3307,0.0,0.0,0.0,0.0,0.0,0.0,0.0,0.0,0.0,0.0,0.0,0.0,0.0,0.0,0.0,0.0,0.0,0.0,0.0,0.0,0.0,0.0,0.0,0.0,0.0,0.0,0.0,0.0,0.0,0.0,0.0,0.0,0.0,0.0,0.0,0.0,0.0,0.0,0.0,0.0,0.0,0.0,0.0,0.0,0.0,0.0,0.0,0.0,0.0,0.0,0.0,0.0,0.0,0.0,0.0,0.0,11.2533,11.7671,12.4652,13.3344,13.1216,12.9004,12.7351,12.0632,11.2939,0.0,0.0,0.0,0.0,0.0,0.0,0.0,0.0,0.0,0.0,0.0,0.0,0.0,0.0,0.0,0.0,0.0,0.0,0.0,0.0,0.0,0.0,0.0,0.0,0.0,0.0,0.0,0.0,0.0,0.0,0.0,0.0,0.0,0.0,0.0,0.0,0.0,0.0,0.0,0.0,0.0,9.0621,9.5921,9.4327,0.0,0.0,0.0,0.0,9.5816,9.5022,0.0,0.0,0.0,0.0,0.0,0.0,0.0,0.0,0.0,0.0,0.0,0.0,0.0,0.0,0.0,0.0,0.0,0.0,0.0,0.0,0.0,0.0,0.0,0.0,0.0,0.0,0.0,0.0,0.0,0.0,0.0,0.0,0.0,0.0,0.0,0.0,0.0,0.0,0.0,0.0,0.0,0.0,0.0,0.0,0.0,0.0,0.0,0.0,0.0,0.0,0.0,0.0,0.0,0.0,0.0,0.0,10.7874,11.2177,11.9443,13.0049,12.822,12.665,12.571,11.8872,11.1095,0.0,0.0,0.0,0.0,0.0,0.0,0.0,0.0,0.0,0.0,0.0,0.0,0.0,0.0,0.0,0.0,0.0,0.0,0.0,0.0,0.0,0.0,0.0,0.0,0.0,0.0,0.0,0.0,0.0,0.0,0.0,0.0,0.0,0.0,0.0,0.0,0.0,0.0,0.0,0.0,8.4719,8.6265,9.2482,0.0,0.0,0.0,0.0,0.0,0.0,9.1303,8.9814,0.0,0.0,0.0,0.0,0.0,0.0,0.0,0.0,0.0,0.0,0.0,0.0,0.0,0.0,0.0,0.0,0.0,0.0,0.0,0.0,0.0,0.0,0.0,0.0,0.0,0.0,0.0,0.0,0.0,0.0,0.0,0.0,0.0,0.0,0.0,0.0,0.0,0.0,0.0,0.0,0.0,0.0,0.0,0.0,0.0,0.0,0.0,0.0,0.0,0.0,0.0,0.0,0.0,0.0,0.0,10.2523,10.5733,11.3318,12.5353,12.4522,12.3892,12.3951,11.6529,10.868,10.0983,0.0,0.0,0.0,0.0,0.0,0.0,0.0,0.0,0.0,0.0,0.0,0.0,0.0,0.0,0.0,0.0,0.0,0.0,0.0,0.0,0.0,0.0,0.0,0.0,0.0,0.0,0.0,0.0,0.0,0.0,0.0,0.0,0.0,0.0,0.0,0.0,0.0,0.0,0.0,8.0116,8.1778,0.0,0.0,0.0,0.0,0.0,0.0,0.0,0.0,8.6684,0.0,0.0,0.0,0.0,0.0,0.0,0.0,0.0,0.0,0.0,0.0,0.0,0.0,0.0,0.0,0.0,0.0,0.0,0.0,0.0,0.0,0.0,0.0,0.0,0.0,0.0,0.0,0.0,0.0,0.0,0.0,0.0,0.0,0.0,0.0,0.0,0.0,0.0,0.0,0.0,0.0,0.0,0.0,0.0,0.0,0.0,0.0,0.0,0.0,0.0,0.0,0.0,0.0,0.0,0.0,0.0,10.2513,10.9515,12.024,12.0597,12.1156,12.2285,11.4865,10.7089,9.9393,0.0,0.0,0.0,0.0,0.0,0.0,0.0,0.0,0.0,0.0,0.0,0.0,0.0,0.0,0.0,0.0,0.0,0.0,0.0,0.0,0.0,0.0,0.0,0.0,0.0,0.0,0.0,0.0,0.0,0.0,0.0,0.0,0.0,0.0,0.0,0.0,0.0,0.0,7.1751,7.5045,0.0,0.0,0.0,0.0,0.0,0.0,0.0,0.0,8.2903,0.0,0.0,0.0,0.0,0.0,0.0,0.0,0.0,0.0,0.0,0.0,0.0,0.0,0.0,0.0,0.0,0.0,0.0,0.0,0.0,0.0,0.0,0.0,0.0,0.0,0.0,0.0,0.0,0.0,0.0,0.0,0.0,0.0,0.0,0.0,0.0,0.0,0.0,0.0,0.0,0.0,0.0,0.0,0.0,0.0,0.0,0.0,0.0,0.0,0.0,0.0,0.0,0.0,0.0,0.0,0.0,0.0,0.0,10.6243,11.4437,11.5602,11.716,11.9075,10.9657,10.2095,0.0,0.0,0.0,0.0,0.0,0.0,0.0,0.0,0.0,0.0,0.0,0.0,0.0,0.0,0.0,0.0,0.0,0.0,0.0,0.0,0.0,0.0,0.0,0.0,0.0,0.0,0.0,0.0,0.0,0.0,0.0,0.0,0.0,0.0,0.0,0.0,0.0,0.0,0.0,0.0,0.0,0.0,0.0,0.0,0.0,0.0,0.0,0.0,0.0,0.0,0.0,0.0,0.0,0.0,0.0,0.0,0.0,0.0,0.0,0.0,0.0,0.0,0.0,0.0,0.0,0.0,0.0,0.0,0.0,0.0,0.0,0.0,0.0,0.0,0.0,0.0,0.0,0.0,0.0,0.0,0.0,0.0,0.0,0.0,0.0,0.0,0.0,0.0,0.0,0.0,0.0,0.0,0.0,0.0,0.0,0.0,0.0,0.0,0.0,0.0,0.0,0.0,0.0,0.0,0.0,0.0,0.0,0.0,10.2961,10.8801,11.1084,11.3592,11.6304,10.4235,9.6753,0.0,0.0,0.0,0.0,0.0,0.0,0.0,0.0,0.0,0.0,0.0,0.0,0.0,0.0,0.0,0.0,0.0,0.0,0.0,0.0,0.0,0.0,0.0,0.0,0.0,0.0,0.0,0.0,0.0,0.0,0.0,0.0,0.0,0.0,0.0,0.0,0.0,0.0,0.0,0.0,0.0,0.0,0.0,0.0,0.0,0.0,0.0,0.0,7.5671,0.0,0.0,0.0,0.0,0.0,0.0,0.0,0.0,0.0,0.0,0.0,0.0,0.0,0.0,0.0,0.0,0.0,0.0,0.0,0.0,0.0,0.0,0.0,0.0,0.0,0.0,0.0,0.0,0.0,0.0,0.0,0.0,0.0,0.0,0.0,0.0,0.0,0.0,0.0,0.0,0.0,0.0,0.0,0.0,0.0,0.0,0.0,0.0,0.0,0.0,0.0,0.0,0.0,0.0,0.0,0.0,0.0,0.0,0.0,9.9189,10.4082,10.8373,11.1441,11.2808,10.1024,9.3043,0.0,0.0,0.0,0.0,0.0,0.0,0.0,0.0,0.0,0.0,0.0,0.0,0.0,0.0,0.0,0.0,0.0,0.0,0.0,0.0,0.0,0.0,0.0,0.0,0.0,0.0,0.0,0.0,0.0,0.0,0.0,0.0,0.0,0.0,0.0,0.0,0.0,0.0,0.0,0.0,0.0,0.0,0.0,0.0,0.0,0.0,0.0,0.0,0.0,0.0,0.0,0.0,0.0,0.0,0.0,0.0,0.0,0.0,0.0,0.0,0.0,0.0,0.0,0.0,0.0,0.0,0.0,0.0,0.0,0.0,0.0,0.0,0.0,0.0,0.0,0.0,0.0,0.0,0.0,0.0,0.0,0.0,0.0,0.0,0.0,0.0,0.0,0.0,0.0,0.0,0.0,0.0,0.0,0.0,0.0,0.0,0.0,0.0,0.0,0.0,0.0,0.0,0.0,0.0,0.0,0.0,0.0,0.0,9.4551,9.927,10.3114,10.4583,10.3776,9.5542,9.018,0.0,0.0,0.0,0.0,0.0,0.0,0.0,0.0,0.0,0.0,0.0,0.0,0.0,0.0,0.0,0.0,0.0,0.0,0.0,0.0,0.0,0.0,0.0,0.0,0.0,0.0,0.0,0.0,0.0,0.0,0.0,0.0,0.0,0.0,0.0,0.0,0.0,0.0,0.0,0.0,0.0,0.0,0.0,0.0,0.0,0.0,0.0,0.0,0.0,0.0,0.0,0.0,0.0,0.0,0.0,0.0,0.0,0.0,0.0,0.0,0.0,0.0,0.0,0.0,0.0,0.0,0.0,0.0,0.0,0.0,0.0,0.0,0.0,0.0,0.0,0.0,0.0,0.0,0.0,0.0,0.0,0.0,0.0,0.0,0.0,0.0,0.0,0.0,0.0,0.0,0.0,0.0,0.0,0.0,0.0,0.0,0.0,0.0,0.0,0.0,0.0,0.0,0.0,0.0,0.0,0.0,0.0,0.0,0.0,9.4605,9.6082,9.5877,9.4055,9.0121,8.677,0.0,0.0,0.0,0.0,0.0,0.0,0.0,0.0,0.0,0.0,0.0,0.0,0.0,0.0,0.0,0.0,0.0,0.0,0.0,0.0,0.0,0.0,0.0,0.0,0.0,0.0,0.0,0.0,0.0,0.0,0.0,0.0,0.0,0.0,0.0,0.0,0.0,0.0,0.0,0.0,0.0,0.0,0.0,0.0,0.0,0.0,0.0,0.0,0.0,0.0,0.0,0.0,0.0,0.0,0.0,0.0,0.0,0.0,0.0,0.0,0.0,0.0,0.0,0.0,0.0,0.0,0.0,0.0,0.0,0.0,0.0,0.0,0.0,0.0,0.0,0.0,0.0,0.0,0.0,0.0,0.0,0.0,0.0,0.0,0.0,0.0,0.0,0.0,0.0,0.0,0.0,0.0,0.0,0.0,0.0,0.0,0.0,0.0,0.0,0.0,0.0,0.0,0.0,0.0,0.0,0.0,0.0,0.0,0.0,9.0492,8.7263,8.5718,8.6063,8.5257,8.2209,0.0,0.0,0.0,0.0,0.0,0.0,0.0,0.0,0.0,0.0,0.0,0.0,0.0,0.0,0.0,0.0,0.0,0.0,0.0,0.0,0.0,0.0,0.0,0.0,0.0,0.0,0.0,0.0,0.0,0.0,0.0,0.0,0.0,0.0,0.0,0.0,0.0,0.0,0.0,0.0,0.0,0.0,0.0,0.0,0.0,0.0,0.0,0.0,0.0,0.0,0.0,0.0,0.0,0.0,0.0,0.0,0.0,0.0,0.0,0.0,0.0,0.0,0.0,0.0,0.0,0.0,0.0,0.0,0.0,0.0,0.0,0.0,0.0,0.0,0.0,0.0,0.0,0.0,0.0,0.0,0.0,0.0,0.0,0.0,0.0,0.0,0.0,0.0,0.0,0.0,0.0,0.0,0.0,0.0,0.0,0.0,0.0,0.0,0.0,0.0,0.0,0.0,0.0,0.0,0.0,0.0,0.0,0.0,0.0,8.1356,8.1902,8.2232,8.2636,8.0397,7.8005,7.555,0.0,0.0,0.0,0.0,0.0,0.0,0.0,0.0,0.0,0.0,0.0,0.0,0.0,0.0,0.0,0.0,0.0,0.0,0.0,0.0,0.0,0.0,0.0,0.0,0.0,0.0,0.0,0.0,0.0,0.0,0.0,0.0,0.0,0.0,0.0,0.0,0.0,0.0,0.0,0.0,0.0,0.0,0.0,0.0,0.0,0.0,0.0,0.0,0.0,0.0,0.0,0.0,0.0,0.0,0.0,0.0,0.0,0.0,0.0,0.0,0.0,0.0,0.0,0.0,0.0,0.0,0.0,0.0,0.0,0.0,0.0,0.0,0.0,0.0,0.0,0.0,0.0,0.0,0.0,0.0,0.0,0.0,0.0,0.0,0.0,0.0,0.0,0.0,0.0,0.0,0.0,0.0,0.0,0.0,0.0,0.0,0.0,0.0,0.0,0.0,0.0,0.0,0.0,0.0,0.0,0.0,0.0,0.0,7.4259,7.6759,7.8185,7.8369,7.602,7.4157,0.0,0.0,0.0,0.0,0.0,0.0,0.0,0.0,0.0,0.0,0.0,0.0,0.0,0.0,0.0,0.0,0.0,0.0,0.0,0.0,0.0,0.0,0.0,0.0,0.0,0.0,0.0,0.0,0.0,0.0,0.0,0.0,0.0,0.0,0.0,0.0,0.0,0.0,0.0,0.0,0.0,0.0,0.0,0.0,0.0,0.0,0.0,0.0,0.0,0.0,0.0,0.0,0.0,0.0,0.0,0.0,0.0,0.0,0.0,0.0,0.0,0.0,0.0,0.0,0.0,0.0,0.0,0.0,0.0,0.0,0.0,0.0,0.0,0.0,0.0,0.0,0.0,0.0,0.0,0.0,0.0,0.0,0.0,0.0,0.0,0.0,0.0,0.0,0.0,0.0,0.0,0.0,0.0,0.0,0.0,0.0,0.0,0.0,0.0,0.0,0.0,0.0,0.0,0.0,0.0,0.0,0.0,0.0,6.5498,6.9951,7.1536,7.2537,7.2777,7.2243,7.0646,0.0,0.0,0.0,0.0,0.0,0.0,0.0,0.0,0.0,0.0,0.0,0.0,0.0,0.0,0.0,0.0,0.0,0.0,0.0,0.0,0.0,0.0,0.0,0.0,0.0,0.0,0.0,0.0,0.0,0.0,0.0,0.0,0.0,0.0,0.0,0.0,0.0,0.0,0.0,0.0,0.0,0.0,0.0,0.0,0.0,0.0,0.0,0.0,0.0,0.0,0.0,0.0,0.0,0.0,0.0,0.0,0.0,0.0,0.0,0.0,0.0,0.0,0.0,0.0,0.0,0.0,0.0,0.0,0.0,0.0,0.0,0.0,0.0,0.0,0.0,0.0,0.0,0.0,0.0,0.0,0.0,0.0,0.0,0.0,0.0,0.0,0.0,0.0,0.0,0.0,0.0,0.0,0.0,0.0,0.0,0.0,0.0,0.0,0.0,0.0,0.0,0.0,0.0,0.0,0.0,0.0,0.0,0.0,0.0,6.4616,0.0,6.9675,0.0,6.8335,6.7057,0.0,0.0,0.0,0.0,0.0,0.0,0.0,0.0,0.0,0.0,0.0,0.0,0.0,0.0,0.0,0.0,0.0,0.0,0.0,0.0,0.0,0.0,0.0,0.0,0.0,0.0,0.0,0.0,0.0,0.0,0.0,0.0,0.0,0.0,0.0,0.0,0.0,0.0,0.0,0.0,0.0,0.0,0.0,0.0,0.0,0.0,0.0,0.0,0.0,0.0,0.0,0.0,0.0,0.0,0.0,0.0,0.0,0.0,0.0,0.0,0.0,0.0,0.0,0.0,0.0,0.0,0.0,0.0,0.0,0.0,0.0,0.0,0.0,0.0,0.0,0.0,0.0,0.0,0.0,0.0,0.0,0.0,0.0,0.0,0.0,0.0,0.0,0.0,0.0,0.0,0.0,0.0,0.0,0.0,0.0,0.0,0.0,0.0,0.0,0.0,0.0,0.0,0.0,0.0,0.0,0.0,0.0,0.0,0.0,6.1749,6.426,6.62,6.7564,6.5589,6.4549,0.0,0.0,0.0,0.0,0.0,0.0,0.0,0.0,0.0,0.0,0.0,0.0,0.0,0.0,0.0,0.0,0.0,0.0,0.0,0.0,0.0,0.0,0.0,0.0,0.0,0.0,0.0,0.0,0.0,0.0,0.0,0.0,0.0,0.0,0.0,0.0,0.0,0.0,0.0,0.0,0.0,0.0,0.0,0.0,0.0,0.0,0.0,0.0,0.0,0.0,0.0,0.0,0.0,0.0,0.0,0.0,0.0,0.0,0.0,0.0,0.0,0.0,0.0,0.0,0.0,0.0,0.0,0.0,0.0,0.0,0.0,0.0,0.0,0.0,0.0,0.0,0.0,0.0,0.0,0.0,0.0,0.0,0.0,0.0,0.0,0.0,0.0,0.0,0.0,0.0,0.0,0.0,0.0,0.0,0.0,0.0,0.0,0.0,0.0,0.0,0.0,0.0,0.0,0.0,0.0,0.0,0.0,0.0,0.0,0.0,6.1296,6.2126,6.3659,6.3669,6.3029,0.0,0.0,0.0,0.0,0.0,0.0,0.0,0.0,0.0,0.0,0.0,0.0,0.0,0.0,0.0,0.0,0.0,0.0,0.0,0.0,0.0,0.0,0.0,0.0,0.0,0.0,0.0,0.0,0.0,0.0,0.0,0.0,0.0,0.0,0.0,0.0,0.0,0.0,0.0,0.0,0.0,0.0,0.0,0.0,0.0,0.0,0.0,0.0,0.0,0.0,0.0,0.0,0.0,0.0,0.0,0.0,0.0,0.0,0.0,0.0,0.0,0.0,0.0,0.0,0.0,0.0,0.0,0.0,0.0,0.0,0.0,0.0,0.0,0.0,0.0,0.0,0.0,0.0,0.0,0.0,0.0,0.0,0.0,0.0,0.0,0.0,0.0,0.0,0.0,0.0,0.0,0.0,0.0,0.0,0.0,0.0,0.0,0.0,0.0,0.0,0.0,0.0,0.0,0.0,0.0,0.0,0.0,0.0,0.0,0.0,5.9514,0.0,6.0244,6.0023,6.0267,6.0963,0.0,0.0,0.0,0.0,0.0,0.0,0.0,0.0,0.0,0.0,0.0,0.0,0.0,0.0,0.0,0.0,0.0,0.0,0.0,0.0,0.0,0.0,0.0,0.0,0.0,0.0,0.0,0.0,0.0,0.0,0.0,0.0,0.0,0.0,0.0,0.0,0.0,0.0,0.0,0.0,0.0,0.0,0.0,0.0,0.0,0.0,0.0,0.0,0.0,0.0,0.0,0.0,0.0,0.0,0.0,0.0,0.0,0.0,0.0,0.0,0.0,0.0,0.0,0.0,0.0,0.0,0.0,0.0,0.0,0.0,0.0,0.0,0.0,0.0,0.0,0.0,0.0,0.0,0.0,0.0,0.0,0.0,0.0,0.0,0.0,0.0,0.0,0.0,0.0,0.0,0.0,0.0,0.0,0.0,0.0,0.0,0.0,0.0,0.0,0.0,0.0,0.0,0.0,0.0,0.0,0.0,0.0,0.0,0.0,0.0,5.8273,5.8945,5.8752,5.911,0.0,0.0,0.0,0.0,0.0,0.0,0.0,0.0,0.0,0.0,0.0,0.0,0.0,0.0,0.0,0.0,0.0,0.0,0.0,0.0,0.0,0.0,0.0,0.0,0.0,0.0,0.0,0.0,0.0,0.0,0.0,0.0,0.0,0.0,0.0,0.0,0.0,0.0,0.0,0.0,0.0,0.0,0.0,0.0,0.0,0.0,0.0,0.0,0.0,0.0,0.0,0.0,0.0,0.0,0.0,0.0,0.0,0.0,0.0,0.0,0.0,0.0,0.0,0.0,0.0,0.0,0.0,0.0,0.0,0.0,0.0,0.0,0.0,0.0,0.0,0.0,0.0,0.0,0.0,0.0,0.0,0.0,0.0,0.0,0.0,0.0,0.0,0.0,0.0,0.0,0.0,0.0,0.0,0.0,0.0,0.0,0.0,0.0,0.0,0.0,0.0,0.0,0.0,0.0,0.0,0.0,0.0,0.0,0.0,0.0,0.0,5.7058,5.8617,5.8612,0.0,5.8689,0.0,0.0,0.0,0.0,0.0,0.0,0.0,0.0,0.0,0.0,0.0,0.0,0.0,0.0,0.0,0.0,0.0,0.0,0.0,0.0,0.0,0.0,0.0,0.0,0.0,0.0,0.0,0.0,0.0,0.0,0.0,0.0,0.0,0.0,0.0,0.0,0.0,0.0,0.0,0.0,0.0,0.0,0.0,0.0,0.0,0.0,0.0,0.0,0.0,0.0,0.0,0.0,0.0,0.0,0.0,0.0,0.0,0.0,0.0,0.0,0.0,0.0,0.0,0.0,0.0,0.0,0.0,0.0,0.0,0.0,0.0,0.0,0.0,0.0,0.0,0.0,0.0,0.0,0.0,0.0,0.0,0.0,0.0,0.0,0.0,0.0,0.0,0.0,0.0,0.0,0.0,0.0,0.0,0.0,0.0,0.0,0.0,0.0,0.0,0.0,0.0,0.0,0.0,0.0,0.0,0.0,0.0,0.0,0.0,0.0,0.0,0.0,5.5341,5.5341,5.5338,0.0,0.0,0.0,0.0,0.0,0.0,0.0,0.0,0.0,0.0,0.0,0.0,0.0,0.0,0.0,0.0,0.0,0.0,0.0,0.0,0.0,0.0,0.0,0.0,0.0,0.0,0.0,0.0,0.0,0.0,0.0,0.0,0.0,0.0,0.0,0.0,0.0,0.0,0.0,0.0,0.0,0.0,0.0,0.0,0.0,0.0,0.0,0.0,0.0,0.0,0.0,0.0,0.0,0.0,0.0,0.0,0.0,0.0,0.0,0.0,0.0,0.0,0.0,0.0,0.0,0.0,0.0,0.0,0.0,0.0,0.0,0.0,0.0,0.0,0.0,0.0,0.0,0.0,0.0,0.0,0.0,0.0,0.0,0.0,0.0,0.0,0.0,0.0,0.0,0.0,0.0,0.0,0.0,0.0,0.0,0.0,0.0,0.0,0.0,0.0,0.0,0.0,0.0,0.0,0.0,0.0,0.0,0.0,0.0,0.0,5.3471,5.4224,5.4216,5.4216,5.4216,0.0,0.0,0.0,0.0,0.0,0.0,0.0,0.0,0.0,0.0,0.0,0.0,0.0,0.0,0.0,0.0,0.0,0.0,0.0,0.0,0.0,0.0,0.0,0.0,0.0,0.0,0.0,0.0,0.0,0.0,0.0,0.0,0.0,0.0,0.0,0.0,0.0,0.0,0.0,0.0,0.0,0.0,0.0,0.0,0.0,0.0,0.0,0.0,0.0,0.0,0.0,0.0,0.0,0.0,0.0,0.0,0.0,0.0,0.0,0.0,0.0,0.0,0.0,0.0,0.0,0.0,0.0,0.0,0.0,0.0,0.0,0.0,0.0,0.0,0.0,0.0,0.0,0.0,0.0,0.0,0.0,0.0,0.0,0.0,0.0,0.0,0.0,0.0,0.0,0.0,0.0,0.0,0.0,0.0,0.0,0.0,0.0,0.0,0.0,0.0,0.0,0.0,0.0,0.0,0.0,0.0,0.0,0.0,0.0,0.0,0.0,0.0,0.0,0.0,5.3543,0.0,0.0,0.0,0.0,0.0,0.0,0.0,0.0,0.0,0.0,0.0,0.0,0.0,0.0,0.0,0.0,0.0,0.0,0.0,0.0,0.0,0.0,0.0,0.0,0.0,0.0,0.0,0.0,0.0,0.0,0.0,0.0,0.0,0.0,0.0,0.0,0.0,0.0,0.0,0.0,0.0,0.0,0.0,0.0,0.0,0.0,0.0,0.0,0.0,0.0,0.0,0.0,0.0,0.0,0.0,0.0,0.0,0.0,0.0,0.0,0.0,0.0,0.0,0.0,0.0,0.0,0.0,0.0,0.0,0.0,0.0,0.0,0.0,0.0,0.0,0.0,0.0,0.0,0.0,0.0,0.0,0.0,0.0,0.0,0.0,0.0,0.0,0.0,0.0,0.0,0.0,0.0,0.0,0.0,0.0,0.0,0.0,0.0,0.0,0.0,0.0,0.0,0.0,0.0,0.0,0.0,0.0,0.0,0.0,0.0,0.0,0.0,0.0,0.0,0.0,0.0,0.0,0.0,0.0,0.0,0.0,0.0,0.0,0.0,0.0,0.0,0.0,0.0,0.0,0.0,0.0,0.0,0.0,0.0,0.0,0.0,0.0,0.0,0.0,0.0,0.0,0.0,0.0,0.0,0.0,0.0,0.0,0.0,0.0,0.0,0.0,0.0,0.0,0.0,0.0,0.0,0.0,0.0,0.0,0.0,0.0,0.0,0.0,0.0,0.0,0.0,0.0,0.0,0.0,0.0,0.0,0.0,0.0,0.0,0.0,0.0,0.0,0.0,0.0,0.0,0.0,0.0,0.0,0.0,0.0,0.0,0.0,0.0,0.0,0.0,0.0,0.0,0.0,0.0,0.0,0.0,0.0,0.0,0.0,0.0,0.0,0.0,0.0,0.0,0.0,0.0,0.0,0.0,0.0,0.0,0.0,0.0,0.0,0.0,0.0,0.0,0.0,0.0,0.0,0.0,0.0,0.0,0.0,0.0,0.0,0.0,0.0,0.0,0.0,0.0,0.0,0.0,0.0,0.0,0.0,0.0,0.0,0.0,0.0,0.0,0.0,0.0,0.0,0.0,0.0,0.0,0.0,0.0,0.0,0.0,0.0,0.0,0.0,0.0,0.0,0.0,0.0,0.0,0.0,0.0,0.0,0.0,0.0,0.0,0.0,0.0,0.0,0.0,0.0,0.0,0.0,0.0,0.0,0.0,0.0,0.0,0.0,0.0,0.0,0.0,0.0,0.0,0.0,0.0,0.0,0.0,0.0,0.0,0.0,0.0,0.0,0.0,0.0,0.0,0.0,0.0,0.0,0.0,0.0,0.0,0.0,0.0,0.0,0.0,0.0,0.0,0.0,0.0,0.0,0.0,0.0,0.0,0.0,0.0,0.0,0.0,0.0,0.0,0.0,0.0,0.0,0.0,0.0,0.0,0.0,0.0,0.0,0.0,0.0,0.0,0.0,0.0,0.0,0.0,0.0,0.0,0.0,0.0,0.0,0.0,0.0,0.0,0.0,0.0,0.0,0.0,0.0,0.0,0.0,0.0,0.0,0.0,0.0,0.0,0.0,0.0,0.0,0.0,0.0,0.0,0.0,0.0,0.0,0.0,0.0,0.0,0.0,0.0,0.0,0.0,0.0,0.0,0.0,0.0,0.0,0.0,0.0,0.0,0.0,0.0,0.0,0.0,0.0,0.0,0.0,0.0,0.0,0.0,0.0,0.0,0.0,0.0,0.0,0.0,0.0,0.0,0.0,0.0,0.0,0.0,0.0,0.0,0.0,0.0,0.0,0.0,0.0,0.0,0.0,0.0,0.0,0.0,0.0,0.0,0.0,0.0,0.0,0.0,0.0,0.0,0.0,0.0,0.0,0.0,0.0,0.0,0.0,0.0,0.0,0.0,0.0,0.0,0.0,0.0,0.0,0.0,0.0,0.0,0.0,0.0,0.0,0.0,0.0,0.0,0.0,0.0,0.0,0.0,0.0,0.0,0.0,0.0,0.0,0.0,0.0,0.0,0.0,0.0,0.0,0.0,0.0,0.0,0.0,0.0,0.0,0.0,0.0,0.0,0.0,0.0,0.0,0.0,0.0,0.0,0.0,0.0,0.0,0.0,0.0,0.0,0.0,0.0,0.0,0.0,0.0,0.0,0.0,0.0,0.0,0.0,0.0,0.0,0.0,0.0,0.0,0.0,0.0,0.0,0.0,0.0,0.0,0.0,0.0,0.0,0.0,0.0,0.0,0.0,0.0,0.0,0.0,0.0,0.0,0.0,0.0,0.0,0.0,0.0,0.0,0.0,0.0,0.0,0.0,0.0,0.0,0.0,0.0,0.0,0.0,0.0,0.0,0.0,0.0,0.0,0.0,0.0,0.0,0.0,0.0,0.0,0.0,0.0,0.0,0.0,0.0,0.0,0.0,0.0,0.0,0.0,0.0,0.0,0.0,0.0,0.0,0.0,0.0,0.0,0.0,0.0,0.0,0.0,0.0,0.0,0.0,0.0,0.0,0.0,0.0,0.0,0.0,0.0,0.0,0.0,0.0,0.0,0.0,0.0,0.0,0.0,0.0,0.0,0.0,0.0,0.0,0.0,0.0,0.0,0.0,0.0,0.0,0.0,0.0,0.0,0.0,0.0,0.0,0.0,0.0,0.0,0.0,0.0,0.0,0.0,0.0,0.0,0.0,0.0,0.0,0.0,0.0,0.0,0.0,0.0,0.0,0.0,0.0,0.0,0.0,0.0,0.0,0.0,0.0,0.0,0.0,0.0,0.0,0.0,0.0,0.0,0.0,0.0,0.0,0.0,0.0,0.0,0.0,0.0,0.0,0.0,0.0,0.0,0.0,0.0,0.0,0.0,0.0,0.0,0.0,0.0,0.0,0.0,0.0,0.0,0.0,0.0,0.0,0.0,0.0,0.0,0.0,0.0,0.0,0.0,0.0,0.0,0.0,0.0,0.0,0.0,0.0,0.0,0.0,0.0,0.0,0.0,0.0,0.0,0.0,0.0,0.0,0.0,0.0,0.0,0.0,0.0,0.0,0.0,0.0,0.0,0.0,0.0,0.0,0.0,0.0,0.0,0.0,0.0,0.0,0.0,0.0,0.0,0.0,0.0,0.0,0.0,0.0,0.0,0.0,0.0,0.0,0.0,0.0,0.0,0.0,0.0,0.0,0.0,0.0,0.0,0.0,0.0,0.0,0.0,0.0,0.0,0.0,0.0,0.0,0.0,0.0,0.0,0.0,0.0,0.0,0.0,0.0,0.0,0.0,0.0,0.0,0.0,0.0,0.0,0.0,0.0,0.0,0.0,0.0,0.0,0.0,0.0,0.0,0.0,0.0,0.0,0.0,0.0,0.0,0.0,0.0,0.0,0.0,0.0,0.0,0.0,0.0,0.0,0.0,0.0,0.0,0.0,0.0,0.0,0.0,0.0,0.0,0.0,0.0,0.0,0.0,0.0,0.0,0.0,0.0,0.0,0.0,0.0,0.0,0.0,0.0,0.0,0.0,0.0,0.0,0.0,0.0,0.0,0.0,0.0,0.0,0.0,0.0,0.0,0.0,0.0,0.0,0.0,0.0,0.0,0.0,0.0,0.0,0.0,0.0,0.0,0.0,0.0,0.0,0.0,0.0,0.0,0.0,0.0,0.0,0.0,0.0,0.0,0.0,0.0,0.0,0.0,0.0,0.0,0.0,0.0,0.0,0.0,0.0,0.0,0.0,0.0,0.0,0.0,0.0,0.0,0.0,0.0,0.0,0.0,0.0,0.0,0.0,0.0,0.0,0.0,0.0,0.0,0.0,0.0,0.0,0.0,0.0,0.0,0.0,0.0,0.0,0.0,0.0,0.0,0.0,0.0,0.0,0.0,0.0,0.0,0.0,0.0,0.0,0.0,0.0,0.0,0.0,0.0,0.0,0.0,0.0,0.0,0.0,0.0,0.0,0.0,0.0,0.0,0.0,0.0,0.0,0.0,0.0,0.0,0.0,0.0,0.0,0.0,0.0,0.0,0.0,0.0,0.0,0.0,0.0,0.0,0.0,0.0,0.0,0.0,0.0,0.0,0.0,0.0,0.0,0.0,0.0,0.0,0.0,0.0,0.0,0.0,0.0,0.0,0.0,0.0,0.0,0.0,0.0,0.0,0.0,0.0,0.0,0.0,0.0,0.0,0.0,0.0,0.0,0.0,0.0,0.0,0.0,0.0,0.0,0.0,0.0,0.0,0.0,0.0,0.0,0.0,0.0,0.0,0.0,0.0,0.0,0.0,0.0,0.0,0.0,0.0,0.0,0.0,0.0,0.0,0.0,0.0,0.0,0.0,0.0,0.0,0.0,0.0,0.0,0.0,0.0,0.0,0.0,0.0,0.0,0.0]}],[{"header":{"parameterUnit":"kt","parameterCategory":2,"dx":1,"dy":1,"la1":29.587661999999998,"la2":31.0,"lo1":-88.76705300000003,"lo2":-86.6583820000003,"nx":115,"ny":88,"refTime":"2022-09-23T18:00:00:Z","depth":0,"parameterNumber":2,"parameterNumberName":"V-component_of_WINDS"},"data":[11.5036,11.8826,11.9695,12.2424,12.5765,12.6694,12.7709,12.8385,12.8511,12.8511,12.8092,12.7709,12.6989,12.7331,12.6953,12.682,12.5886,12.5251,12.3799,12.2338,12.3799,12.3457,12.2553,12.1646,11.9828,11.8781,11.7685,11.5568,11.4101,11.2672,11.1323,10.96,10.9001,10.8909,10.8955,10.8453,10.7033,10.5646,10.425,10.3785,10.1103,10.0577,9.9963,9.9907,9.9907,9.9907,10.0577,10.3086,10.4203,10.5784,10.8224,11.0772,11.2351,11.307,11.3115,11.3562,11.3383,11.4411,11.5434,11.6099,11.6762,11.8961,11.9004,11.9267,11.9398,11.9485,11.9267,11.8872,11.8786,11.8216,11.8435,11.9354,11.9616,11.9616,11.9923,11.9923,12.1575,12.2183,12.2528,12.2829,12.2829,12.2786,12.2829,12.2958,12.2958,12.3001,12.3001,12.3001,12.3001,12.3001,12.3001,12.3001,12.3001,12.3001,12.3001,12.3001,12.3001,12.3001,12.3001,12.3001,12.3001,12.3001,12.3001,12.3001,12.3001,12.3001,12.3001,12.3001,12.3001,12.3001,12.3001,12.3001,12.3001,12.3001,12.3001,10.9596,11.3701,11.4814,11.786,12.1865,12.2338,12.4439,12.7709,12.8302,12.8176,12.7115,12.1387,12.1128,12.1301,12.0652,12.1779,12.2166,12.1474,11.9523,11.8255,11.8956,11.865,11.8211,11.7729,11.7158,11.6276,11.4769,11.2353,10.9596,10.8142,10.5842,10.2284,10.1479,10.1573,10.1385,10.1479,10.2284,10.1675,10.1385,10.0586,10.0247,9.9907,9.9907,9.9907,9.9907,9.9907,9.9907,10.0482,10.053,10.2284,10.4528,10.7263,10.9092,10.9732,11.005,10.9911,10.9729,11.0636,11.2081,11.2351,11.298,11.3428,11.289,11.2935,11.3027,11.2982,11.2804,11.2715,11.2802,11.2801,11.298,11.3383,11.3383,11.3428,11.3875,11.4233,11.7688,12.0621,12.1489,12.2485,12.2442,12.2442,12.2571,12.2786,12.2872,12.3001,12.3001,12.3001,12.3001,12.3001,12.3001,12.3001,12.3001,12.3001,12.3001,12.3001,12.3001,12.3001,12.3001,12.3001,12.3001,12.3001,12.3001,12.3001,12.3001,12.3001,12.3001,12.3001,12.3001,12.3001,12.3001,12.3001,12.3001,12.3001,12.3001,10.3785,10.6021,10.8967,11.2763,11.6364,11.7289,11.8605,12.0476,12.1215,12.143,12.0609,11.7904,11.7114,11.8825,11.7509,11.8167,11.9043,11.7641,11.5479,11.468,11.5036,11.4368,11.3208,11.2311,11.2849,11.2174,11.0319,10.8133,10.4952,10.3513,10.2907,10.0821,10.0247,10.0294,10.0199,10.0058,10.0247,9.9907,10.0105,10.0011,9.9963,9.9907,9.9907,9.9907,9.9907,9.9907,9.9907,9.9907,9.9907,10.0765,10.162,10.425,10.5045,10.583,10.5461,10.5461,10.583,10.6061,10.7629,10.8727,10.9501,11.145,11.1811,11.0691,11.0332,10.6305,10.6168,10.7982,10.8114,10.9501,10.9683,11.0092,11.0138,11.0138,11.05,11.1179,11.3786,11.6188,11.6895,11.7732,11.8084,11.8128,11.8479,11.8654,11.9879,11.9923,12.2571,12.2786,12.2958,12.3001,12.3001,12.3001,12.3001,12.3001,12.3001,12.3001,12.3001,12.3001,12.3001,12.3001,12.3001,12.3001,12.3001,12.3001,12.3001,12.3001,12.3001,12.3001,12.3001,12.3001,12.3001,12.3001,12.3001,12.3001,12.3001,9.9907,10.0294,10.3845,10.7776,11.1413,11.2313,11.3209,11.4236,11.3252,11.2356,11.2311,11.1996,11.2715,11.419,11.2802,11.3071,11.3967,11.2668,11.1453,11.05,11.0636,10.9729,10.8403,10.8266,10.8357,10.7385,10.5726,10.3724,10.2323,10.1056,10.0011,9.9907,9.9907,9.9907,9.9907,9.9907,9.9907,9.9907,9.9907,9.9907,9.9907,9.9907,9.9907,9.9907,9.9907,9.9907,9.9907,9.9907,9.9907,9.9907,9.9907,9.9907,9.9907,10.0058,10.0011,9.9963,10.0859,10.2284,10.3692,10.4535,10.5276,10.74,10.7977,10.8346,10.6809,10.1963,10.0483,10.2651,10.4467,10.6089,10.7217,10.7721,10.8042,10.8087,10.8179,10.9001,10.9956,11.0549,11.0911,11.1453,11.1991,11.2441,11.289,11.3875,11.5345,11.7292,11.9485,12.0882,12.0445,11.9836,11.9179,12.0532,12.1185,12.2007,12.3001,12.3001,12.3001,12.3001,12.2786,12.2872,12.3001,12.3001,12.3001,12.3001,12.3001,12.3001,12.3001,12.3001,12.3001,12.3001,12.3001,12.3001,12.3001,12.3001,12.3001,9.9907,9.9963,10.0303,10.342,10.7232,10.7639,10.9966,11.3254,10.6343,10.2845,10.3405,10.3771,10.6424,10.8818,10.712,10.7303,10.8449,10.7441,10.5772,10.3996,10.5634,10.5634,10.4933,10.4926,10.5118,10.4972,10.4043,10.2549,10.1471,10.053,9.9907,9.9907,9.9907,9.9907,9.9907,9.9907,9.9907,9.9907,9.9907,9.9907,9.9907,9.9907,9.9907,9.9907,9.9907,9.9907,9.9907,9.9907,9.9907,9.9907,9.9907,9.9907,9.9907,9.9907,9.9907,9.9907,9.9907,10.0765,10.1056,10.1385,10.1761,10.1341,10.031,10.146,10.242,9.9868,9.9336,10.0994,10.1646,10.3047,10.3505,10.3924,10.4017,10.3971,10.4203,10.4813,10.5646,10.6292,10.6895,10.7996,10.8453,10.859,10.9092,11.0364,11.1991,11.2126,11.3697,11.539,11.5256,11.4411,11.5212,11.7115,11.7688,11.8391,11.9485,12.0097,12.1229,12.2442,12.2442,12.2485,12.2915,12.3001,12.3001,12.3001,12.3001,12.3001,12.3001,12.3001,12.3001,12.3001,12.3001,12.3001,12.3001,12.3001,12.3001,9.9907,9.9907,9.9907,10.0962,10.2619,10.2806,10.3652,10.4727,10.2097,10.0953,10.1424,10.1283,10.2643,10.4661,10.3351,10.3118,10.5171,10.3437,10.2541,10.2307,10.2502,10.2174,10.1752,10.1799,10.2315,10.2268,10.2081,10.194,10.1424,10.053,9.9907,9.9907,9.9907,9.9907,9.9907,9.9907,9.9907,9.9907,9.9907,9.9907,9.9907,9.9907,9.9907,9.9907,9.9907,9.9907,9.9907,9.9907,9.9907,9.9907,9.9907,9.9907,9.9907,9.9907,9.9907,9.9907,9.9907,9.9907,9.9907,9.9907,9.9907,9.9935,9.9933,9.9195,9.9204,9.9204,9.9318,9.9461,9.9727,9.9907,9.9907,9.9907,9.9907,9.9907,10.0294,10.068,10.1432,10.219,10.3319,10.4621,10.5084,10.5223,10.5877,10.7171,10.8087,10.8453,10.941,11.0863,11.0817,10.9774,11.0727,11.3159,11.4009,11.4677,11.4589,11.5079,11.6939,11.861,11.931,12.0749,12.2829,12.2915,12.2657,12.2743,12.2958,12.3001,12.3001,12.3001,12.3001,12.3001,12.3001,12.3001,12.3001,12.3001,12.3001,9.9907,9.9907,9.9907,9.9907,9.9907,9.9916,9.9907,9.9907,9.9916,10.0247,10.0953,10.0199,10.0906,10.2026,10.1377,10.1518,10.1979,10.2026,10.1565,10.133,10.1048,10.0765,10.0671,10.0812,10.0953,10.1142,10.1048,10.0906,10.0765,10.0435,9.9916,9.9907,9.9907,9.9907,9.9907,9.9907,9.9907,9.9907,9.9907,9.9907,9.9907,9.9907,9.9907,9.9907,9.9907,9.9907,9.9907,9.9907,9.9907,9.9907,9.9907,9.9907,9.9907,9.9907,9.9907,9.9907,9.9907,9.9907,9.9907,9.9907,9.9907,9.9869,9.9878,9.9537,9.9271,9.9204,9.9242,9.9461,9.9764,9.9831,9.9907,9.9907,9.9907,9.9907,10.0011,10.0247,10.0388,10.0962,10.1056,10.2089,10.1995,10.2089,10.1956,10.3319,10.4906,10.5091,10.5692,10.6752,10.6798,10.5316,10.5923,10.8955,11.0274,11.1269,11.1179,11.145,11.3294,11.4812,11.5479,11.6674,11.9136,12.1055,12.1924,12.2442,12.2872,12.3001,12.3001,12.3001,12.3001,12.3001,12.3001,12.3001,12.3001,12.3001,12.3001,9.9907,9.9907,9.9907,9.9907,9.9907,9.9907,9.9907,9.9907,9.9907,9.9954,10.0011,9.9963,10.0105,10.0152,10.0058,10.0152,10.0379,10.0332,10.0199,10.0105,10.0247,10.0671,10.0906,10.1095,10.1,10.1236,10.1142,10.0482,10.0011,9.9869,9.9869,9.9907,9.9907,9.9907,9.9907,9.9907,9.9907,9.9907,9.9907,9.9907,9.9907,9.9907,9.9907,9.9907,9.9907,9.9907,9.9907,9.9907,9.9907,9.9907,9.9907,9.9907,9.9907,9.9907,9.9907,9.9907,9.9907,9.9907,9.9907,9.9907,9.9869,9.9727,9.9755,9.9793,9.9575,9.9242,9.9128,9.928,9.9461,9.9651,9.9869,9.9869,9.9869,9.9907,9.9907,9.9907,9.9907,9.9907,9.9907,9.9907,9.9907,9.9916,10.0105,10.0105,10.1901,10.2144,10.2658,10.3545,10.3452,10.1808,10.3079,10.5877,10.6568,10.7629,10.8499,10.8864,11.0274,11.1269,11.1901,11.2935,11.57,11.7908,11.9443,12.1012,12.2269,12.3001,12.3001,12.3001,12.3001,12.3001,12.3001,12.3001,12.3001,12.3001,12.3001,9.9907,9.9907,9.9907,9.9907,9.9907,9.9907,9.9907,9.9907,9.9907,9.9907,9.9907,9.9907,9.9907,9.9907,9.9907,9.9907,9.9907,9.9907,9.9907,9.9907,9.9907,10.0152,10.0388,10.0388,10.0624,10.0482,10.0388,10.0388,9.9916,9.9907,9.9907,9.9907,9.9907,9.9907,9.9907,9.9907,9.9907,9.9907,9.9907,9.9907,9.9907,9.9907,9.9907,9.9907,9.9907,9.9907,9.9907,9.9907,9.9907,9.9907,9.9907,9.9907,9.9907,9.9907,9.9907,9.9907,9.9907,9.9907,9.9907,9.9907,9.9689,9.9385,9.9157,9.8938,9.8483,9.8749,9.8711,9.8825,9.8816,9.9006,9.9233,9.9793,9.9831,9.9869,9.9907,9.9907,9.9907,9.9907,9.9907,9.9907,9.9907,9.9907,9.9916,9.9907,9.9907,9.9907,9.9907,10.0199,10.0482,10.0435,10.1197,10.1956,10.2518,10.3273,10.4203,10.5415,10.666,10.7584,10.8453,10.9228,11.1901,11.4588,11.6983,11.905,12.0925,12.2356,12.27,12.3001,12.3001,12.3001,12.3001,12.3001,12.3001,12.3001,12.3001,9.9907,9.9907,9.9907,9.9907,9.9907,9.9907,9.9907,9.9907,9.9907,9.9907,9.9907,9.9907,9.9907,9.9907,9.9907,9.9907,9.9907,9.9907,9.9907,9.9907,9.9907,9.9907,9.9916,10.0011,9.9963,9.9916,9.9916,9.9963,9.9907,9.9907,9.9907,9.9907,9.9907,9.9907,9.9907,9.9907,9.9907,9.9907,9.9907,9.9907,9.9907,9.9907,9.9907,9.9907,9.9907,9.9907,9.9907,9.9907,9.9907,9.9907,9.9907,9.9907,9.9907,9.9907,9.9907,9.9907,9.9907,9.9907,9.9907,9.9831,9.9613,9.9432,9.928,9.9128,9.8559,9.8407,9.8369,9.8673,9.9157,9.9233,9.9081,9.9651,9.984,9.9831,9.9907,9.9907,9.9907,9.9907,9.9907,9.9907,9.9907,9.9907,9.9907,9.9907,9.9907,9.9907,9.9907,9.9907,9.9907,9.9916,9.9916,9.9869,9.9907,9.9907,10.0105,10.1761,10.3079,10.3785,10.4621,10.583,10.8087,11.0727,11.3562,11.7336,11.953,12.1621,12.2399,12.3001,12.3001,12.2915,12.3001,12.3001,12.3001,12.3001,12.3001,9.9907,9.9907,9.9907,9.9907,9.9907,9.9907,9.9907,9.9907,9.9907,9.9907,9.9907,9.9907,9.9907,9.9907,9.9907,9.9907,9.9907,9.9907,9.9907,9.9907,9.9907,9.9907,9.9907,9.9907,9.9907,9.9907,9.9907,9.9907,9.9907,9.9907,9.9907,9.9907,9.9907,9.9907,9.9907,9.9907,9.9907,9.9907,9.9907,9.9907,9.9907,9.9907,9.9907,9.9907,9.9907,9.9907,9.9907,9.9907,9.9907,9.9907,9.9907,9.9907,9.9907,9.9907,9.9907,9.9907,9.9907,9.9907,9.9907,9.9907,9.9802,9.9575,9.9347,9.9271,9.9575,9.9575,9.9233,9.8711,9.9195,9.9461,9.9764,9.984,9.984,9.9878,9.9869,9.9907,9.9907,9.9907,9.9907,9.9907,9.9907,9.9907,9.9907,9.9907,9.9907,9.9907,9.9907,9.9907,9.9907,9.9869,9.9869,9.9907,9.9907,9.9907,9.9907,9.9907,9.9907,9.9916,10.0962,10.2752,10.4859,10.7625,11.1224,11.5212,11.7336,11.8479,12.0532,12.2571,12.1924,12.1142,12.1924,12.2269,12.2915,12.3001,12.3001,9.9907,9.9907,9.9907,9.9907,9.9907,9.9907,9.9907,9.9907,9.9907,9.9907,9.9907,9.9907,9.9907,9.9907,9.9907,9.9907,9.9907,9.9907,9.9907,9.9907,9.9907,9.9907,9.9907,9.9907,9.9907,9.9907,9.9907,9.9907,9.9907,9.9907,9.9907,9.9907,9.9907,9.9907,9.9907,9.9907,9.9907,9.9907,9.9907,9.9907,9.9907,9.9907,9.9907,9.9907,9.9907,9.9907,9.9907,9.9907,9.9907,9.9907,9.9907,9.9907,9.9907,9.9907,9.9907,9.9907,9.9907,9.9907,9.9907,9.9831,9.9651,9.9318,9.9157,9.89,9.8445,9.8255,9.8749,9.8597,9.8483,9.8483,9.9006,9.9309,9.9423,9.9878,9.9869,9.9907,9.9907,9.9907,9.9907,9.9907,9.9907,9.9907,9.9907,9.9907,9.9907,9.9907,9.9907,9.9907,9.9907,9.9907,9.9907,9.9907,9.9907,9.9907,9.9907,9.9907,9.9907,9.9907,10.0152,10.1244,10.2331,10.4946,10.827,11.1089,11.3249,11.5212,11.663,11.7732,11.8391,11.9006,11.9399,11.953,12.0271,12.1402,12.1834,9.9907,9.9907,9.9907,9.9907,9.9907,9.9907,9.9907,9.9907,9.9907,9.9907,9.9907,9.9907,9.9907,9.9907,9.9907,9.9907,9.9907,9.9907,9.9907,9.9907,9.9907,9.9907,9.9907,9.9907,9.9907,9.9907,9.9907,9.9907,9.9907,9.9907,9.9907,9.9907,9.9907,9.9907,9.9907,9.9907,9.9907,9.9907,9.9907,9.9907,9.9907,9.9907,9.9907,9.9907,9.9907,9.9907,9.9907,9.9907,9.9907,9.9907,9.9907,9.9907,9.9907,9.9907,9.9907,9.9907,9.9907,9.9907,9.9869,9.9575,9.9271,9.8787,9.8749,9.8787,9.89,9.8597,9.8483,9.8445,9.8711,9.9014,9.9157,9.9195,9.9233,9.9727,9.9907,9.9907,9.9907,9.9907,9.9907,9.9907,9.9907,9.9907,9.9907,9.9869,9.9831,9.9793,9.9869,9.9907,9.9907,9.9907,9.9907,9.9907,9.9907,9.9907,9.9907,9.9907,9.9907,9.9907,9.9916,10.0341,10.0812,10.3125,10.4714,10.6245,10.8407,11.1179,11.2935,11.3294,11.392,11.4812,11.5656,11.6409,11.7952,11.9356,11.8391,9.9907,9.9907,9.9907,9.9907,9.9907,9.9907,9.9907,9.9907,9.9907,9.9907,9.9907,9.9907,9.9907,9.9907,9.9907,9.9907,9.9907,9.9907,9.9907,9.9907,9.9907,9.9907,9.9907,9.9907,9.9907,9.9907,9.9907,9.9907,9.9907,9.9907,9.9907,9.9907,9.9907,9.9907,9.9907,9.9907,9.9907,9.9907,9.9907,9.9907,9.9907,9.9907,9.9907,9.9907,9.9907,9.9907,9.9907,9.9907,9.9907,9.9907,9.9907,9.9907,9.9907,9.9907,9.9907,9.9907,9.9907,9.9802,9.9613,9.9195,9.8778,9.8673,9.8673,9.8711,9.9081,9.9575,9.9755,9.9613,9.9014,9.9356,9.9651,9.9878,9.9575,9.984,9.9907,9.9907,9.9907,9.9907,9.9907,9.9907,9.9907,9.9907,9.9869,9.9613,9.9537,9.9081,9.9081,9.9461,9.9537,9.9802,9.9793,9.9907,9.9907,9.9907,9.9907,9.9907,9.9907,9.9907,9.9907,9.9907,9.9907,10.0482,10.2042,10.3412,10.4535,10.74,10.9638,10.8544,10.8362,11.0138,11.1676,11.2576,11.392,11.57,11.5034,9.9907,9.9907,9.9907,9.9907,9.9907,9.9907,9.9907,9.9907,9.9907,9.9907,9.9907,9.9907,9.9907,9.9907,9.9907,9.9907,9.9907,9.9907,9.9907,9.9907,9.9907,9.9907,9.9907,9.9907,9.9907,9.9907,9.9907,9.9907,9.9907,9.9907,9.9907,9.9907,9.9907,9.9907,9.9907,9.9907,9.9907,9.9907,9.9907,9.9907,9.9907,9.9907,9.9907,9.9907,9.9907,9.9907,9.9907,9.9907,9.9907,9.9907,9.9907,9.9907,9.9907,9.9907,9.9907,9.9869,9.9802,9.9613,9.9081,9.8749,9.8445,9.8112,9.796,9.8179,9.8778,9.8483,9.8445,9.9764,9.909,9.909,9.9508,9.9385,9.9537,9.9764,9.9907,9.9907,9.9907,9.9907,9.9907,9.9907,9.9907,9.9907,9.9461,9.928,9.89,9.8445,9.8559,9.8938,9.9233,9.9575,9.9727,9.9907,9.9907,9.9907,9.9907,9.9907,9.9907,9.9907,9.9907,9.9907,9.9907,10.0247,10.0671,10.0577,10.1009,10.3552,10.6245,10.4157,10.2471,10.5091,10.7446,10.8544,10.9732,11.1856,11.2261,9.9907,9.9907,9.9907,9.9907,9.9907,9.9907,9.9907,9.9907,9.9907,9.9907,9.9907,9.9907,9.9907,9.9907,9.9907,9.9907,9.9907,9.9907,9.9907,9.9907,9.9907,9.9907,9.9907,9.9907,9.9907,9.9907,9.9907,9.9907,9.9907,9.9907,9.9907,9.9907,9.9907,9.9907,9.9907,9.9907,9.9907,9.9907,9.9907,9.9907,9.9907,9.9907,9.9907,9.9907,9.9907,9.9907,9.9907,9.9907,9.9907,9.9907,9.9907,9.9907,9.9907,9.9907,9.9869,9.9916,9.9651,9.9043,9.8331,9.7829,9.7412,9.7078,9.704,9.7344,9.8036,9.8179,9.8673,9.9347,9.8521,9.8749,9.9499,9.9461,9.9613,9.9727,9.9869,9.9907,9.9907,9.9907,9.9831,9.9869,9.9831,9.9233,9.8711,9.8445,9.8225,9.8074,9.8293,9.8711,9.909,9.9461,9.9764,9.9869,9.9869,9.9793,9.9755,9.9802,9.9764,9.9802,9.9802,9.9907,9.9907,9.9907,10.0058,10.0058,10.0058,10.0868,10.2284,10.1956,10.115,10.205,10.3226,10.3645,10.425,10.643,10.7996,9.9907,9.9907,9.9907,9.9907,9.9907,9.9907,9.9907,9.9907,9.9907,9.9907,9.9907,9.9907,9.9907,9.9907,9.9907,9.9907,9.9907,9.9907,9.9907,9.9907,9.9907,9.9907,9.9907,9.9907,9.9907,9.9907,9.9907,9.9907,9.9907,9.9907,9.9907,9.9907,9.9907,9.9907,9.9907,9.9907,9.9907,9.9907,9.9907,9.9907,9.9907,9.9907,9.9907,9.9907,9.9907,9.9907,9.9907,9.9907,9.9907,9.9907,9.9907,9.9907,9.9907,9.9907,9.9907,9.9689,9.9157,9.8407,9.7694,9.7002,9.6425,9.6205,9.6129,9.6509,9.7002,9.7572,9.8141,9.8521,9.8521,9.8862,9.9385,9.9764,9.9869,9.9907,9.9907,9.9907,9.9907,9.9869,9.9727,9.9689,9.9081,9.8483,9.7799,9.7656,9.758,9.7808,9.8112,9.8529,9.8938,9.9499,9.9916,9.984,9.9802,9.9537,9.9423,9.9499,9.9499,9.9613,9.9727,9.9907,9.9907,9.9907,9.9869,9.9831,9.9916,10.0482,10.1103,10.1009,10.0247,10.0577,10.1385,10.0821,9.9963,10.0577,10.2424,9.9907,9.9907,9.9907,9.9907,9.9907,9.9907,9.9907,9.9907,9.9907,9.9907,9.9907,9.9907,9.9907,9.9907,9.9907,9.9907,9.9907,9.9907,9.9907,9.9907,9.9907,9.9907,9.9907,9.9907,9.9907,9.9907,9.9907,9.9907,9.9907,9.9907,9.9907,9.9907,9.9907,9.9907,9.9907,9.9907,9.9907,9.9907,9.9907,9.9907,9.9907,9.9907,9.9907,9.9907,9.9907,9.9907,9.9907,9.9907,9.9907,9.9907,9.9907,9.9907,9.9907,9.9869,9.9869,9.9802,9.9204,9.8407,9.758,9.666,9.5901,9.5453,9.5339,9.5377,9.5833,9.6547,9.707,9.7648,9.7846,9.8141,9.89,9.9546,9.9764,9.9802,9.9755,9.9831,9.9727,9.9613,9.9347,9.8825,9.8377,9.7694,9.6926,9.666,9.6934,9.7162,9.7799,9.8217,9.8825,9.9423,9.9878,9.9802,9.9537,9.9233,9.9014,9.9052,9.9014,9.9014,9.9157,9.9309,9.9499,9.9717,9.9793,9.9764,9.9802,9.9717,9.9869,9.9916,9.9907,9.9907,9.9907,9.9869,9.9916,10.0247,10.0577,9.9907,9.9907,9.9907,9.9907,9.9907,9.9907,9.9907,9.9907,9.9907,9.9907,9.9907,9.9907,9.9907,9.9907,9.9907,9.9907,9.9907,9.9907,9.9907,9.9907,9.9907,9.9907,9.9907,9.9907,9.9907,9.9907,9.9907,9.9907,9.9907,9.9907,9.9907,9.9907,9.9907,9.9907,9.9907,9.9907,9.9907,9.9907,9.9907,9.9907,9.9907,9.9907,9.9907,9.9907,9.9907,9.9907,9.9907,9.9907,9.9907,9.9907,9.9907,9.9907,9.9802,9.9575,9.9157,9.8711,9.7951,9.7154,9.6364,9.5984,9.5484,9.5073,9.508,9.5187,9.5567,9.5635,9.6053,9.666,9.6964,9.7268,9.8065,9.8483,9.8787,9.874,9.8749,9.8711,9.8749,9.8787,9.8255,9.7534,9.7192,9.6782,9.6015,9.6053,9.6243,9.6774,9.7458,9.8103,9.8673,9.9271,9.9869,9.9689,9.9347,9.89,9.8339,9.8263,9.8179,9.8217,9.8331,9.8445,9.8626,9.8968,9.9195,9.9271,9.9461,9.9423,9.9613,9.9831,9.9869,9.9907,9.9907,9.9907,9.9907,9.9907,10.0011,9.9907,9.9907,9.9907,9.9907,9.9907,9.9907,9.9907,9.9907,9.9907,9.9907,9.9907,9.9907,9.9907,9.9907,9.9907,9.9907,9.9907,9.9907,9.9907,9.9907,9.9907,9.9907,9.9907,9.9907,9.9907,9.9907,9.9907,9.9907,9.9907,9.9907,9.9907,9.9907,9.9907,9.9907,9.9907,9.9907,9.9907,9.9907,9.9907,9.9907,9.9907,9.9907,9.9907,9.9907,9.9907,9.9907,9.9907,9.9907,9.9907,9.9907,9.9907,9.9907,9.9802,9.9242,9.8635,9.7989,9.7154,9.6311,9.5757,9.5263,9.508,9.5042,9.5042,9.5377,9.5597,9.5484,9.5529,9.5901,9.6129,9.6395,9.7276,9.7694,9.7618,9.7656,9.777,9.777,9.7656,9.739,9.6858,9.6357,9.6129,9.5825,9.5719,9.5681,9.5977,9.6539,9.7488,9.8407,9.8825,9.9271,9.9802,9.9575,9.9157,9.8407,9.7694,9.7656,9.7352,9.7344,9.761,9.7761,9.7989,9.8293,9.8369,9.8331,9.8445,9.8892,9.9385,9.9764,9.9793,9.9869,9.9907,9.9907,9.9907,9.9907,9.9907,9.9907,9.9907,9.9907,9.9907,9.9907,9.9907,9.9907,9.9907,9.9907,9.9907,9.9907,9.9907,9.9907,9.9907,9.9907,9.9907,9.9907,9.9907,9.9907,9.9907,9.9907,9.9907,9.9907,9.9907,9.9907,9.9907,9.9907,9.9907,9.9907,9.9907,9.9907,9.9907,9.9907,9.9907,9.9907,9.9907,9.9907,9.9907,9.9907,9.9907,9.9907,9.9907,9.9878,9.984,9.984,9.984,9.9869,9.9907,9.9907,9.9907,9.9907,9.9907,9.9727,9.9195,9.8635,9.8445,9.6691,9.5818,9.5484,9.5263,9.5004,9.5042,9.5042,9.5111,9.5187,9.5149,9.5149,9.5263,9.5377,9.5681,9.6395,9.6888,9.7352,9.7466,9.7504,9.758,9.7314,9.6296,9.5719,9.5301,9.5415,9.5415,9.5301,9.5377,9.5825,9.6425,9.7715,9.8749,9.8976,9.9271,9.9575,9.9537,9.89,9.8179,9.758,9.7352,9.6547,9.6623,9.7048,9.7238,9.7458,9.7458,9.7306,9.7306,9.7761,9.8398,9.8968,9.9537,9.9831,9.9869,9.9907,9.9907,9.9907,9.9907,9.9907,9.9907,9.9907,9.9907,9.9907,9.9907,9.9907,9.9907,9.9907,9.9907,9.9907,9.9907,9.9907,9.9907,9.9907,9.9907,9.9907,9.9907,9.9907,9.9907,9.9907,9.9907,9.9907,9.9907,9.9907,9.9907,9.9907,9.9907,9.9907,9.9907,9.9907,9.9907,9.9907,9.9907,9.9907,9.9907,9.9907,9.9907,9.9907,9.9907,9.9907,9.9907,9.9869,9.9802,9.9385,9.9309,9.9537,9.9878,9.9907,9.9907,9.9802,9.9499,9.9119,9.8635,9.7496,9.6858,9.6516,9.5218,9.4496,9.48,9.4534,9.4541,9.5004,9.5042,9.5042,9.5042,9.5042,9.5042,9.5042,9.508,9.5194,9.5567,9.6098,9.6174,9.625,9.6212,9.6174,9.6098,9.5574,9.5042,9.5042,9.5042,9.5042,9.5035,9.5187,9.5559,9.6046,9.7336,9.7761,9.8065,9.8749,9.9128,9.9318,9.8635,9.7951,9.739,9.6782,9.5977,9.5977,9.6326,9.6478,9.6592,9.6478,9.6281,9.6812,9.7306,9.7989,9.8626,9.9423,9.9869,9.9907,9.9907,9.9907,9.9907,9.9907,9.9907,9.9907,9.9907,9.9907,9.9907,9.9907,9.9907,9.9907,9.9907,9.9907,9.9907,9.9907,9.9907,9.9907,9.9907,9.9907,9.9907,9.9907,9.9907,9.9907,9.9907,9.9907,9.9907,9.9907,9.9907,9.9907,9.9907,9.9907,9.9907,9.9907,9.9907,9.9907,9.9907,9.9907,9.9907,9.9907,9.9907,9.9907,9.9907,9.9907,9.9907,9.9907,9.9869,9.9651,9.9195,9.9081,9.9385,9.9793,9.9907,9.9717,9.9233,9.8483,9.7542,9.6896,9.5643,9.4997,9.4617,9.3516,9.2908,9.3282,9.3553,9.3781,9.432,9.4465,9.4731,9.4731,9.4845,9.5042,9.5042,9.5042,9.508,9.5156,9.508,9.5232,9.5308,9.5232,9.5194,9.508,9.508,9.5042,9.5042,9.5042,9.5042,9.5042,9.5073,9.5339,9.5825,9.6235,9.6623,9.723,9.7989,9.8483,9.9014,9.8255,9.7382,9.6896,9.644,9.5757,9.5453,9.5491,9.5529,9.5491,9.5415,9.5643,9.6136,9.6812,9.7496,9.8179,9.893,9.9679,9.9831,9.9907,9.9907,9.9907,9.9907,9.9907,9.9907,9.9907,9.9907,9.9907,9.9907,9.9907,9.9907,9.9907,9.9907,9.9907,9.9907,9.9907,9.9907,9.9907,9.9907,9.9907,9.9907,9.9907,9.9907,9.9907,9.9907,9.9793,9.9793,9.9831,9.9907,9.9907,9.9907,9.9907,9.9907,9.9907,9.9907,9.9907,9.9907,9.9907,9.9907,9.9907,9.9907,9.9907,9.9907,9.9907,9.9907,9.9869,9.9764,9.9575,9.9537,9.9764,9.9802,9.9727,9.9119,9.7837,9.6288,9.5605,9.5346,9.4421,9.3851,9.3509,9.287,9.2414,9.2642,9.2794,9.2832,9.325,9.3737,9.3813,9.4041,9.4541,9.4845,9.4845,9.5042,9.4959,9.5042,9.5042,9.5042,9.5042,9.5004,9.5042,9.5042,9.5042,9.5042,9.5042,9.5042,9.5042,9.5042,9.508,9.5156,9.5825,9.6046,9.6311,9.6736,9.7306,9.7761,9.8217,9.761,9.6774,9.6478,9.6098,9.5498,9.5042,9.5042,9.5042,9.5042,9.508,9.5156,9.5605,9.663,9.7344,9.7913,9.8559,9.9233,9.9575,9.9831,9.9907,9.9907,9.9907,9.9907,9.9907,9.9907,9.9907,9.9907,9.9907,9.9907,9.9907,9.9907,9.9907,9.9907,9.9907,9.9907,9.9907,9.9907,9.9907,9.9907,9.9907,9.9907,9.9907,9.9907,9.9907,9.9689,9.9461,9.9802,9.9907,9.9907,9.9907,9.9907,9.9907,9.9907,9.9907,9.9907,9.9907,9.9907,9.9907,9.9907,9.9907,9.9907,9.9907,9.9907,9.9907,9.9907,9.9727,9.9394,9.9727,9.9651,9.9242,9.8787,9.7799,9.6288,9.4997,9.4275,9.4161,9.3016,9.2213,9.2175,9.1497,9.1573,9.2262,9.2528,9.2946,9.3781,9.4199,9.4193,9.3889,9.3965,9.4275,9.4269,9.4275,9.4541,9.489,9.5042,9.5042,9.4928,9.4579,9.4231,9.4275,9.4776,9.5004,9.5042,9.5042,9.5042,9.5042,9.5446,9.5635,9.5711,9.578,9.597,9.6122,9.6501,9.6926,9.6956,9.6577,9.6425,9.6243,9.5757,9.5156,9.508,9.5042,9.5042,9.5042,9.508,9.5118,9.5339,9.6402,9.7268,9.7989,9.8673,9.9043,9.9309,9.9717,9.9907,9.9907,9.9907,9.9907,9.9907,9.9907,9.9907,9.9907,9.9907,9.9907,9.9907,9.9907,9.9907,9.9907,9.9907,9.9907,9.9907,9.9907,9.9907,9.9907,9.9907,9.9907,9.9907,9.9907,9.9907,9.9537,9.9271,9.9651,9.9907,9.9907,9.9907,9.9907,9.9907,9.9907,9.9907,9.9907,9.9907,9.9907,9.9907,9.9907,9.9907,9.9907,9.9907,9.9907,9.9907,9.9907,9.9613,9.9166,9.9613,9.9385,9.8483,9.7884,9.6782,9.5194,9.4047,9.3395,9.3282,9.237,9.1758,9.1682,9.1193,9.1307,9.23,9.2528,9.306,9.4237,9.4313,9.4345,9.3737,9.3889,9.3927,9.3655,9.3699,9.3933,9.4199,9.4275,9.4275,9.4313,9.4313,9.4237,9.4269,9.4617,9.5042,9.5042,9.5042,9.4845,9.4807,9.499,9.5211,9.5059,9.5173,9.54,9.5287,9.5597,9.6167,9.6129,9.6046,9.6084,9.5977,9.5415,9.5118,9.508,9.5042,9.5042,9.5042,9.5042,9.5042,9.508,9.5984,9.6433,9.7344,9.8179,9.8635,9.8816,9.9157,9.9423,9.9537,9.9764,9.9727,9.9907,9.9907,9.9907,9.9907,9.9907,9.9907,9.9907,9.9907,9.9907,9.9907,9.9907,9.9907,9.9907,9.9907,9.9907,9.9907,9.9907,9.9907,9.9907,9.9907,9.9869,9.9831,9.9679,9.984,9.9907,9.9907,9.9907,9.9907,9.9907,9.9907,9.9907,9.9907,9.9907,9.9907,9.9907,9.9907,9.9907,9.9907,9.9907,9.9907,9.9907,9.9907,9.984,9.984,9.9727,9.9119,9.7989,9.7504,9.663,9.5035,9.3516,9.2788,9.2642,9.2566,9.2376,9.2338,9.2414,9.2414,9.249,9.268,9.2832,9.3212,9.3781,9.3737,9.3775,9.4123,9.4199,9.3623,9.3585,9.3395,9.3022,9.306,9.2908,9.2908,9.3629,9.4427,9.489,9.4921,9.4997,9.5042,9.5042,9.4769,9.4117,9.4155,9.3965,9.3661,9.4041,9.4458,9.461,9.5104,9.5529,9.5605,9.5522,9.5597,9.5787,9.5301,9.508,9.5042,9.5042,9.5042,9.5042,9.5042,9.5042,9.5118,9.5498,9.5757,9.6281,9.6926,9.7496,9.8065,9.8521,9.8711,9.8976,9.928,9.9394,9.9907,9.9907,9.9907,9.9907,9.9907,9.9907,9.9907,9.9907,9.9907,9.9907,9.9869,9.9869,9.9907,9.9907,9.9907,9.9907,9.9907,9.9907,9.9907,9.9907,9.9907,9.9907,9.9907,9.9907,9.9907,9.9907,9.9907,9.9907,9.9907,9.9907,9.9907,9.9907,9.9907,9.9907,9.9907,9.9907,9.9907,9.9907,9.9869,9.9907,9.9869,9.9907,9.9907,9.9764,9.8976,9.8445,9.8255,9.6744,9.5187,9.3743,9.3402,9.3244,9.3206,9.2832,9.2528,9.2528,9.2566,9.2794,9.3206,9.3244,9.3433,9.4054,9.4389,9.4269,9.3775,9.3402,9.3402,9.3022,9.294,9.3016,9.3244,9.3705,9.3022,9.1269,9.2105,9.275,9.3516,9.4351,9.4966,9.4966,9.4959,9.4883,9.4807,9.4876,9.5142,9.4945,9.5097,9.5287,9.5294,9.5111,9.5149,9.5187,9.5187,9.5301,9.5491,9.5301,9.508,9.5042,9.5042,9.5042,9.5042,9.5042,9.5042,9.5118,9.5301,9.5673,9.5863,9.6319,9.6585,9.723,9.7884,9.7951,9.8065,9.8445,9.8825,9.9204,9.9157,9.9242,9.9157,9.9157,9.9157,9.9157,9.9204,9.9195,9.9157,9.9195,9.9423,9.9537,9.9575,9.984,9.9907,9.9831,9.9385,9.9204,9.9166,9.9119,9.9233,9.9461,9.9537,9.9689,9.9869,9.9907,9.9907,9.9907,9.9907,9.9907,9.9907,9.9907,9.9907,9.9907,9.9907,9.9907,9.9916,9.9689,9.9537,9.9537,9.9309,9.9157,9.9043,9.8225,9.7648,9.7875,9.5833,9.4275,9.3478,9.3819,9.4123,9.4003,9.3591,9.3326,9.3288,9.3288,9.3591,9.4041,9.4161,9.4427,9.4807,9.4738,9.4269,9.3737,9.3016,9.2446,9.2143,9.2105,9.2186,9.256,9.3136,9.2642,9.1009,9.1269,9.2029,9.268,9.3598,9.4206,9.4282,9.4465,9.4465,9.4427,9.4838,9.4945,9.4755,9.4983,9.5211,9.5287,9.4997,9.5042,9.5042,9.5042,9.5111,9.5187,9.5149,9.5042,9.5042,9.5042,9.5042,9.5042,9.5042,9.5042,9.5111,9.5453,9.5711,9.5825,9.6015,9.6174,9.6592,9.701,9.7116,9.7154,9.742,9.7884,9.7656,9.7732,9.7618,9.777,9.7808,9.7808,9.7694,9.777,9.7724,9.7846,9.7951,9.8445,9.8749,9.89,9.9347,9.9802,9.9461,9.8407,9.7846,9.7808,9.7732,9.8027,9.8635,9.8635,9.893,9.9537,9.9802,9.984,9.9793,9.9916,9.9907,9.9916,9.9831,9.9764,9.9831,9.9727,9.9802,9.9613,9.909,9.8749,9.8673,9.8103,9.7808,9.777,9.7458,9.704,9.6311,9.4762,9.4237,9.4814,9.4883,9.5042,9.4928,9.4852,9.4928,9.4852,9.4928,9.4966,9.5004,9.489,9.4769,9.4807,9.4199,9.3661,9.3433,9.287,9.2105,9.1492,9.1302,9.1037,9.0548,9.0548,9.0852,9.2067,9.2105,9.2181,9.2414,9.2566,9.2604,9.2832,9.3395,9.3395,9.3022,9.3623,9.4041,9.3705,9.3775,9.4231,9.4345,9.4769,9.5004,9.5042,9.5042,9.5042,9.5042,9.5042,9.5042,9.5042,9.5042,9.5042,9.5042,9.5042,9.5042,9.508,9.5377,9.5377,9.5529,9.5529,9.5643,9.5757,9.5977,9.6281,9.6395,9.6592,9.6972,9.758,9.758,9.758,9.758,9.758,9.758,9.758,9.758,9.758,9.758,9.7618,9.7799,9.7913,9.7989,9.8217,9.8331,9.8263,9.7846,9.758,9.7542,9.6926,9.6767,9.6994,9.7032,9.7146,9.745,9.7981,9.8635,9.9081,9.9651,9.9869,9.9831,9.9347,9.9166,9.9052,9.8559,9.8331,9.8293,9.8065,9.796,9.796,9.7732,9.758,9.7428,9.644,9.5681,9.5453,9.4921,9.4769,9.5004,9.5042,9.5042,9.5042,9.5042,9.5042,9.5042,9.5042,9.5042,9.5004,9.4465,9.4117,9.4079,9.3357,9.2864,9.287,9.2105,9.153,9.1264,9.1188,9.1112,9.0733,9.0282,9.0206,9.07,9.1307,9.1568,9.1649,9.2105,9.2414,9.249,9.3016,9.3471,9.3471,9.4085,9.4275,9.432,9.4434,9.4617,9.4617,9.4928,9.5042,9.5042,9.5042,9.5042,9.5042,9.5042,9.5042,9.5042,9.5042,9.5042,9.5042,9.5042,9.5042,9.5042,9.508,9.508,9.508,9.508,9.5118,9.5156,9.5415,9.5635,9.5681,9.5833,9.5908,9.6668,9.663,9.6326,9.6167,9.6167,9.6167,9.6212,9.6205,9.6516,9.6668,9.6706,9.6964,9.7078,9.704,9.6212,9.5757,9.5757,9.5757,9.5757,9.5757,9.5438,9.5476,9.5787,9.6084,9.6235,9.6311,9.685,9.7382,9.7913,9.8664,9.9043,9.8968,9.8512,9.8331,9.8217,9.7799,9.758,9.7542,9.723,9.7078,9.7078,9.682,9.6516,9.6174,9.4845,9.4168,9.4168,9.4427,9.4541,9.4579,9.4928,9.4928,9.4617,9.4541,9.4313,9.3743,9.3667,9.3553,9.3212,9.2674,9.2327,9.2289,9.1654,9.1236,9.1426,9.0852,9.0472,9.0657,9.0733,9.0353,8.9974,8.9405,8.9105,8.9139,8.9519,8.9742,9.0012,9.0624,9.1199,9.1312,9.1839,9.2484,9.2674,9.3509,9.4085,9.4206,9.4389,9.4465,9.4541,9.489,9.5042,9.5042,9.5042,9.5042,9.5042,9.5042,9.5042,9.5042,9.5042,9.5004,9.5042,9.5042,9.5042,9.5042,9.5042,9.5042,9.5042,9.5042,9.5042,9.508,9.508,9.5187,9.5042,9.5346,9.527,9.5042,9.4921,9.4117,9.3927,9.3737,9.3775,9.3655,9.3889,9.4503,9.4852,9.4921,9.5559,9.5932,9.559,9.3516,9.2452,9.249,9.2566,9.2604,9.2598,9.3168,9.4009,9.489,9.5635,9.5932,9.5742,9.5894,9.6159,9.6387,9.7192,9.758,9.7618,9.758,9.7542,9.7458,9.739,9.7428,9.72,9.6585,9.6159,9.6084,9.5491,9.4769,9.4079,9.3092,9.2908,9.287,9.332,9.3661,9.3661,9.4237,9.4313,9.3585,9.3471,9.2706,9.1454,9.1188,9.0847,9.032,9.0168,9.0092,8.9941,8.9409,8.9147,8.9751,8.9257,8.9143,8.9789,8.9789,8.9219,8.8001,8.7849,8.7735,8.7811,8.7735,8.7773,8.7735,8.8764,8.8806,8.8995,8.9561,9.0316,9.1155,9.1915,9.2604,9.2718,9.3168,9.3623,9.3737,9.4389,9.4769,9.4845,9.4921,9.5004,9.489,9.4548,9.47,9.4769,9.4693,9.4928,9.5004,9.5042,9.5042,9.5042,9.5042,9.5042,9.5042,9.5042,9.5042,9.5042,9.5042,9.5042,9.5042,9.5042,9.5042,9.5042,9.4997,9.4814,9.4313,9.3661,9.3092,9.287,9.2832,9.2408,9.2256,9.2294,9.2441,9.2251,9.1644,9.1042,9.0662,9.07,9.07,9.0743,9.07,9.0928,9.1155,9.1421,9.2175,9.2902,9.3547,9.4117,9.4983,9.6235,9.7116,9.758,9.7466,9.6926,9.6577,9.6501,9.5984,9.5764,9.5764,9.5529,9.5377,9.5339,9.5194,9.4966,9.4693,9.4427,9.4313,9.4358,9.3364,9.287,9.2832,9.192,9.1269,9.1042,9.0999,9.0814,9.0353,9.0278,9.0244,9.0016,8.9489,8.9185,8.9109,8.8346,8.7966,8.8077,8.7963,8.7963,8.819,8.8152,8.8077,8.7507,8.7507,8.7773,8.8346,8.8422,8.8422,8.8426,8.8616,8.8616,8.7966,8.8308,8.8684,9.0126,9.1459,9.211,9.1687,9.2219,9.2826,9.2902,9.3471,9.4079,9.4079,9.4655,9.451,9.344,9.3326,9.3553,9.3781,9.4041,9.4313,9.4921,9.5004,9.5042,9.4586,9.4928,9.5004,9.4693,9.489,9.5004,9.5042,9.5004,9.4966,9.4807,9.4959,9.4959,9.4009,9.4009,9.4054,9.3326,9.2219,9.1687,9.1312,9.1047,9.0776,9.0695,9.0581,8.9637,8.8953,8.8536,8.8798,8.8991,8.8991,8.8991,8.8991,8.8987,8.9333,8.9523,8.9599,9.0358,9.0776,9.1085,9.1801,9.282,9.411,9.5111,9.587,9.6402,9.606,9.5749,9.5757,9.5263,9.5042,9.5042,9.5042,9.47,9.413,9.3667,9.3433,9.3395,9.3174,9.287,9.2452,9.1882,9.135,9.0971,9.0396,9.0016,9.0016,9.0016,9.0016,8.9979,8.9713,8.9219,8.8536,8.8042,8.7666,8.7286,8.6751,8.6597,8.6938,8.7017,8.7166,8.7356,8.7166,8.6976,8.6979,8.6676,8.6676,8.7172,8.7587,8.7739,8.7814,8.8388,8.8692,8.8194,8.8346,8.8949,8.9903,9.0629,9.0548,9.0054,9.1074,9.1725,9.1573,9.2484,9.3092,9.3282,9.3667,9.3516,9.287,9.2528,9.2756,9.3054,9.3206,9.3326,9.3857,9.3971,9.4054,9.4016,9.3895,9.3895,9.4085,9.4054,9.4009,9.3978,9.4016,9.4009,9.4009,9.4009,9.4009,9.2566,9.2528,9.249,9.1459,9.013,8.9865,8.9371,8.884,8.9371,8.9637,8.9219,8.7169,8.6258,8.6296,8.6979,8.7242,8.7242,8.7242,8.7242,8.7318,8.8156,8.8616,8.8616,8.9371,8.9485,8.9223,8.9789,9.0738,9.1682,9.2332,9.3364,9.4617,9.4852,9.4814,9.4769,9.4776,9.4814,9.4814,9.4852,9.4047,9.2522,9.172,9.1302,9.1302,9.0619,8.9827,8.9451,8.9599,8.9523,8.8844,8.9295,8.9637,8.9637,8.9713,8.9751,8.9713,8.9109,8.8042,8.6676,8.641,8.6182,8.5309,8.5385,8.5726,8.641,8.5718,8.5575,8.5653,8.5478,8.4929,8.5312,8.4909,8.4721,8.4978,8.608,8.6565,8.6903,8.7932,8.8806,8.8726,8.9029,8.9789,8.9637,8.9257,8.8612,8.838,8.986,9.07,9.0434,9.1345,9.2186,9.2181,9.23,9.2262,9.2186,9.23,9.2224,9.2338,9.2414,9.2566,9.2718,9.2756,9.2566,9.3022,9.2756,9.2794,9.2718,9.2566,9.2598,9.2908,9.2832,9.2642,9.2566,9.268,9.2528,9.2528,9.2452,9.1763,9.0885,8.9903,8.865,8.7925,8.7735,8.7318,8.6751,8.6068,8.5537,8.5233,8.5271,8.542,8.5496,8.5496,8.5496,8.5537,8.5612,8.6448,8.6865,8.6982,8.7701,8.8688,8.9675,8.9903,9.0776,9.2067,9.2452,9.2756,9.306,9.3098,9.3142,9.3098,9.3098,9.3142,9.3098,9.3098,9.2908,9.2528,9.2338,9.2181,9.2181,9.2034,9.1578,9.0657,8.9637,8.8688,8.7852,8.7359,8.7131,8.7169,8.7697,8.8039,8.8039,8.789,8.7583,8.7242,8.7204,8.7128,8.69,8.69,8.6976,8.6675,8.1497,7.7798,7.797,7.8642,7.8679,7.9068,8.0821,8.2828,8.3694,8.629,8.7952,8.8232,8.8578,8.8574,8.7928,8.7925,8.8422,8.8726,8.8308,8.827,8.9029,8.9333,8.9641,8.9941,9.0244,9.0548,9.0548,9.0548,9.0662,9.0586,9.0667,9.089,9.1416,9.1454,9.1763,9.2262,9.249,9.249,9.2414,9.2452,9.2376,9.249,9.249,9.2414,9.2376,9.2338,9.2414,9.2376,9.2376,9.2148,9.0629,9.0168,8.967,8.9215,8.8764,8.7469,8.671,8.6331,8.6673,8.6559,8.6103,8.6144,8.6065,8.6065,8.5726,8.5575,8.5575,8.5575,8.5575,8.5612,8.6106,8.6486,8.6827,8.6941,8.7583,8.884,8.9257,9.0135,9.135,9.1725,9.2105,9.2528,9.2528,9.2528,9.2528,9.2528,9.2528,9.249,9.1004,9.0206,9.0206,8.9447,8.9067,8.9029,8.9029,8.865,8.7814,8.6941,8.6068,8.5193,8.4737,8.4851,8.565,8.6106,8.6673,8.7431,8.7507,8.7318,8.6979,8.6938,8.6748,8.629,8.4824,8.3455,8.2247,7.8019,7.5644,7.5859,7.5883,7.6031,7.6449,7.7841,7.984,8.2299,8.4715,8.6918,8.8466,8.9109,8.9143,8.8722,8.8608,8.884,8.9337,8.8612,8.865,8.9599,8.8915,8.8536,8.9295,8.9447,8.9561,8.9941,9.0016,9.0016,9.0016,9.0016,9.0126,9.0543,9.0619,9.0809,9.1193,9.1388,9.1345,9.1388,9.1388,9.1345,9.1345,9.1345,9.1345,9.1345,9.1345,9.1345,9.1345,9.1345,9.1042,8.8574,8.7811,8.7697,8.7659,8.7583,8.6827,8.603,8.5423,8.6597,8.7128,8.7128,8.7128,8.7128,8.709,8.641,8.6106,8.6106,8.6258,8.6296,8.6296,8.641,8.6827,8.7431,8.6786,8.6903,8.7659,8.8464,8.9261,9.0016,9.0695,9.1421,9.2067,9.2143,9.2148,9.2186,9.2186,9.2072,9.1768,8.8991,8.7583,8.7811,8.6369,8.5575,8.5347,8.5382,8.4853,8.383,8.383,8.3139,8.1685,8.1684,8.2288,8.3495,8.3644,8.4601,8.6252,8.6293,8.6103,8.5802,8.565,8.5461,8.4996,8.1927,7.822,7.4619,7.4007,7.4164,7.4692,7.3875,7.4195,7.4816,7.4636,7.6055,7.9556,8.1449,8.3563,8.6458,8.7396,8.7933,8.8679,8.9212,8.9095,8.9652,8.9371,8.9261,8.9637,8.8987,8.8156,8.8764,8.892,8.9299,8.9827,9.0016,9.0016,9.0016,9.0016,9.0016,9.0016,9.0054,9.013,9.0206,9.0206,9.0206,9.0054,9.0168,9.013,9.013,9.0016,9.0168,9.0206,9.0206,9.0168,9.0206,9.0168,9.0092,8.9713,8.9523,8.884,8.8616,8.854,8.7663,8.7207,8.6938,0.0,0.0,0.0,8.5382,8.5382,8.5385,8.5231,8.5195,8.5233,8.5914,8.6296,8.6334,8.6938,8.7318,8.7428,8.7318,8.7739,8.8578,8.8768,8.9261,8.9979,9.013,9.024,9.0434,9.0391,9.0472,9.0434,9.0434,8.9751,8.838,8.7773,8.8152,8.9485,8.9215,8.846,8.7052,8.7014,8.603,8.3868,8.3754,8.1853,7.7908,7.822,7.8072,7.7056,7.7638,7.9066,8.1168,8.0715,8.1094,8.2954,8.2537,8.3259,8.5916,8.2932,7.6799,6.7028,6.5115,6.4553,6.5229,6.5585,6.6126,6.6613,6.9247,7.1624,7.2922,7.5938,7.834,7.9597,7.9845,8.1459,8.4588,8.5342,8.6448,8.9175,8.9492,8.9865,8.9898,8.9298,8.9447,8.9071,8.9206,8.9326,8.926,8.9298,8.9889,9.0016,9.0016,9.0016,9.0016,9.0016,9.0016,9.0016,9.0016,9.0016,9.0016,9.0016,9.0016,9.0016,9.0016,9.0016,9.0016,9.0016,9.0016,9.0016,9.0016,9.0016,8.7852,0.0,8.7058,8.6906,0.0,8.6369,8.6179,8.6103,8.5309,8.4929,8.4929,8.4929,8.5233,8.5612,8.5157,8.5195,8.565,8.6106,8.6296,8.6334,8.6713,8.7131,8.7428,8.7052,8.7549,8.8806,8.8384,8.8802,8.9941,8.9641,8.9181,8.8684,8.8726,8.7393,8.5033,8.6608,8.7055,8.622,8.7052,8.7887,8.8646,8.789,8.7055,8.6258,8.622,0.0,0.0,0.0,0.0,0.0,0.0,0.0,0.0,0.0,0.0,7.6201,7.3476,7.18,7.2011,7.2009,7.2694,7.4287,7.3514,6.9589,6.1656,5.9118,5.8364,5.9158,5.9852,6.0666,6.1784,6.353,6.5965,6.9174,7.0808,7.294,7.547,7.5731,7.65,7.8858,8.117,8.2581,8.3106,8.493,8.6644,8.7055,8.7128,8.758,8.8973,8.8183,8.6061,8.3917,8.5292,8.7685,8.9511,9.0016,9.0016,9.0016,9.0016,9.0016,9.0016,9.0016,9.0016,9.0016,9.0016,9.0016,9.0016,9.0016,9.0016,9.0016,9.0016,9.0016,9.0016,9.0016,9.0016,8.5764,8.4967,8.4929,8.4929,8.4811,8.2972,8.2231,8.2191,8.2377,8.2374,8.2412,8.256,8.3366,8.449,8.3214,8.34,8.475,8.422,8.4336,8.5053,8.5244,8.5657,8.6175,8.5766,8.6258,8.7502,8.6817,8.7192,8.8511,8.8546,8.7861,8.6558,8.7138,8.5358,8.1389,0.0,0.0,0.0,8.5602,8.7469,8.7887,8.6638,8.5764,8.5461,8.5309,0.0,8.4701,8.383,8.2986,8.2168,8.0082,0.0,0.0,0.0,0.0,0.0,0.0,0.0,0.0,0.0,0.0,0.0,6.1383,5.9756,5.636,5.4606,5.3997,5.4765,5.557,5.6615,5.7825,5.7975,6.0022,6.4987,6.5027,6.6391,7.0702,7.0881,7.1187,7.2364,7.5879,7.7635,7.6497,7.9048,8.1661,8.2283,8.2753,8.4014,8.6357,8.3944,8.1,7.7741,7.9865,8.3671,8.7667,8.8817,8.9329,8.9523,8.9481,8.9485,8.9447,8.9405,8.9523,8.9447,8.9523,8.9443,8.9443,8.9675,8.9713,8.9789,8.9903,8.986,8.9387,8.9269,8.9227,8.5764,8.4967,8.4929,8.4929,8.4261,7.593,7.2425,7.2459,7.299,7.3258,7.3292,7.382,7.5837,7.8456,7.5482,7.603,7.9104,7.6556,7.7183,8.0541,8.1435,8.1832,8.1733,8.2433,8.2871,8.3051,8.2979,8.3015,8.3358,8.6209,8.6014,8.3153,8.5944,8.6808,8.5338,8.0066,7.6177,7.3925,8.2167,8.7511,8.9637,8.9485,8.865,8.7204,8.6483,8.5423,8.3982,8.2385,7.9978,7.6432,7.2655,7.0998,7.1734,6.6387,6.3733,0.0,6.179,0.0,0.0,0.0,0.0,0.0,0.0,0.0,0.0,5.1153,5.1678,5.1219,5.2607,5.3418,5.3162,5.3199,5.4304,5.699,5.7256,5.8042,6.0231,6.0863,6.2574,6.6523,6.8375,7.0579,7.2919,7.4483,7.5404,7.6068,7.6579,7.6487,7.6265,7.5746,7.5219,7.4745,7.5047,7.7483,8.1189,8.5105,8.7596,8.7683,8.7679,8.7773,8.7804,8.7804,8.7807,8.7807,8.78,8.7804,8.7811,8.8418,8.8915,8.8953,8.9325,8.9033,8.7276,8.6767,8.6613,7.7628,7.6995,7.6995,7.6015,7.42,7.0426,6.8866,6.9158,6.9455,6.9588,6.9622,6.9451,7.0442,7.2137,7.1237,7.318,7.7019,7.3998,7.445,7.7863,7.6881,7.6133,7.5713,7.6472,7.7059,7.748,7.7024,7.7266,7.8261,7.9711,8.0155,7.9662,7.9687,7.8377,7.5737,7.3204,7.2239,7.2859,7.7084,8.0298,8.2533,8.264,8.2285,8.1569,8.1214,8.0505,7.9411,7.823,7.7433,7.7081,7.2449,7.0297,7.1337,6.312,5.7797,0.0,0.0,0.0,0.0,0.0,0.0,0.0,0.0,0.0,0.0,0.0,4.7673,4.7312,5.0019,5.1358,5.0438,5.0641,5.1146,5.2006,5.1675,5.1989,5.3558,5.443,5.5484,5.7193,6.1133,6.3784,6.3865,6.669,6.9253,7.0675,6.7584,6.4831,6.4273,6.7524,6.8972,6.6825,7.0619,7.4238,7.3797,7.9047,8.3039,8.3201,8.47,8.6102,8.6102,8.606,8.6102,8.606,8.6102,8.6189,8.6604,8.7108,8.7501,8.7751,8.7297,8.6376,8.5624,8.5438,8.5649,6.974,6.8802,6.6365,6.4276,6.262,6.3138,6.3896,6.46,6.4982,6.4807,6.4298,6.4678,6.4354,6.3772,6.4383,6.7505,7.2282,6.8924,6.9672,7.335,7.1657,7.0493,7.0,7.0691,7.1374,7.2006,7.0982,7.1384,7.306,7.2974,7.3347,7.3898,7.0924,6.7919,6.527,6.6226,6.8361,7.1498,7.2999,7.4644,7.6414,7.669,7.6791,7.6791,7.6499,7.5964,7.5279,7.42,7.4874,7.7276,7.1299,6.8796,7.0873,6.025,0.0,0.0,0.0,0.0,0.0,0.0,0.0,0.0,0.0,4.0774,3.8166,0.0,4.4077,0.0,4.7285,4.8735,4.8012,4.7941,0.0,0.0,4.7498,4.74,4.8917,4.9802,5.0122,4.9781,5.4594,5.7158,5.4885,5.8643,6.2169,6.3614,5.91,5.5459,5.52,6.0236,6.2451,5.959,6.4133,6.8318,6.7095,7.144,7.5479,7.6957,8.0184,8.2565,8.2565,8.3221,8.3834,8.3798,8.3798,8.4003,8.4467,8.485,8.5063,8.499,8.3496,8.2279,8.303,8.3146,8.3375,6.5708,6.3665,5.4281,5.1137,5.2312,5.2385,5.3348,5.4883,5.6312,5.5629,5.3667,5.7206,5.5982,5.1279,5.116,0.0,6.0495,5.7181,5.9049,6.497,6.5619,6.5741,6.5502,6.6396,6.7082,6.7552,6.557,6.5702,6.7643,6.7916,6.6768,6.4241,5.9785,5.805,5.9068,6.0959,6.3304,6.5954,7.1557,7.4911,7.5704,7.6414,7.6791,7.6672,7.5529,7.4418,7.3813,7.1798,7.1839,7.3959,6.5285,6.2336,6.6605,0.0,0.0,0.0,0.0,0.0,0.0,0.0,0.0,0.0,0.0,0.0,0.0,0.0,0.0,4.3992,4.4106,0.0,4.5457,4.4201,0.0,0.0,0.0,4.4598,4.6365,4.7015,4.7369,4.7353,0.0,0.0,5.0142,5.187,5.314,5.3311,5.3754,5.3812,5.337,5.4756,5.5284,5.4068,5.4446,5.6202,6.0114,6.2005,6.4936,6.9564,7.3482,7.5637,7.5877,7.8022,8.02,8.0273,8.0401,8.0477,8.0519,8.1109,8.1004,7.9056,7.7843,7.7294,7.814,7.8389,7.8713,5.462,5.0362,4.6404,4.5346,4.6357,4.6815,4.8397,5.0612,5.1281,5.0948,5.0052,5.1163,4.9957,4.7052,4.6444,0.0,0.0,0.0,5.3298,5.9331,5.8558,5.8626,5.9598,6.0803,6.1442,6.1609,6.0831,6.086,6.1678,6.2454,5.9397,5.2721,0.0,0.0,5.1345,5.4434,5.7482,6.0448,6.4286,6.6998,6.8417,6.8369,6.832,6.8289,6.7009,6.5972,6.5342,6.4183,6.3908,6.4537,5.829,5.5139,0.0,0.0,0.0,0.0,0.0,0.0,0.0,0.0,0.0,0.0,0.0,3.6135,3.4133,0.0,0.0,0.0,3.9521,3.9912,4.1111,4.2403,0.0,0.0,0.0,0.0,0.0,0.0,0.0,4.2429,4.5422,4.7681,4.8019,4.8009,4.8138,4.8512,4.899,4.9302,4.9432,0.0,5.2304,5.2459,5.2485,5.3324,5.5746,5.572,5.6816,6.1218,6.5422,6.8112,6.8294,6.9834,7.1973,7.3661,7.4206,7.4989,7.7436,7.6856,7.572,7.5015,7.4851,7.4976,7.5323,7.5775,7.612,4.5038,0.0,0.0,0.0,0.0,4.2424,4.4093,4.6431,4.6631,4.6351,4.5721,4.6134,0.0,0.0,0.0,0.0,0.0,0.0,4.8644,5.306,5.3449,5.3839,5.4425,5.5777,5.6383,5.6393,5.5516,5.5289,5.5733,5.5883,5.2082,4.4789,0.0,0.0,0.0,0.0,5.2692,5.5983,5.8802,6.1232,6.3161,6.272,6.2534,6.2492,6.107,6.0018,5.9392,5.7756,5.7148,5.7452,5.1954,0.0,0.0,0.0,0.0,0.0,0.0,0.0,0.0,0.0,0.0,0.0,0.0,0.0,0.0,0.0,0.0,0.0,0.0,0.0,3.7682,4.0068,4.0716,0.0,0.0,0.0,0.0,0.0,0.0,0.0,0.0,0.0,4.5058,4.4894,4.511,0.0,0.0,4.6989,4.7032,4.8756,5.0108,5.0408,5.0434,0.0,5.1563,5.0901,5.126,5.4024,5.7505,6.0249,6.0987,6.236,6.4132,6.6413,6.7999,6.9036,6.9968,6.8497,6.7446,6.7701,6.8077,6.8521,6.9028,6.9503,6.983,0.0,0.0,0.0,0.0,0.0,0.0,0.0,0.0,4.2025,4.1044,0.0,4.2153,0.0,0.0,0.0,0.0,0.0,4.2486,0.0,0.0,5.1069,5.2618,5.0662,5.1726,5.2346,5.2251,4.9362,4.8595,4.9747,4.7656,0.0,0.0,0.0,0.0,0.0,0.0,4.9484,5.3329,5.6905,5.9768,6.1796,6.1838,6.1838,6.1781,6.0087,5.8817,5.8037,5.406,5.2944,5.5184,4.6715,0.0,0.0,0.0,0.0,0.0,0.0,0.0,0.0,0.0,0.0,0.0,0.0,0.0,0.0,0.0,0.0,0.0,0.0,0.0,0.0,3.659,0.0,0.0,0.0,0.0,0.0,0.0,0.0,0.0,0.0,0.0,4.0674,4.2279,4.4005,4.518,0.0,0.0,0.0,0.0,4.8299,4.679,4.6478,4.6495,4.6608,4.7343,4.8184,4.8949,0.0,0.0,5.4422,5.6776,5.8319,5.8503,6.2282,6.3354,5.6254,5.5224,5.5319,5.5698,5.6117,5.6071,5.7246,5.8399,5.842,0.0,0.0,0.0,0.0,0.0,0.0,0.0,0.0,0.0,3.6476,0.0,3.6616,0.0,0.0,0.0,0.0,0.0,0.0,0.0,0.0,4.3262,4.4995,4.5699,4.7049,4.77,0.0,4.659,4.4026,0.0,0.0,0.0,0.0,0.0,0.0,0.0,0.0,4.7951,5.0144,5.4431,5.7883,6.0273,5.904,5.9103,6.0448,5.8645,5.6372,5.3845,5.0768,4.8194,0.0,0.0,0.0,0.0,0.0,0.0,0.0,0.0,0.0,0.0,0.0,0.0,0.0,0.0,0.0,0.0,0.0,0.0,0.0,0.0,0.0,0.0,0.0,3.519,0.0,0.0,0.0,0.0,0.0,0.0,0.0,0.0,0.0,3.8623,3.9834,4.1625,4.3824,4.4598,4.5274,4.6365,0.0,0.0,0.0,0.0,0.0,0.0,0.0,4.4998,4.4884,4.523,4.6021,4.7751,4.8966,5.0443,5.2556,0.0,0.0,4.8259,5.034,5.2803,5.2488,5.2549,5.2866,5.3533,5.3786,5.4073,0.0,0.0,0.0,0.0,0.0,0.0,0.0,0.0,0.0,3.1787,3.1556,0.0,0.0,0.0,0.0,0.0,0.0,0.0,0.0,0.0,0.0,0.0,4.105,4.2401,0.0,0.0,0.0,0.0,0.0,0.0,0.0,0.0,0.0,0.0,0.0,0.0,4.6448,4.8216,5.2523,5.5999,5.8215,5.6947,5.6857,5.8128,5.6833,5.4497,5.0945,0.0,0.0,0.0,0.0,0.0,0.0,0.0,0.0,0.0,0.0,0.0,0.0,0.0,0.0,0.0,0.0,0.0,0.0,0.0,0.0,0.0,0.0,0.0,0.0,0.0,3.2693,0.0,0.0,0.0,0.0,0.0,0.0,0.0,0.0,0.0,0.0,0.0,3.926,4.1547,4.2695,4.3896,4.5464,4.5854,4.6175,0.0,0.0,0.0,0.0,0.0,0.0,0.0,0.0,0.0,0.0,0.0,0.0,0.0,0.0,4.3377,4.0996,4.3611,4.612,4.5794,0.0,0.0,0.0,0.0,0.0,0.0,0.0,0.0,0.0,0.0,0.0,0.0,0.0,0.0,0.0,0.0,0.0,0.0,2.5717,0.0,0.0,0.0,0.0,0.0,0.0,0.0,0.0,0.0,0.0,0.0,0.0,0.0,0.0,0.0,0.0,0.0,0.0,0.0,0.0,0.0,0.0,4.4755,4.7304,5.128,5.4092,5.5551,5.5457,5.5197,5.4862,5.483,5.32,4.9595,0.0,0.0,0.0,0.0,0.0,0.0,0.0,0.0,0.0,0.0,0.0,0.0,0.0,0.0,0.0,0.0,0.0,0.0,0.0,0.0,0.0,0.0,0.0,0.0,0.0,0.0,2.9672,3.1265,3.2982,0.0,0.0,0.0,0.0,0.0,0.0,0.0,0.0,0.0,0.0,4.1895,4.4397,4.4501,4.4954,4.5276,4.5336,4.4824,4.465,4.5128,4.5741,4.5793,0.0,0.0,0.0,0.0,0.0,0.0,0.0,0.0,0.0,0.0,0.0,0.0,0.0,0.0,0.0,0.0,0.0,0.0,0.0,0.0,0.0,0.0,0.0,0.0,0.0,0.0,0.0,0.0,0.0,0.0,0.0,0.0,0.0,0.0,0.0,0.0,0.0,0.0,0.0,0.0,0.0,0.0,0.0,0.0,0.0,0.0,0.0,0.0,0.0,0.0,0.0,0.0,0.0,0.0,4.2771,4.4689,4.8692,5.1833,5.4066,5.2312,5.2234,5.3982,5.2031,4.9853,0.0,0.0,0.0,0.0,0.0,0.0,0.0,0.0,0.0,0.0,0.0,0.0,0.0,0.0,0.0,0.0,0.0,0.0,0.0,0.0,0.0,0.0,0.0,0.0,0.0,0.0,0.0,0.0,3.3526,3.3501,3.3059,0.0,0.0,0.0,0.0,0.0,0.0,0.0,0.0,0.0,0.0,4.2051,4.3604,4.4364,4.4728,4.4787,4.4234,4.3727,4.3552,4.3993,4.3708,4.1791,0.0,0.0,0.0,0.0,0.0,0.0,0.0,0.0,0.0,0.0,0.0,0.0,0.0,0.0,0.0,0.0,0.0,0.0,0.0,0.0,0.0,0.0,0.0,0.0,0.0,0.0,0.0,0.0,0.0,0.0,0.0,0.0,0.0,0.0,0.0,0.0,0.0,0.0,0.0,0.0,0.0,0.0,0.0,0.0,0.0,0.0,0.0,0.0,0.0,0.0,0.0,0.0,0.0,4.1832,4.3571,4.7515,5.0463,5.219,5.0515,5.0322,5.1884,4.9652,4.732,0.0,0.0,0.0,0.0,0.0,0.0,0.0,0.0,0.0,0.0,0.0,0.0,0.0,0.0,0.0,0.0,0.0,0.0,0.0,0.0,0.0,0.0,0.0,0.0,0.0,0.0,0.0,0.0,3.1917,3.2095,3.1554,0.0,0.0,0.0,0.0,0.0,0.0,0.0,0.0,0.0,0.0,3.923,4.1552,4.2825,0.0,0.0,4.3324,4.2876,4.2779,4.3428,4.3091,4.0652,4.0024,0.0,0.0,0.0,0.0,0.0,0.0,0.0,0.0,0.0,0.0,0.0,0.0,0.0,0.0,0.0,0.0,0.0,0.0,0.0,0.0,0.0,0.0,0.0,0.0,0.0,0.0,0.0,0.0,0.0,0.0,0.0,0.0,0.0,0.0,0.0,0.0,0.0,0.0,0.0,0.0,0.0,0.0,0.0,0.0,0.0,0.0,0.0,0.0,0.0,0.0,0.0,0.0,0.0,4.3578,4.7412,4.9785,5.0483,4.981,4.9213,4.873,4.7613,4.5391,0.0,0.0,0.0,0.0,0.0,0.0,0.0,0.0,0.0,0.0,0.0,0.0,0.0,0.0,0.0,0.0,0.0,0.0,0.0,0.0,0.0,0.0,0.0,0.0,0.0,0.0,0.0,0.0,0.0,0.0,0.0,0.0,0.0,0.0,0.0,0.0,0.0,0.0,0.0,0.0,0.0,3.6321,3.8788,4.07,4.2004,0.0,0.0,4.201,4.2363,4.3402,4.3227,4.0366,0.0,0.0,0.0,0.0,0.0,0.0,0.0,0.0,0.0,0.0,0.0,0.0,0.0,0.0,0.0,0.0,0.0,0.0,0.0,0.0,0.0,0.0,0.0,0.0,0.0,0.0,0.0,0.0,0.0,0.0,0.0,0.0,0.0,0.0,0.0,0.0,0.0,0.0,0.0,0.0,0.0,0.0,0.0,0.0,0.0,0.0,0.0,0.0,0.0,0.0,0.0,0.0,0.0,0.0,4.2954,4.6452,4.8969,5.0394,4.9021,4.818,4.8009,4.5804,0.0,0.0,0.0,0.0,0.0,0.0,0.0,0.0,0.0,0.0,0.0,0.0,0.0,0.0,0.0,0.0,0.0,0.0,0.0,0.0,0.0,0.0,0.0,0.0,0.0,0.0,0.0,2.3321,0.0,0.0,0.0,0.0,0.0,0.0,0.0,0.0,0.0,0.0,0.0,0.0,0.0,0.0,3.6375,3.7885,3.9163,4.0176,0.0,0.0,4.0288,3.914,4.0258,4.018,0.0,0.0,0.0,0.0,0.0,0.0,0.0,0.0,0.0,0.0,0.0,0.0,0.0,0.0,0.0,0.0,0.0,0.0,0.0,0.0,0.0,0.0,0.0,0.0,0.0,0.0,0.0,0.0,0.0,0.0,0.0,0.0,0.0,0.0,0.0,0.0,0.0,0.0,0.0,0.0,0.0,0.0,0.0,0.0,0.0,0.0,0.0,0.0,0.0,0.0,0.0,0.0,0.0,0.0,3.9185,4.1994,4.4869,4.7473,4.9651,4.8476,4.7687,4.749,4.4539,4.1988,0.0,0.0,0.0,0.0,0.0,0.0,0.0,0.0,0.0,0.0,0.0,0.0,0.0,0.0,0.0,0.0,0.0,0.0,0.0,0.0,0.0,0.0,0.0,0.0,0.0,0.0,0.0,0.0,0.0,0.0,0.0,0.0,0.0,0.0,0.0,0.0,0.0,0.0,0.0,0.0,0.0,0.0,3.6639,3.7213,0.0,0.0,0.0,3.8776,3.7871,0.0,0.0,0.0,0.0,0.0,0.0,0.0,0.0,0.0,0.0,0.0,0.0,0.0,0.0,0.0,0.0,0.0,0.0,0.0,0.0,0.0,0.0,0.0,0.0,0.0,0.0,0.0,0.0,0.0,0.0,0.0,0.0,0.0,0.0,0.0,0.0,0.0,0.0,0.0,0.0,0.0,0.0,0.0,0.0,0.0,0.0,0.0,0.0,0.0,0.0,0.0,0.0,0.0,0.0,0.0,0.0,0.0,4.0955,4.3246,4.5828,4.86,4.8122,4.749,4.6928,4.3799,4.1141,0.0,0.0,0.0,0.0,0.0,0.0,0.0,0.0,0.0,0.0,0.0,0.0,0.0,0.0,0.0,0.0,0.0,0.0,0.0,0.0,0.0,0.0,0.0,0.0,0.0,0.0,0.0,0.0,0.0,0.0,0.0,0.0,0.0,0.0,0.0,0.0,0.0,0.0,0.0,0.0,0.0,3.1551,3.5312,3.5267,3.4851,0.0,0.0,3.7297,3.7325,3.7633,0.0,0.0,0.0,0.0,0.0,0.0,0.0,0.0,0.0,0.0,0.0,0.0,0.0,0.0,0.0,0.0,0.0,0.0,0.0,0.0,0.0,0.0,0.0,0.0,0.0,0.0,0.0,0.0,0.0,0.0,0.0,0.0,0.0,0.0,0.0,0.0,0.0,0.0,0.0,0.0,0.0,0.0,0.0,0.0,0.0,0.0,0.0,0.0,0.0,0.0,0.0,0.0,0.0,0.0,0.0,0.0,4.0924,4.2792,4.537,4.8574,4.7759,4.6954,4.6391,4.3981,4.1141,0.0,0.0,0.0,0.0,0.0,0.0,0.0,0.0,0.0,0.0,0.0,0.0,0.0,0.0,0.0,0.0,0.0,0.0,0.0,0.0,0.0,0.0,0.0,0.0,0.0,0.0,0.0,0.0,0.0,0.0,0.0,0.0,0.0,0.0,0.0,0.0,0.0,0.0,0.0,0.0,0.0,3.0679,3.4616,3.4332,0.0,0.0,0.0,0.0,3.4904,3.4644,0.0,0.0,0.0,0.0,0.0,0.0,0.0,0.0,0.0,0.0,0.0,0.0,0.0,0.0,0.0,0.0,0.0,0.0,0.0,0.0,0.0,0.0,0.0,0.0,0.0,0.0,0.0,0.0,0.0,0.0,0.0,0.0,0.0,0.0,0.0,0.0,0.0,0.0,0.0,0.0,0.0,0.0,0.0,0.0,0.0,0.0,0.0,0.0,0.0,0.0,0.0,0.0,0.0,0.0,0.0,0.0,3.9296,4.0794,4.3474,4.7414,4.6668,4.6097,4.5793,4.3266,4.0435,0.0,0.0,0.0,0.0,0.0,0.0,0.0,0.0,0.0,0.0,0.0,0.0,0.0,0.0,0.0,0.0,0.0,0.0,0.0,0.0,0.0,0.0,0.0,0.0,0.0,0.0,0.0,0.0,0.0,0.0,0.0,0.0,0.0,0.0,0.0,0.0,0.0,0.0,0.0,0.0,2.8218,2.9572,3.2042,0.0,0.0,0.0,0.0,0.0,0.0,3.3316,3.2745,0.0,0.0,0.0,0.0,0.0,0.0,0.0,0.0,0.0,0.0,0.0,0.0,0.0,0.0,0.0,0.0,0.0,0.0,0.0,0.0,0.0,0.0,0.0,0.0,0.0,0.0,0.0,0.0,0.0,0.0,0.0,0.0,0.0,0.0,0.0,0.0,0.0,0.0,0.0,0.0,0.0,0.0,0.0,0.0,0.0,0.0,0.0,0.0,0.0,0.0,0.0,0.0,0.0,0.0,0.0,3.7347,3.8516,4.1209,4.5664,4.5284,4.5016,4.5076,4.2377,3.9523,3.6693,0.0,0.0,0.0,0.0,0.0,0.0,0.0,0.0,0.0,0.0,0.0,0.0,0.0,0.0,0.0,0.0,0.0,0.0,0.0,0.0,0.0,0.0,0.0,0.0,0.0,0.0,0.0,0.0,0.0,0.0,0.0,0.0,0.0,0.0,0.0,0.0,0.0,0.0,0.0,2.6661,2.7909,0.0,0.0,0.0,0.0,0.0,0.0,0.0,0.0,3.1577,0.0,0.0,0.0,0.0,0.0,0.0,0.0,0.0,0.0,0.0,0.0,0.0,0.0,0.0,0.0,0.0,0.0,0.0,0.0,0.0,0.0,0.0,0.0,0.0,0.0,0.0,0.0,0.0,0.0,0.0,0.0,0.0,0.0,0.0,0.0,0.0,0.0,0.0,0.0,0.0,0.0,0.0,0.0,0.0,0.0,0.0,0.0,0.0,0.0,0.0,0.0,0.0,0.0,0.0,0.0,0.0,3.7375,3.9894,4.3727,4.3856,4.4097,4.4546,4.1843,3.901,3.6176,0.0,0.0,0.0,0.0,0.0,0.0,0.0,0.0,0.0,0.0,0.0,0.0,0.0,0.0,0.0,0.0,0.0,0.0,0.0,0.0,0.0,0.0,0.0,0.0,0.0,0.0,0.0,0.0,0.0,0.0,0.0,0.0,0.0,0.0,0.0,0.0,0.0,0.0,1.9142,2.1475,0.0,0.0,0.0,0.0,0.0,0.0,0.0,0.0,3.02,0.0,0.0,0.0,0.0,0.0,0.0,0.0,0.0,0.0,0.0,0.0,0.0,0.0,0.0,0.0,0.0,0.0,0.0,0.0,0.0,0.0,0.0,0.0,0.0,0.0,0.0,0.0,0.0,0.0,0.0,0.0,0.0,0.0,0.0,0.0,0.0,0.0,0.0,0.0,0.0,0.0,0.0,0.0,0.0,0.0,0.0,0.0,0.0,0.0,0.0,0.0,0.0,0.0,0.0,0.0,0.0,0.0,0.0,3.8669,4.1687,4.204,4.2643,4.3376,3.9946,3.7191,0.0,0.0,0.0,0.0,0.0,0.0,0.0,0.0,0.0,0.0,0.0,0.0,0.0,0.0,0.0,0.0,0.0,0.0,0.0,0.0,0.0,0.0,0.0,0.0,0.0,0.0,0.0,0.0,0.0,0.0,0.0,0.0,0.0,0.0,0.0,0.0,0.0,0.0,0.0,0.0,0.0,0.0,0.0,0.0,0.0,0.0,0.0,0.0,0.0,0.0,0.0,0.0,0.0,0.0,0.0,0.0,0.0,0.0,0.0,0.0,0.0,0.0,0.0,0.0,0.0,0.0,0.0,0.0,0.0,0.0,0.0,0.0,0.0,0.0,0.0,0.0,0.0,0.0,0.0,0.0,0.0,0.0,0.0,0.0,0.0,0.0,0.0,0.0,0.0,0.0,0.0,0.0,0.0,0.0,0.0,0.0,0.0,0.0,0.0,0.0,0.0,0.0,0.0,0.0,0.0,0.0,0.0,0.0,3.7475,3.9634,4.0466,4.1344,4.2331,3.7971,3.5215,0.0,0.0,0.0,0.0,0.0,0.0,0.0,0.0,0.0,0.0,0.0,0.0,0.0,0.0,0.0,0.0,0.0,0.0,0.0,0.0,0.0,0.0,0.0,0.0,0.0,0.0,0.0,0.0,0.0,0.0,0.0,0.0,0.0,0.0,0.0,0.0,0.0,0.0,0.0,0.0,0.0,0.0,0.0,0.0,0.0,0.0,0.0,0.0,2.7425,0.0,0.0,0.0,0.0,0.0,0.0,0.0,0.0,0.0,0.0,0.0,0.0,0.0,0.0,0.0,0.0,0.0,0.0,0.0,0.0,0.0,0.0,0.0,0.0,0.0,0.0,0.0,0.0,0.0,0.0,0.0,0.0,0.0,0.0,0.0,0.0,0.0,0.0,0.0,0.0,0.0,0.0,0.0,0.0,0.0,0.0,0.0,0.0,0.0,0.0,0.0,0.0,0.0,0.0,0.0,0.0,0.0,0.0,0.0,3.6071,3.7947,3.9478,4.0596,4.1059,3.6801,3.3865,0.0,0.0,0.0,0.0,0.0,0.0,0.0,0.0,0.0,0.0,0.0,0.0,0.0,0.0,0.0,0.0,0.0,0.0,0.0,0.0,0.0,0.0,0.0,0.0,0.0,0.0,0.0,0.0,0.0,0.0,0.0,0.0,0.0,0.0,0.0,0.0,0.0,0.0,0.0,0.0,0.0,0.0,0.0,0.0,0.0,0.0,0.0,0.0,0.0,0.0,0.0,0.0,0.0,0.0,0.0,0.0,0.0,0.0,0.0,0.0,0.0,0.0,0.0,0.0,0.0,0.0,0.0,0.0,0.0,0.0,0.0,0.0,0.0,0.0,0.0,0.0,0.0,0.0,0.0,0.0,0.0,0.0,0.0,0.0,0.0,0.0,0.0,0.0,0.0,0.0,0.0,0.0,0.0,0.0,0.0,0.0,0.0,0.0,0.0,0.0,0.0,0.0,0.0,0.0,0.0,0.0,0.0,0.0,3.4384,3.607,3.7499,3.7453,3.5859,3.4097,3.2851,0.0,0.0,0.0,0.0,0.0,0.0,0.0,0.0,0.0,0.0,0.0,0.0,0.0,0.0,0.0,0.0,0.0,0.0,0.0,0.0,0.0,0.0,0.0,0.0,0.0,0.0,0.0,0.0,0.0,0.0,0.0,0.0,0.0,0.0,0.0,0.0,0.0,0.0,0.0,0.0,0.0,0.0,0.0,0.0,0.0,0.0,0.0,0.0,0.0,0.0,0.0,0.0,0.0,0.0,0.0,0.0,0.0,0.0,0.0,0.0,0.0,0.0,0.0,0.0,0.0,0.0,0.0,0.0,0.0,0.0,0.0,0.0,0.0,0.0,0.0,0.0,0.0,0.0,0.0,0.0,0.0,0.0,0.0,0.0,0.0,0.0,0.0,0.0,0.0,0.0,0.0,0.0,0.0,0.0,0.0,0.0,0.0,0.0,0.0,0.0,0.0,0.0,0.0,0.0,0.0,0.0,0.0,0.0,0.0,3.356,3.4615,3.3834,3.1185,3.1665,3.1341,0.0,0.0,0.0,0.0,0.0,0.0,0.0,0.0,0.0,0.0,0.0,0.0,0.0,0.0,0.0,0.0,0.0,0.0,0.0,0.0,0.0,0.0,0.0,0.0,0.0,0.0,0.0,0.0,0.0,0.0,0.0,0.0,0.0,0.0,0.0,0.0,0.0,0.0,0.0,0.0,0.0,0.0,0.0,0.0,0.0,0.0,0.0,0.0,0.0,0.0,0.0,0.0,0.0,0.0,0.0,0.0,0.0,0.0,0.0,0.0,0.0,0.0,0.0,0.0,0.0,0.0,0.0,0.0,0.0,0.0,0.0,0.0,0.0,0.0,0.0,0.0,0.0,0.0,0.0,0.0,0.0,0.0,0.0,0.0,0.0,0.0,0.0,0.0,0.0,0.0,0.0,0.0,0.0,0.0,0.0,0.0,0.0,0.0,0.0,0.0,0.0,0.0,0.0,0.0,0.0,0.0,0.0,0.0,0.0,2.9867,3.0634,3.0223,2.8509,2.993,2.8986,0.0,0.0,0.0,0.0,0.0,0.0,0.0,0.0,0.0,0.0,0.0,0.0,0.0,0.0,0.0,0.0,0.0,0.0,0.0,0.0,0.0,0.0,0.0,0.0,0.0,0.0,0.0,0.0,0.0,0.0,0.0,0.0,0.0,0.0,0.0,0.0,0.0,0.0,0.0,0.0,0.0,0.0,0.0,0.0,0.0,0.0,0.0,0.0,0.0,0.0,0.0,0.0,0.0,0.0,0.0,0.0,0.0,0.0,0.0,0.0,0.0,0.0,0.0,0.0,0.0,0.0,0.0,0.0,0.0,0.0,0.0,0.0,0.0,0.0,0.0,0.0,0.0,0.0,0.0,0.0,0.0,0.0,0.0,0.0,0.0,0.0,0.0,0.0,0.0,0.0,0.0,0.0,0.0,0.0,0.0,0.0,0.0,0.0,0.0,0.0,0.0,0.0,0.0,0.0,0.0,0.0,0.0,0.0,0.0,2.6042,2.7305,2.7515,2.6527,2.6779,2.674,2.6406,0.0,0.0,0.0,0.0,0.0,0.0,0.0,0.0,0.0,0.0,0.0,0.0,0.0,0.0,0.0,0.0,0.0,0.0,0.0,0.0,0.0,0.0,0.0,0.0,0.0,0.0,0.0,0.0,0.0,0.0,0.0,0.0,0.0,0.0,0.0,0.0,0.0,0.0,0.0,0.0,0.0,0.0,0.0,0.0,0.0,0.0,0.0,0.0,0.0,0.0,0.0,0.0,0.0,0.0,0.0,0.0,0.0,0.0,0.0,0.0,0.0,0.0,0.0,0.0,0.0,0.0,0.0,0.0,0.0,0.0,0.0,0.0,0.0,0.0,0.0,0.0,0.0,0.0,0.0,0.0,0.0,0.0,0.0,0.0,0.0,0.0,0.0,0.0,0.0,0.0,0.0,0.0,0.0,0.0,0.0,0.0,0.0,0.0,0.0,0.0,0.0,0.0,0.0,0.0,0.0,0.0,0.0,0.0,2.1732,2.3445,2.3974,2.3098,2.3264,2.3626,0.0,0.0,0.0,0.0,0.0,0.0,0.0,0.0,0.0,0.0,0.0,0.0,0.0,0.0,0.0,0.0,0.0,0.0,0.0,0.0,0.0,0.0,0.0,0.0,0.0,0.0,0.0,0.0,0.0,0.0,0.0,0.0,0.0,0.0,0.0,0.0,0.0,0.0,0.0,0.0,0.0,0.0,0.0,0.0,0.0,0.0,0.0,0.0,0.0,0.0,0.0,0.0,0.0,0.0,0.0,0.0,0.0,0.0,0.0,0.0,0.0,0.0,0.0,0.0,0.0,0.0,0.0,0.0,0.0,0.0,0.0,0.0,0.0,0.0,0.0,0.0,0.0,0.0,0.0,0.0,0.0,0.0,0.0,0.0,0.0,0.0,0.0,0.0,0.0,0.0,0.0,0.0,0.0,0.0,0.0,0.0,0.0,0.0,0.0,0.0,0.0,0.0,0.0,0.0,0.0,0.0,0.0,0.0,1.633,1.7299,1.9064,1.9436,1.7893,1.9653,1.9447,0.0,0.0,0.0,0.0,0.0,0.0,0.0,0.0,0.0,0.0,0.0,0.0,0.0,0.0,0.0,0.0,0.0,0.0,0.0,0.0,0.0,0.0,0.0,0.0,0.0,0.0,0.0,0.0,0.0,0.0,0.0,0.0,0.0,0.0,0.0,0.0,0.0,0.0,0.0,0.0,0.0,0.0,0.0,0.0,0.0,0.0,0.0,0.0,0.0,0.0,0.0,0.0,0.0,0.0,0.0,0.0,0.0,0.0,0.0,0.0,0.0,0.0,0.0,0.0,0.0,0.0,0.0,0.0,0.0,0.0,0.0,0.0,0.0,0.0,0.0,0.0,0.0,0.0,0.0,0.0,0.0,0.0,0.0,0.0,0.0,0.0,0.0,0.0,0.0,0.0,0.0,0.0,0.0,0.0,0.0,0.0,0.0,0.0,0.0,0.0,0.0,0.0,0.0,0.0,0.0,0.0,0.0,0.0,0.0,1.8452,0.0,1.808,0.0,1.8971,1.9307,0.0,0.0,0.0,0.0,0.0,0.0,0.0,0.0,0.0,0.0,0.0,0.0,0.0,0.0,0.0,0.0,0.0,0.0,0.0,0.0,0.0,0.0,0.0,0.0,0.0,0.0,0.0,0.0,0.0,0.0,0.0,0.0,0.0,0.0,0.0,0.0,0.0,0.0,0.0,0.0,0.0,0.0,0.0,0.0,0.0,0.0,0.0,0.0,0.0,0.0,0.0,0.0,0.0,0.0,0.0,0.0,0.0,0.0,0.0,0.0,0.0,0.0,0.0,0.0,0.0,0.0,0.0,0.0,0.0,0.0,0.0,0.0,0.0,0.0,0.0,0.0,0.0,0.0,0.0,0.0,0.0,0.0,0.0,0.0,0.0,0.0,0.0,0.0,0.0,0.0,0.0,0.0,0.0,0.0,0.0,0.0,0.0,0.0,0.0,0.0,0.0,0.0,0.0,0.0,0.0,0.0,0.0,0.0,0.0,1.6275,1.5316,1.536,1.6513,1.6277,1.6675,0.0,0.0,0.0,0.0,0.0,0.0,0.0,0.0,0.0,0.0,0.0,0.0,0.0,0.0,0.0,0.0,0.0,0.0,0.0,0.0,0.0,0.0,0.0,0.0,0.0,0.0,0.0,0.0,0.0,0.0,0.0,0.0,0.0,0.0,0.0,0.0,0.0,0.0,0.0,0.0,0.0,0.0,0.0,0.0,0.0,0.0,0.0,0.0,0.0,0.0,0.0,0.0,0.0,0.0,0.0,0.0,0.0,0.0,0.0,0.0,0.0,0.0,0.0,0.0,0.0,0.0,0.0,0.0,0.0,0.0,0.0,0.0,0.0,0.0,0.0,0.0,0.0,0.0,0.0,0.0,0.0,0.0,0.0,0.0,0.0,0.0,0.0,0.0,0.0,0.0,0.0,0.0,0.0,0.0,0.0,0.0,0.0,0.0,0.0,0.0,0.0,0.0,0.0,0.0,0.0,0.0,0.0,0.0,0.0,0.0,1.136,1.1462,1.1942,1.189,1.2002,0.0,0.0,0.0,0.0,0.0,0.0,0.0,0.0,0.0,0.0,0.0,0.0,0.0,0.0,0.0,0.0,0.0,0.0,0.0,0.0,0.0,0.0,0.0,0.0,0.0,0.0,0.0,0.0,0.0,0.0,0.0,0.0,0.0,0.0,0.0,0.0,0.0,0.0,0.0,0.0,0.0,0.0,0.0,0.0,0.0,0.0,0.0,0.0,0.0,0.0,0.0,0.0,0.0,0.0,0.0,0.0,0.0,0.0,0.0,0.0,0.0,0.0,0.0,0.0,0.0,0.0,0.0,0.0,0.0,0.0,0.0,0.0,0.0,0.0,0.0,0.0,0.0,0.0,0.0,0.0,0.0,0.0,0.0,0.0,0.0,0.0,0.0,0.0,0.0,0.0,0.0,0.0,0.0,0.0,0.0,0.0,0.0,0.0,0.0,0.0,0.0,0.0,0.0,0.0,0.0,0.0,0.0,0.0,0.0,0.0,1.1383,0.0,1.12,1.2331,1.3016,1.3028,0.0,0.0,0.0,0.0,0.0,0.0,0.0,0.0,0.0,0.0,0.0,0.0,0.0,0.0,0.0,0.0,0.0,0.0,0.0,0.0,0.0,0.0,0.0,0.0,0.0,0.0,0.0,0.0,0.0,0.0,0.0,0.0,0.0,0.0,0.0,0.0,0.0,0.0,0.0,0.0,0.0,0.0,0.0,0.0,0.0,0.0,0.0,0.0,0.0,0.0,0.0,0.0,0.0,0.0,0.0,0.0,0.0,0.0,0.0,0.0,0.0,0.0,0.0,0.0,0.0,0.0,0.0,0.0,0.0,0.0,0.0,0.0,0.0,0.0,0.0,0.0,0.0,0.0,0.0,0.0,0.0,0.0,0.0,0.0,0.0,0.0,0.0,0.0,0.0,0.0,0.0,0.0,0.0,0.0,0.0,0.0,0.0,0.0,0.0,0.0,0.0,0.0,0.0,0.0,0.0,0.0,0.0,0.0,0.0,0.0,1.0587,1.0709,1.172,1.2245,0.0,0.0,0.0,0.0,0.0,0.0,0.0,0.0,0.0,0.0,0.0,0.0,0.0,0.0,0.0,0.0,0.0,0.0,0.0,0.0,0.0,0.0,0.0,0.0,0.0,0.0,0.0,0.0,0.0,0.0,0.0,0.0,0.0,0.0,0.0,0.0,0.0,0.0,0.0,0.0,0.0,0.0,0.0,0.0,0.0,0.0,0.0,0.0,0.0,0.0,0.0,0.0,0.0,0.0,0.0,0.0,0.0,0.0,0.0,0.0,0.0,0.0,0.0,0.0,0.0,0.0,0.0,0.0,0.0,0.0,0.0,0.0,0.0,0.0,0.0,0.0,0.0,0.0,0.0,0.0,0.0,0.0,0.0,0.0,0.0,0.0,0.0,0.0,0.0,0.0,0.0,0.0,0.0,0.0,0.0,0.0,0.0,0.0,0.0,0.0,0.0,0.0,0.0,0.0,0.0,0.0,0.0,0.0,0.0,0.0,0.0,1.0045,1.0385,1.0417,0.0,1.0415,0.0,0.0,0.0,0.0,0.0,0.0,0.0,0.0,0.0,0.0,0.0,0.0,0.0,0.0,0.0,0.0,0.0,0.0,0.0,0.0,0.0,0.0,0.0,0.0,0.0,0.0,0.0,0.0,0.0,0.0,0.0,0.0,0.0,0.0,0.0,0.0,0.0,0.0,0.0,0.0,0.0,0.0,0.0,0.0,0.0,0.0,0.0,0.0,0.0,0.0,0.0,0.0,0.0,0.0,0.0,0.0,0.0,0.0,0.0,0.0,0.0,0.0,0.0,0.0,0.0,0.0,0.0,0.0,0.0,0.0,0.0,0.0,0.0,0.0,0.0,0.0,0.0,0.0,0.0,0.0,0.0,0.0,0.0,0.0,0.0,0.0,0.0,0.0,0.0,0.0,0.0,0.0,0.0,0.0,0.0,0.0,0.0,0.0,0.0,0.0,0.0,0.0,0.0,0.0,0.0,0.0,0.0,0.0,0.0,0.0,0.0,0.0,0.9727,0.9727,0.9742,0.0,0.0,0.0,0.0,0.0,0.0,0.0,0.0,0.0,0.0,0.0,0.0,0.0,0.0,0.0,0.0,0.0,0.0,0.0,0.0,0.0,0.0,0.0,0.0,0.0,0.0,0.0,0.0,0.0,0.0,0.0,0.0,0.0,0.0,0.0,0.0,0.0,0.0,0.0,0.0,0.0,0.0,0.0,0.0,0.0,0.0,0.0,0.0,0.0,0.0,0.0,0.0,0.0,0.0,0.0,0.0,0.0,0.0,0.0,0.0,0.0,0.0,0.0,0.0,0.0,0.0,0.0,0.0,0.0,0.0,0.0,0.0,0.0,0.0,0.0,0.0,0.0,0.0,0.0,0.0,0.0,0.0,0.0,0.0,0.0,0.0,0.0,0.0,0.0,0.0,0.0,0.0,0.0,0.0,0.0,0.0,0.0,0.0,0.0,0.0,0.0,0.0,0.0,0.0,0.0,0.0,0.0,0.0,0.0,0.0,0.9398,0.95,0.9545,0.9545,0.9545,0.0,0.0,0.0,0.0,0.0,0.0,0.0,0.0,0.0,0.0,0.0,0.0,0.0,0.0,0.0,0.0,0.0,0.0,0.0,0.0,0.0,0.0,0.0,0.0,0.0,0.0,0.0,0.0,0.0,0.0,0.0,0.0,0.0,0.0,0.0,0.0,0.0,0.0,0.0,0.0,0.0,0.0,0.0,0.0,0.0,0.0,0.0,0.0,0.0,0.0,0.0,0.0,0.0,0.0,0.0,0.0,0.0,0.0,0.0,0.0,0.0,0.0,0.0,0.0,0.0,0.0,0.0,0.0,0.0,0.0,0.0,0.0,0.0,0.0,0.0,0.0,0.0,0.0,0.0,0.0,0.0,0.0,0.0,0.0,0.0,0.0,0.0,0.0,0.0,0.0,0.0,0.0,0.0,0.0,0.0,0.0,0.0,0.0,0.0,0.0,0.0,0.0,0.0,0.0,0.0,0.0,0.0,0.0,0.0,0.0,0.0,0.0,0.0,0.0,0.9426,0.0,0.0,0.0,0.0,0.0,0.0,0.0,0.0,0.0,0.0,0.0,0.0,0.0,0.0,0.0,0.0,0.0,0.0,0.0,0.0,0.0,0.0,0.0,0.0,0.0,0.0,0.0,0.0,0.0,0.0,0.0,0.0,0.0,0.0,0.0,0.0,0.0,0.0,0.0,0.0,0.0,0.0,0.0,0.0,0.0,0.0,0.0,0.0,0.0,0.0,0.0,0.0,0.0,0.0,0.0,0.0,0.0,0.0,0.0,0.0,0.0,0.0,0.0,0.0,0.0,0.0,0.0,0.0,0.0,0.0,0.0,0.0,0.0,0.0,0.0,0.0,0.0,0.0,0.0,0.0,0.0,0.0,0.0,0.0,0.0,0.0,0.0,0.0,0.0,0.0,0.0,0.0,0.0,0.0,0.0,0.0,0.0,0.0,0.0,0.0,0.0,0.0,0.0,0.0,0.0,0.0,0.0,0.0,0.0,0.0,0.0,0.0,0.0,0.0,0.0,0.0,0.0,0.0,0.0,0.0,0.0,0.0,0.0,0.0,0.0,0.0,0.0,0.0,0.0,0.0,0.0,0.0,0.0,0.0,0.0,0.0,0.0,0.0,0.0,0.0,0.0,0.0,0.0,0.0,0.0,0.0,0.0,0.0,0.0,0.0,0.0,0.0,0.0,0.0,0.0,0.0,0.0,0.0,0.0,0.0,0.0,0.0,0.0,0.0,0.0,0.0,0.0,0.0,0.0,0.0,0.0,0.0,0.0,0.0,0.0,0.0,0.0,0.0,0.0,0.0,0.0,0.0,0.0,0.0,0.0,0.0,0.0,0.0,0.0,0.0,0.0,0.0,0.0,0.0,0.0,0.0,0.0,0.0,0.0,0.0,0.0,0.0,0.0,0.0,0.0,0.0,0.0,0.0,0.0,0.0,0.0,0.0,0.0,0.0,0.0,0.0,0.0,0.0,0.0,0.0,0.0,0.0,0.0,0.0,0.0,0.0,0.0,0.0,0.0,0.0,0.0,0.0,0.0,0.0,0.0,0.0,0.0,0.0,0.0,0.0,0.0,0.0,0.0,0.0,0.0,0.0,0.0,0.0,0.0,0.0,0.0,0.0,0.0,0.0,0.0,0.0,0.0,0.0,0.0,0.0,0.0,0.0,0.0,0.0,0.0,0.0,0.0,0.0,0.0,0.0,0.0,0.0,0.0,0.0,0.0,0.0,0.0,0.0,0.0,0.0,0.0,0.0,0.0,0.0,0.0,0.0,0.0,0.0,0.0,0.0,0.0,0.0,0.0,0.0,0.0,0.0,0.0,0.0,0.0,0.0,0.0,0.0,0.0,0.0,0.0,0.0,0.0,0.0,0.0,0.0,0.0,0.0,0.0,0.0,0.0,0.0,0.0,0.0,0.0,0.0,0.0,0.0,0.0,0.0,0.0,0.0,0.0,0.0,0.0,0.0,0.0,0.0,0.0,0.0,0.0,0.0,0.0,0.0,0.0,0.0,0.0,0.0,0.0,0.0,0.0,0.0,0.0,0.0,0.0,0.0,0.0,0.0,0.0,0.0,0.0,0.0,0.0,0.0,0.0,0.0,0.0,0.0,0.0,0.0,0.0,0.0,0.0,0.0,0.0,0.0,0.0,0.0,0.0,0.0,0.0,0.0,0.0,0.0,0.0,0.0,0.0,0.0,0.0,0.0,0.0,0.0,0.0,0.0,0.0,0.0,0.0,0.0,0.0,0.0,0.0,0.0,0.0,0.0,0.0,0.0,0.0,0.0,0.0,0.0,0.0,0.0,0.0,0.0,0.0,0.0,0.0,0.0,0.0,0.0,0.0,0.0,0.0,0.0,0.0,0.0,0.0,0.0,0.0,0.0,0.0,0.0,0.0,0.0,0.0,0.0,0.0,0.0,0.0,0.0,0.0,0.0,0.0,0.0,0.0,0.0,0.0,0.0,0.0,0.0,0.0,0.0,0.0,0.0,0.0,0.0,0.0,0.0,0.0,0.0,0.0,0.0,0.0,0.0,0.0,0.0,0.0,0.0,0.0,0.0,0.0,0.0,0.0,0.0,0.0,0.0,0.0,0.0,0.0,0.0,0.0,0.0,0.0,0.0,0.0,0.0,0.0,0.0,0.0,0.0,0.0,0.0,0.0,0.0,0.0,0.0,0.0,0.0,0.0,0.0,0.0,0.0,0.0,0.0,0.0,0.0,0.0,0.0,0.0,0.0,0.0,0.0,0.0,0.0,0.0,0.0,0.0,0.0,0.0,0.0,0.0,0.0,0.0,0.0,0.0,0.0,0.0,0.0,0.0,0.0,0.0,0.0,0.0,0.0,0.0,0.0,0.0,0.0,0.0,0.0,0.0,0.0,0.0,0.0,0.0,0.0,0.0,0.0,0.0,0.0,0.0,0.0,0.0,0.0,0.0,0.0,0.0,0.0,0.0,0.0,0.0,0.0,0.0,0.0,0.0,0.0,0.0,0.0,0.0,0.0,0.0,0.0,0.0,0.0,0.0,0.0,0.0,0.0,0.0,0.0,0.0,0.0,0.0,0.0,0.0,0.0,0.0,0.0,0.0,0.0,0.0,0.0,0.0,0.0,0.0,0.0,0.0,0.0,0.0,0.0,0.0,0.0,0.0,0.0,0.0,0.0,0.0,0.0,0.0,0.0,0.0,0.0,0.0,0.0,0.0,0.0,0.0,0.0,0.0,0.0,0.0,0.0,0.0,0.0,0.0,0.0,0.0,0.0,0.0,0.0,0.0,0.0,0.0,0.0,0.0,0.0,0.0,0.0,0.0,0.0,0.0,0.0,0.0,0.0,0.0,0.0,0.0,0.0,0.0,0.0,0.0,0.0,0.0,0.0,0.0,0.0,0.0,0.0,0.0,0.0,0.0,0.0,0.0,0.0,0.0,0.0,0.0,0.0,0.0,0.0,0.0,0.0,0.0,0.0,0.0,0.0,0.0,0.0,0.0,0.0,0.0,0.0,0.0,0.0,0.0,0.0,0.0,0.0,0.0,0.0,0.0,0.0,0.0,0.0,0.0,0.0,0.0,0.0,0.0,0.0,0.0,0.0,0.0,0.0,0.0,0.0,0.0,0.0,0.0,0.0,0.0,0.0,0.0,0.0,0.0,0.0,0.0,0.0,0.0,0.0,0.0,0.0,0.0,0.0,0.0,0.0,0.0,0.0,0.0,0.0,0.0,0.0,0.0,0.0,0.0,0.0,0.0,0.0,0.0,0.0,0.0,0.0,0.0,0.0,0.0,0.0,0.0,0.0,0.0,0.0,0.0,0.0,0.0,0.0,0.0,0.0,0.0,0.0,0.0,0.0,0.0,0.0,0.0,0.0,0.0,0.0,0.0,0.0,0.0,0.0,0.0,0.0,0.0,0.0,0.0,0.0,0.0,0.0,0.0,0.0,0.0,0.0,0.0,0.0,0.0,0.0,0.0,0.0,0.0,0.0,0.0,0.0,0.0,0.0,0.0,0.0,0.0,0.0,0.0,0.0,0.0,0.0,0.0,0.0,0.0,0.0,0.0,0.0,0.0,0.0,0.0,0.0,0.0,0.0,0.0,0.0,0.0,0.0,0.0,0.0,0.0,0.0,0.0,0.0,0.0,0.0,0.0,0.0,0.0,0.0,0.0,0.0,0.0,0.0,0.0,0.0,0.0,0.0,0.0,0.0,0.0,0.0,0.0,0.0,0.0,0.0,0.0,0.0,0.0,0.0,0.0,0.0,0.0,0.0,0.0,0.0,0.0,0.0,0.0,0.0,0.0,0.0,0.0,0.0,0.0,0.0,0.0,0.0,0.0,0.0,0.0,0.0,0.0,0.0,0.0,0.0,0.0,0.0,0.0,0.0,0.0,0.0,0.0,0.0,0.0,0.0,0.0,0.0,0.0,0.0,0.0,0.0,0.0,0.0,0.0,0.0,0.0,0.0,0.0,0.0,0.0,0.0,0.0,0.0,0.0,0.0,0.0,0.0,0.0,0.0,0.0,0.0,0.0,0.0,0.0,0.0,0.0,0.0,0.0,0.0,0.0,0.0,0.0,0.0,0.0,0.0,0.0,0.0,0.0,0.0,0.0,0.0,0.0,0.0,0.0,0.0,0.0,0.0,0.0,0.0,0.0,0.0,0.0,0.0,0.0,0.0,0.0,0.0,0.0,0.0,0.0,0.0,0.0,0.0,0.0,0.0,0.0,0.0,0.0,0.0,0.0,0.0,0.0,0.0,0.0,0.0,0.0,0.0,0.0,0.0,0.0,0.0,0.0,0.0,0.0,0.0,0.0,0.0,0.0,0.0,0.0,0.0,0.0,0.0,0.0,0.0,0.0,0.0,0.0,0.0,0.0,0.0,0.0,0.0]}]]]